[[{"header":{"parameterUnit":"m.s-1","parameterCategory":1,"la1":31.0,"la2":29.5877,"lo1":-88.7671,"lo2":-86.6584,"dy":0.0162,"dx":0.0185,"nx":115,"ny":88,"refTime":"2024-05-16T06:00:00:Z","depth":0,"parameterNumber":2,"parameterNumberName":"U-component_of_WINDS"},"data":[0.0,0.0,0.0,0.0,0.0,0.0,0.0,0.0,0.0,0.0,0.0,0.0,0.0,0.0,0.0,0.0,0.0,0.0,0.0,0.0,0.0,0.0,0.0,0.0,0.0,0.0,0.0,0.0,0.0,0.0,0.0,0.0,0.0,0.0,0.0,0.0,0.0,0.0,0.0,0.0,0.0,0.0,0.0,0.0,0.0,0.0,0.0,0.0,0.0,0.0,0.0,0.0,0.0,0.0,0.0,0.0,0.0,0.0,0.0,0.0,0.0,0.0,0.0,0.0,0.0,0.0,0.0,0.0,0.0,0.0,0.0,0.0,0.0,0.0,0.0,0.0,0.0,0.0,0.0,0.0,0.0,0.0,0.0,0.0,0.0,0.0,0.0,0.0,0.0,0.0,0.0,0.0,0.0,0.0,0.0,0.0,0.0,0.0,0.0,0.0,0.0,0.0,0.0,0.0,0.0,0.0,0.0,0.0,0.0,0.0,0.0,0.0,0.0,0.0,0.0,0.0,0.0,0.0,0.0,0.0,0.0,0.0,0.0,0.0,0.0,0.0,0.0,0.0,0.0,0.0,0.0,0.0,0.0,0.0,0.0,0.0,0.0,0.0,0.0,0.0,0.0,0.0,0.0,0.0,0.0,0.0,0.0,0.0,0.0,0.0,0.0,0.0,0.0,0.0,0.0,0.0,0.0,0.0,0.0,0.0,0.0,0.0,0.0,0.0,0.0,0.0,0.0,0.0,0.0,0.0,0.0,0.0,0.0,0.0,0.0,0.0,0.0,0.0,0.0,0.0,0.0,0.0,0.0,0.0,0.0,0.0,0.0,0.0,0.0,0.0,0.0,0.0,0.0,0.0,0.0,0.0,0.0,0.0,0.0,0.0,0.0,0.0,0.0,0.0,0.0,0.0,0.0,0.0,0.0,0.0,0.0,0.0,0.0,0.0,0.0,0.0,0.0,0.0,0.0,0.0,0.0,0.0,0.0,0.0,0.0,0.0,0.0,0.0,0.0,0.0,0.0,0.0,0.0,0.0,0.0,0.0,0.0,0.0,0.0,0.0,0.0,0.0,0.0,0.0,0.0,0.0,0.0,0.0,0.0,0.0,0.0,0.0,0.0,0.0,0.0,0.0,0.0,0.0,0.0,0.0,0.0,0.0,0.0,0.0,0.0,0.0,0.0,0.0,0.0,0.0,0.0,0.0,0.0,0.0,0.0,0.0,0.0,0.0,0.0,0.0,0.0,0.0,0.0,0.0,0.0,0.0,0.0,0.0,0.0,0.0,0.0,0.0,0.0,0.0,0.0,0.0,0.0,0.0,0.0,0.0,0.0,0.0,0.0,0.0,0.0,0.0,0.0,0.0,0.0,0.0,0.0,0.0,0.0,0.0,0.0,0.0,0.0,0.0,0.0,0.0,0.0,0.0,0.0,0.0,0.0,0.0,0.0,0.0,0.0,0.0,0.0,0.0,0.0,0.0,0.0,0.0,0.0,0.0,0.0,0.0,0.0,0.0,0.0,0.0,0.0,0.0,0.0,0.0,0.0,0.0,0.0,0.0,0.0,0.0,0.0,0.0,0.0,0.0,0.0,0.0,0.0,0.0,0.0,0.0,0.0,0.0,0.0,0.0,0.0,0.0,0.0,0.0,0.0,0.0,0.0,0.0,0.0,0.0,0.0,0.0,0.0,0.0,0.0,0.0,0.0,0.0,0.0,0.0,0.0,0.0,0.0,0.0,0.0,0.0,0.0,0.0,0.0,0.0,0.0,0.0,0.0,0.0,0.0,0.0,0.0,0.0,0.0,0.0,0.0,0.0,0.0,0.0,0.0,0.0,0.0,0.0,0.0,0.0,0.0,0.0,0.0,0.0,0.0,0.0,0.0,0.0,0.0,0.0,0.0,0.0,0.0,0.0,0.0,0.0,0.0,0.0,0.0,0.0,0.0,0.0,0.0,0.0,0.0,0.0,0.0,0.0,0.0,0.0,0.0,0.0,0.0,0.0,0.0,0.0,0.0,0.0,0.0,0.0,0.0,0.0,0.0,0.0,0.0,0.0,0.0,0.0,0.0,0.0,0.0,0.0,0.0,0.0,0.0,0.0,0.0,0.0,0.0,0.0,0.0,0.0,0.0,0.0,0.0,0.0,0.0,0.0,0.0,0.0,0.0,0.0,0.0,0.0,0.0,0.0,0.0,0.0,0.0,0.0,0.0,0.0,0.0,0.0,0.0,0.0,0.0,0.0,0.0,0.0,0.0,0.0,0.0,0.0,0.0,0.0,0.0,0.0,0.0,0.0,0.0,0.0,0.0,0.0,0.0,0.0,0.0,0.0,0.0,0.0,0.0,0.0,0.0,0.0,0.0,0.0,0.0,0.0,0.0,0.0,0.0,0.0,0.0,0.0,0.0,0.0,0.0,0.0,0.0,0.0,0.0,0.0,0.0,0.0,0.0,0.0,0.0,0.0,0.0,0.0,0.0,0.0,0.0,0.0,0.0,0.0,0.0,0.0,0.0,0.0,0.0,0.0,0.0,0.0,0.0,0.0,0.0,0.0,0.0,0.0,0.0,0.0,0.0,0.0,0.0,0.0,0.0,0.0,0.0,0.0,0.0,0.0,0.0,0.0,0.0,0.0,0.0,0.0,0.0,0.0,0.0,0.0,0.0,0.0,0.0,0.0,0.0,0.0,0.0,0.0,0.0,0.0,0.0,0.0,0.0,0.0,0.0,0.0,0.0,0.0,0.0,0.0,0.0,0.0,0.0,0.0,0.0,0.0,0.0,0.0,0.0,0.0,0.0,0.0,0.0,0.0,0.0,0.0,0.0,0.0,0.0,0.0,0.0,0.0,0.0,0.0,0.0,0.0,0.0,0.0,0.0,0.0,0.0,0.0,0.0,0.0,0.0,0.0,0.0,0.0,0.0,0.0,0.0,0.0,0.0,0.0,0.0,0.0,0.0,0.0,0.0,0.0,0.0,0.0,0.0,0.0,0.0,0.0,0.0,0.0,0.0,0.0,0.0,0.0,0.0,0.0,0.0,0.0,0.0,0.0,0.0,0.0,0.0,0.0,0.0,0.0,0.0,0.0,0.0,0.0,0.0,0.0,0.0,0.0,0.0,0.0,0.0,0.0,0.0,0.0,0.0,0.0,0.0,0.0,0.0,0.0,0.0,0.0,0.0,0.0,0.0,0.0,0.0,0.0,0.0,0.0,0.0,0.0,0.0,0.0,0.0,0.0,0.0,0.0,0.0,0.0,0.0,0.0,0.0,0.0,0.0,0.0,0.0,0.0,0.0,0.0,0.0,0.0,0.0,0.0,0.0,0.0,0.0,0.0,0.0,0.0,0.0,0.0,0.0,0.0,0.0,0.0,0.0,0.0,0.0,0.0,0.0,0.0,0.0,0.0,0.0,0.0,0.0,0.0,0.0,0.0,0.0,0.0,0.0,0.0,0.0,0.0,0.0,0.0,0.0,0.0,0.0,0.0,0.0,0.0,0.0,0.0,0.0,0.0,0.0,0.0,0.0,0.0,0.0,0.0,0.0,0.0,0.0,0.0,0.0,0.0,0.0,0.0,0.0,0.0,0.0,0.0,0.0,0.0,0.0,0.0,0.0,0.0,0.0,0.0,0.0,0.0,0.0,0.0,0.0,0.0,0.0,0.0,0.0,0.0,0.0,0.0,0.0,0.0,0.0,0.0,0.0,0.0,0.0,0.0,0.0,0.0,0.0,0.0,0.0,0.0,0.0,0.0,0.0,0.0,0.0,0.0,0.0,0.0,0.0,0.0,0.0,0.0,0.0,0.0,0.0,0.0,0.0,0.0,0.0,0.0,0.0,0.0,0.0,0.0,0.0,0.0,0.0,0.0,0.0,0.0,0.0,0.0,0.0,0.0,0.0,0.0,0.0,0.0,0.0,0.0,0.0,0.0,0.0,0.0,0.0,0.0,0.0,0.0,0.0,0.0,0.0,0.0,0.0,0.0,0.0,0.0,0.0,0.0,0.0,0.0,0.0,0.0,0.0,0.0,0.0,0.0,0.0,0.0,0.0,0.0,0.0,0.0,0.0,0.0,0.0,0.0,0.0,0.0,0.0,0.0,0.0,0.0,0.0,0.0,0.0,0.0,0.0,0.0,0.0,0.0,0.0,0.0,0.0,0.0,0.0,0.0,0.0,0.0,0.0,0.0,0.0,0.0,0.0,0.0,0.0,0.0,0.0,0.0,0.0,0.0,0.0,0.0,0.0,0.0,0.0,0.0,0.0,0.0,0.0,0.0,0.0,0.0,-4.1647,0.0,0.0,0.0,0.0,0.0,0.0,0.0,0.0,0.0,0.0,0.0,0.0,0.0,0.0,0.0,0.0,0.0,0.0,0.0,0.0,0.0,0.0,0.0,0.0,0.0,0.0,0.0,0.0,0.0,0.0,0.0,0.0,0.0,0.0,0.0,0.0,0.0,0.0,0.0,0.0,0.0,0.0,0.0,0.0,0.0,0.0,0.0,0.0,0.0,0.0,0.0,0.0,0.0,0.0,0.0,0.0,0.0,0.0,0.0,0.0,0.0,0.0,0.0,0.0,0.0,0.0,0.0,0.0,0.0,0.0,0.0,0.0,0.0,0.0,0.0,0.0,0.0,0.0,0.0,0.0,0.0,0.0,0.0,0.0,0.0,0.0,0.0,0.0,0.0,0.0,0.0,0.0,0.0,0.0,0.0,0.0,0.0,0.0,0.0,0.0,0.0,0.0,0.0,0.0,0.0,0.0,0.0,0.0,0.0,0.0,-4.4878,-4.4616,-4.4126,-4.3613,-4.2971,0.0,0.0,0.0,0.0,0.0,0.0,0.0,0.0,0.0,0.0,0.0,0.0,0.0,0.0,0.0,0.0,0.0,0.0,0.0,0.0,0.0,0.0,0.0,0.0,0.0,0.0,0.0,0.0,0.0,0.0,0.0,0.0,0.0,0.0,0.0,0.0,0.0,0.0,0.0,0.0,0.0,0.0,0.0,0.0,0.0,0.0,0.0,0.0,0.0,0.0,0.0,0.0,0.0,0.0,0.0,0.0,0.0,0.0,0.0,0.0,0.0,0.0,0.0,0.0,0.0,0.0,0.0,0.0,0.0,0.0,0.0,0.0,0.0,0.0,0.0,0.0,0.0,0.0,0.0,0.0,0.0,0.0,0.0,0.0,0.0,0.0,0.0,0.0,0.0,0.0,0.0,0.0,0.0,0.0,0.0,0.0,0.0,0.0,0.0,0.0,0.0,0.0,0.0,0.0,0.0,0.0,0.0,0.0,0.0,0.0,0.0,0.0,-4.4714,-4.4181,-4.3855,0.0,0.0,0.0,0.0,0.0,0.0,0.0,0.0,0.0,0.0,0.0,0.0,0.0,0.0,0.0,0.0,0.0,0.0,0.0,0.0,0.0,0.0,0.0,0.0,0.0,0.0,0.0,0.0,0.0,0.0,0.0,0.0,0.0,0.0,0.0,0.0,0.0,0.0,0.0,0.0,0.0,0.0,0.0,0.0,0.0,0.0,0.0,0.0,0.0,0.0,0.0,0.0,0.0,0.0,0.0,0.0,0.0,0.0,0.0,0.0,0.0,0.0,0.0,0.0,0.0,0.0,0.0,0.0,0.0,0.0,0.0,0.0,0.0,0.0,0.0,0.0,0.0,0.0,0.0,0.0,0.0,0.0,0.0,0.0,0.0,0.0,0.0,0.0,0.0,0.0,0.0,0.0,0.0,0.0,0.0,0.0,0.0,0.0,0.0,0.0,0.0,0.0,0.0,0.0,0.0,0.0,0.0,0.0,0.0,0.0,-4.5736,-4.5761,-4.5692,0.0,-4.3379,0.0,0.0,0.0,0.0,0.0,0.0,0.0,0.0,0.0,0.0,0.0,0.0,0.0,0.0,0.0,0.0,0.0,0.0,0.0,0.0,0.0,0.0,0.0,0.0,0.0,0.0,0.0,0.0,0.0,0.0,0.0,0.0,0.0,0.0,0.0,0.0,0.0,0.0,0.0,0.0,0.0,0.0,0.0,0.0,0.0,0.0,0.0,0.0,0.0,0.0,0.0,0.0,0.0,0.0,0.0,0.0,0.0,0.0,0.0,0.0,0.0,0.0,0.0,0.0,0.0,0.0,0.0,0.0,0.0,0.0,0.0,0.0,0.0,0.0,0.0,0.0,0.0,0.0,0.0,0.0,0.0,0.0,0.0,0.0,0.0,0.0,0.0,0.0,0.0,0.0,0.0,0.0,0.0,0.0,0.0,0.0,0.0,0.0,0.0,0.0,0.0,0.0,0.0,0.0,0.0,0.0,0.0,0.0,0.0,0.0,-4.603,-4.6055,-4.5955,-4.5107,0.0,0.0,0.0,0.0,0.0,0.0,0.0,0.0,0.0,0.0,0.0,0.0,0.0,0.0,0.0,0.0,0.0,0.0,0.0,0.0,0.0,0.0,0.0,0.0,0.0,0.0,0.0,0.0,0.0,0.0,0.0,0.0,0.0,0.0,0.0,0.0,0.0,0.0,0.0,0.0,0.0,0.0,0.0,0.0,0.0,0.0,0.0,0.0,0.0,0.0,0.0,0.0,0.0,0.0,0.0,0.0,0.0,0.0,0.0,0.0,0.0,0.0,0.0,0.0,0.0,0.0,0.0,0.0,0.0,0.0,0.0,0.0,0.0,0.0,0.0,0.0,0.0,0.0,0.0,0.0,0.0,0.0,0.0,0.0,0.0,0.0,0.0,0.0,0.0,0.0,0.0,0.0,0.0,0.0,0.0,0.0,0.0,0.0,0.0,0.0,0.0,0.0,0.0,0.0,0.0,0.0,0.0,0.0,0.0,0.0,-4.6423,-4.6423,-4.6339,-4.6179,-4.5246,-4.3576,0.0,0.0,0.0,0.0,0.0,0.0,0.0,0.0,0.0,0.0,0.0,0.0,0.0,0.0,0.0,0.0,0.0,0.0,0.0,0.0,0.0,0.0,0.0,0.0,0.0,0.0,0.0,0.0,0.0,0.0,0.0,0.0,0.0,0.0,0.0,0.0,0.0,0.0,0.0,0.0,0.0,0.0,0.0,0.0,0.0,0.0,0.0,0.0,0.0,0.0,0.0,0.0,0.0,0.0,0.0,0.0,0.0,0.0,0.0,0.0,0.0,0.0,0.0,0.0,0.0,0.0,0.0,0.0,0.0,0.0,0.0,0.0,0.0,0.0,0.0,0.0,0.0,0.0,0.0,0.0,0.0,0.0,0.0,0.0,0.0,0.0,0.0,0.0,0.0,0.0,0.0,0.0,0.0,0.0,0.0,0.0,0.0,0.0,0.0,0.0,0.0,0.0,0.0,0.0,0.0,0.0,0.0,0.0,-4.6975,-4.6975,-4.6929,-4.679,-4.6398,-4.5466,0.0,0.0,0.0,0.0,0.0,0.0,0.0,0.0,0.0,0.0,0.0,0.0,0.0,0.0,0.0,0.0,0.0,0.0,0.0,0.0,0.0,0.0,0.0,0.0,0.0,0.0,0.0,0.0,0.0,0.0,0.0,0.0,0.0,0.0,0.0,0.0,0.0,0.0,0.0,0.0,0.0,0.0,0.0,0.0,0.0,0.0,0.0,0.0,0.0,0.0,0.0,0.0,0.0,0.0,0.0,0.0,0.0,0.0,0.0,0.0,0.0,0.0,0.0,0.0,0.0,0.0,0.0,0.0,0.0,0.0,0.0,0.0,0.0,0.0,0.0,0.0,0.0,0.0,0.0,0.0,0.0,0.0,0.0,0.0,0.0,0.0,0.0,0.0,0.0,0.0,0.0,0.0,0.0,0.0,0.0,0.0,0.0,0.0,0.0,0.0,0.0,0.0,0.0,0.0,0.0,0.0,0.0,0.0,0.0,-4.7443,-4.7377,-4.7505,-4.7882,-4.7119,-4.5846,0.0,0.0,0.0,0.0,0.0,0.0,0.0,0.0,0.0,0.0,0.0,0.0,0.0,0.0,0.0,0.0,0.0,0.0,0.0,0.0,0.0,0.0,0.0,0.0,0.0,0.0,0.0,0.0,0.0,0.0,0.0,0.0,0.0,0.0,0.0,0.0,0.0,0.0,0.0,0.0,0.0,0.0,0.0,0.0,0.0,0.0,0.0,0.0,0.0,0.0,0.0,0.0,0.0,0.0,0.0,0.0,0.0,0.0,0.0,0.0,0.0,0.0,0.0,0.0,0.0,0.0,0.0,0.0,0.0,0.0,0.0,0.0,0.0,0.0,0.0,0.0,0.0,0.0,0.0,0.0,0.0,0.0,0.0,0.0,0.0,0.0,0.0,0.0,0.0,0.0,0.0,0.0,0.0,0.0,0.0,0.0,0.0,0.0,0.0,0.0,0.0,0.0,0.0,0.0,0.0,0.0,0.0,0.0,0.0,-4.8146,0.0,-4.8518,-4.867,-4.79,-4.6605,0.0,0.0,0.0,0.0,0.0,0.0,0.0,0.0,0.0,0.0,0.0,0.0,0.0,0.0,0.0,0.0,0.0,0.0,0.0,0.0,0.0,0.0,0.0,0.0,0.0,0.0,0.0,0.0,0.0,0.0,0.0,0.0,0.0,0.0,0.0,0.0,0.0,0.0,0.0,0.0,0.0,0.0,0.0,0.0,0.0,0.0,0.0,0.0,0.0,0.0,0.0,0.0,0.0,0.0,0.0,0.0,0.0,0.0,0.0,0.0,0.0,0.0,0.0,0.0,0.0,0.0,0.0,0.0,0.0,0.0,0.0,0.0,0.0,0.0,0.0,0.0,0.0,0.0,0.0,0.0,0.0,0.0,0.0,0.0,0.0,0.0,0.0,0.0,0.0,0.0,0.0,0.0,0.0,0.0,0.0,0.0,0.0,0.0,0.0,0.0,0.0,0.0,0.0,0.0,0.0,0.0,0.0,0.0,-4.8291,-4.9232,-4.9913,-4.9886,-4.9138,-4.8728,-4.7693,0.0,0.0,0.0,0.0,0.0,0.0,0.0,0.0,0.0,0.0,0.0,0.0,0.0,0.0,0.0,0.0,0.0,0.0,0.0,0.0,0.0,0.0,0.0,0.0,0.0,0.0,0.0,0.0,0.0,0.0,0.0,0.0,0.0,0.0,0.0,0.0,0.0,0.0,0.0,0.0,0.0,0.0,0.0,0.0,0.0,0.0,0.0,0.0,0.0,0.0,0.0,0.0,0.0,0.0,0.0,0.0,0.0,0.0,0.0,0.0,0.0,0.0,0.0,0.0,0.0,0.0,0.0,0.0,0.0,0.0,0.0,0.0,0.0,0.0,0.0,0.0,0.0,0.0,0.0,0.0,0.0,0.0,0.0,0.0,0.0,0.0,0.0,0.0,0.0,0.0,0.0,0.0,0.0,0.0,0.0,0.0,0.0,0.0,0.0,0.0,0.0,0.0,0.0,0.0,0.0,0.0,0.0,0.0,0.0,-5.1067,-5.0707,-5.0665,-5.0884,-4.9546,-4.8179,0.0,0.0,0.0,0.0,0.0,0.0,0.0,0.0,0.0,0.0,0.0,0.0,0.0,0.0,0.0,0.0,0.0,0.0,0.0,0.0,0.0,0.0,0.0,0.0,0.0,0.0,0.0,0.0,0.0,0.0,0.0,0.0,0.0,0.0,0.0,0.0,0.0,0.0,0.0,0.0,0.0,0.0,0.0,0.0,0.0,0.0,0.0,0.0,0.0,0.0,0.0,0.0,0.0,0.0,0.0,0.0,0.0,0.0,0.0,0.0,0.0,0.0,0.0,0.0,0.0,0.0,0.0,0.0,0.0,0.0,0.0,0.0,0.0,0.0,0.0,0.0,0.0,0.0,0.0,0.0,0.0,0.0,0.0,0.0,0.0,0.0,0.0,0.0,0.0,0.0,0.0,0.0,0.0,0.0,0.0,0.0,0.0,0.0,0.0,0.0,0.0,0.0,0.0,0.0,0.0,0.0,0.0,0.0,0.0,-5.2821,-5.2318,-5.2092,-5.2312,-5.107,-4.9612,-4.8099,0.0,0.0,0.0,0.0,0.0,0.0,0.0,0.0,0.0,0.0,0.0,0.0,0.0,0.0,0.0,0.0,0.0,0.0,0.0,0.0,0.0,0.0,0.0,0.0,0.0,0.0,0.0,0.0,0.0,0.0,0.0,0.0,0.0,0.0,0.0,0.0,0.0,0.0,0.0,0.0,0.0,0.0,0.0,0.0,0.0,0.0,0.0,0.0,0.0,0.0,0.0,0.0,0.0,0.0,0.0,0.0,0.0,0.0,0.0,0.0,0.0,0.0,0.0,0.0,0.0,0.0,0.0,0.0,0.0,0.0,0.0,0.0,0.0,0.0,0.0,0.0,0.0,0.0,0.0,0.0,0.0,0.0,0.0,0.0,0.0,0.0,0.0,0.0,0.0,0.0,0.0,0.0,0.0,0.0,0.0,0.0,0.0,0.0,0.0,0.0,0.0,0.0,0.0,0.0,0.0,0.0,0.0,0.0,-5.4436,-5.4509,-5.4142,-5.335,-5.2974,-5.169,0.0,0.0,0.0,0.0,0.0,0.0,0.0,0.0,0.0,0.0,0.0,0.0,0.0,0.0,0.0,0.0,0.0,0.0,0.0,0.0,0.0,0.0,0.0,0.0,0.0,0.0,0.0,0.0,0.0,0.0,0.0,0.0,0.0,0.0,0.0,0.0,0.0,0.0,0.0,0.0,0.0,0.0,0.0,0.0,0.0,0.0,0.0,0.0,0.0,0.0,0.0,0.0,0.0,0.0,0.0,0.0,0.0,0.0,0.0,0.0,0.0,0.0,0.0,0.0,0.0,0.0,0.0,0.0,0.0,0.0,0.0,0.0,0.0,0.0,0.0,0.0,0.0,0.0,0.0,0.0,0.0,0.0,0.0,0.0,0.0,0.0,0.0,0.0,0.0,0.0,0.0,0.0,0.0,0.0,0.0,0.0,0.0,0.0,0.0,0.0,0.0,0.0,0.0,0.0,0.0,0.0,0.0,0.0,0.0,-5.5244,-5.5868,-5.5794,-5.4987,-5.3559,-5.22,0.0,0.0,0.0,0.0,0.0,0.0,0.0,0.0,0.0,0.0,0.0,0.0,0.0,0.0,0.0,0.0,0.0,0.0,0.0,0.0,0.0,0.0,0.0,0.0,0.0,0.0,0.0,0.0,0.0,0.0,0.0,0.0,0.0,0.0,0.0,0.0,0.0,0.0,0.0,0.0,0.0,0.0,0.0,0.0,0.0,0.0,0.0,0.0,0.0,0.0,0.0,0.0,0.0,0.0,0.0,0.0,0.0,0.0,0.0,0.0,0.0,0.0,0.0,0.0,0.0,0.0,0.0,0.0,0.0,0.0,0.0,0.0,0.0,0.0,0.0,0.0,0.0,0.0,0.0,0.0,0.0,0.0,0.0,0.0,0.0,0.0,0.0,0.0,0.0,0.0,0.0,0.0,0.0,0.0,0.0,0.0,0.0,0.0,0.0,0.0,0.0,0.0,0.0,0.0,0.0,0.0,0.0,0.0,-5.4656,-5.5574,-5.6712,-5.7056,-5.6534,-5.4779,-5.3053,0.0,0.0,0.0,0.0,0.0,0.0,0.0,0.0,0.0,0.0,0.0,0.0,0.0,0.0,0.0,0.0,0.0,0.0,0.0,0.0,0.0,0.0,0.0,0.0,0.0,0.0,0.0,0.0,0.0,0.0,0.0,0.0,0.0,0.0,0.0,0.0,0.0,0.0,0.0,0.0,0.0,0.0,0.0,0.0,0.0,0.0,0.0,0.0,0.0,0.0,0.0,0.0,0.0,0.0,0.0,0.0,0.0,0.0,0.0,0.0,0.0,0.0,0.0,0.0,0.0,0.0,0.0,0.0,0.0,0.0,0.0,0.0,0.0,0.0,0.0,0.0,0.0,0.0,0.0,0.0,0.0,0.0,0.0,0.0,0.0,0.0,0.0,0.0,0.0,0.0,0.0,0.0,0.0,0.0,0.0,0.0,0.0,0.0,0.0,0.0,0.0,0.0,0.0,0.0,0.0,0.0,0.0,0.0,-5.5611,-5.5721,-5.7226,-5.795,-5.7737,-5.6121,-5.4109,0.0,0.0,0.0,0.0,0.0,0.0,0.0,0.0,0.0,0.0,0.0,0.0,0.0,0.0,0.0,0.0,0.0,0.0,0.0,0.0,0.0,0.0,0.0,0.0,0.0,0.0,0.0,0.0,0.0,0.0,0.0,0.0,0.0,0.0,0.0,0.0,0.0,0.0,0.0,0.0,0.0,0.0,0.0,0.0,0.0,0.0,0.0,0.0,0.0,0.0,0.0,0.0,0.0,0.0,0.0,0.0,0.0,0.0,0.0,0.0,0.0,0.0,0.0,0.0,0.0,0.0,0.0,0.0,0.0,0.0,0.0,0.0,0.0,0.0,0.0,0.0,0.0,0.0,0.0,0.0,0.0,0.0,0.0,0.0,0.0,0.0,0.0,0.0,0.0,0.0,0.0,0.0,0.0,0.0,0.0,0.0,0.0,0.0,0.0,0.0,0.0,0.0,0.0,0.0,0.0,0.0,0.0,0.0,-5.5904,-5.6565,-5.7483,-5.795,-5.781,-5.6121,-5.4573,0.0,0.0,0.0,0.0,0.0,0.0,0.0,0.0,0.0,0.0,0.0,0.0,0.0,0.0,0.0,0.0,0.0,0.0,0.0,0.0,0.0,0.0,0.0,0.0,0.0,0.0,0.0,0.0,0.0,0.0,0.0,0.0,0.0,0.0,0.0,0.0,0.0,0.0,0.0,0.0,0.0,0.0,0.0,0.0,0.0,0.0,0.0,0.0,-4.9958,0.0,0.0,0.0,0.0,0.0,0.0,0.0,0.0,0.0,0.0,0.0,0.0,0.0,0.0,0.0,0.0,0.0,0.0,0.0,0.0,0.0,0.0,0.0,0.0,0.0,0.0,0.0,0.0,0.0,0.0,0.0,0.0,0.0,0.0,0.0,0.0,0.0,0.0,0.0,0.0,0.0,0.0,0.0,0.0,0.0,0.0,0.0,0.0,0.0,0.0,0.0,0.0,0.0,0.0,0.0,0.0,0.0,0.0,0.0,-5.5978,-5.6785,-5.7593,-5.7904,-5.7666,-5.6075,-5.4649,0.0,0.0,0.0,0.0,0.0,0.0,0.0,0.0,0.0,0.0,0.0,0.0,0.0,0.0,0.0,0.0,0.0,0.0,0.0,0.0,0.0,0.0,0.0,0.0,0.0,0.0,0.0,0.0,0.0,0.0,0.0,0.0,0.0,0.0,0.0,0.0,0.0,0.0,0.0,0.0,0.0,0.0,0.0,0.0,0.0,0.0,0.0,0.0,0.0,0.0,0.0,0.0,0.0,0.0,0.0,0.0,0.0,0.0,0.0,0.0,0.0,0.0,0.0,0.0,0.0,0.0,0.0,0.0,0.0,0.0,0.0,0.0,0.0,0.0,0.0,0.0,0.0,0.0,0.0,0.0,0.0,0.0,0.0,0.0,0.0,0.0,0.0,0.0,0.0,0.0,0.0,0.0,0.0,0.0,0.0,0.0,0.0,0.0,0.0,0.0,0.0,0.0,0.0,0.0,0.0,0.0,0.0,-5.4767,-5.6051,-5.6969,-5.7629,-5.7881,-5.7594,-5.6051,-5.4651,-5.3506,0.0,0.0,0.0,0.0,0.0,0.0,0.0,0.0,0.0,0.0,0.0,0.0,0.0,0.0,0.0,0.0,0.0,0.0,0.0,0.0,0.0,0.0,0.0,0.0,0.0,0.0,0.0,0.0,0.0,0.0,0.0,0.0,0.0,0.0,0.0,0.0,0.0,0.0,-4.7259,-4.912,0.0,0.0,0.0,0.0,0.0,0.0,0.0,0.0,-5.1488,0.0,0.0,0.0,0.0,0.0,0.0,0.0,0.0,0.0,0.0,0.0,0.0,0.0,0.0,0.0,0.0,0.0,0.0,0.0,0.0,0.0,0.0,0.0,0.0,0.0,0.0,0.0,0.0,0.0,0.0,0.0,0.0,0.0,0.0,0.0,0.0,0.0,0.0,0.0,0.0,0.0,0.0,0.0,0.0,0.0,0.0,0.0,0.0,0.0,0.0,0.0,0.0,0.0,0.0,0.0,0.0,-5.4775,-5.5353,-5.633,-5.774,-5.7923,-5.7927,-5.7713,-5.5991,-5.481,-5.4226,0.0,0.0,0.0,0.0,0.0,0.0,0.0,0.0,0.0,0.0,0.0,0.0,0.0,0.0,0.0,0.0,0.0,0.0,0.0,0.0,0.0,0.0,0.0,0.0,0.0,0.0,0.0,0.0,0.0,0.0,0.0,0.0,0.0,0.0,0.0,0.0,0.0,0.0,0.0,-5.0913,-5.1995,0.0,0.0,0.0,0.0,0.0,0.0,0.0,0.0,-5.2875,0.0,0.0,0.0,0.0,0.0,0.0,0.0,0.0,0.0,0.0,0.0,0.0,0.0,0.0,0.0,0.0,0.0,0.0,0.0,0.0,0.0,0.0,0.0,0.0,0.0,0.0,0.0,0.0,0.0,0.0,0.0,0.0,0.0,0.0,0.0,0.0,0.0,0.0,0.0,0.0,0.0,0.0,0.0,0.0,0.0,0.0,0.0,0.0,0.0,0.0,0.0,0.0,0.0,0.0,0.0,-5.5108,-5.5485,-5.6381,-5.7923,-5.7997,-5.7707,-5.7188,-5.5819,-5.4736,0.0,0.0,0.0,0.0,0.0,0.0,0.0,0.0,0.0,0.0,0.0,0.0,0.0,0.0,0.0,0.0,0.0,0.0,0.0,0.0,0.0,0.0,0.0,0.0,0.0,0.0,0.0,0.0,0.0,0.0,0.0,0.0,0.0,0.0,0.0,0.0,0.0,0.0,0.0,0.0,-5.1961,-5.2942,-5.2909,0.0,0.0,0.0,0.0,0.0,0.0,-5.3247,-5.3382,0.0,0.0,0.0,0.0,0.0,0.0,0.0,0.0,0.0,0.0,0.0,0.0,0.0,0.0,0.0,0.0,0.0,0.0,0.0,0.0,0.0,0.0,0.0,0.0,0.0,0.0,0.0,0.0,0.0,0.0,0.0,0.0,0.0,0.0,0.0,0.0,0.0,0.0,0.0,0.0,0.0,0.0,0.0,0.0,0.0,0.0,0.0,0.0,0.0,0.0,0.0,0.0,0.0,0.0,0.0,-5.481,-5.5383,-5.6294,-5.7703,-5.7776,-5.7474,-5.6882,-5.5464,-5.4345,0.0,0.0,0.0,0.0,0.0,0.0,0.0,0.0,0.0,0.0,0.0,0.0,0.0,0.0,0.0,0.0,0.0,0.0,0.0,0.0,0.0,0.0,0.0,0.0,0.0,0.0,0.0,0.0,0.0,0.0,0.0,0.0,0.0,0.0,0.0,0.0,0.0,0.0,0.0,0.0,0.0,-5.3721,-5.3788,-5.4432,0.0,0.0,0.0,0.0,-5.3618,-5.3551,0.0,0.0,0.0,0.0,0.0,0.0,0.0,0.0,0.0,0.0,0.0,0.0,0.0,0.0,0.0,0.0,0.0,0.0,0.0,0.0,0.0,0.0,0.0,0.0,0.0,0.0,0.0,0.0,0.0,0.0,0.0,0.0,0.0,0.0,0.0,0.0,0.0,0.0,0.0,0.0,0.0,0.0,0.0,0.0,0.0,0.0,0.0,0.0,0.0,0.0,0.0,0.0,0.0,0.0,0.0,0.0,-5.3237,-5.4833,-5.6051,-5.6895,-5.6969,-5.7226,-5.7753,-5.4765,-5.3308,0.0,0.0,0.0,0.0,0.0,0.0,0.0,0.0,0.0,0.0,0.0,0.0,0.0,0.0,0.0,0.0,0.0,0.0,0.0,0.0,0.0,0.0,0.0,0.0,0.0,0.0,0.0,0.0,0.0,0.0,0.0,0.0,0.0,0.0,0.0,0.0,0.0,0.0,0.0,0.0,0.0,-5.4533,-5.4703,-5.5383,-5.5587,0.0,0.0,-5.4699,-5.405,-5.3783,0.0,0.0,0.0,0.0,0.0,0.0,0.0,0.0,0.0,0.0,0.0,0.0,0.0,0.0,0.0,0.0,0.0,0.0,0.0,0.0,0.0,0.0,0.0,0.0,0.0,0.0,0.0,0.0,0.0,0.0,0.0,0.0,0.0,0.0,0.0,0.0,0.0,0.0,0.0,0.0,0.0,0.0,0.0,0.0,0.0,0.0,0.0,0.0,0.0,0.0,0.0,0.0,0.0,0.0,0.0,-5.137,-5.3066,-5.4304,-5.5317,-5.6088,-5.6124,-5.6271,-5.6602,-5.4649,-5.3448,0.0,0.0,0.0,0.0,0.0,0.0,0.0,0.0,0.0,0.0,0.0,0.0,0.0,0.0,0.0,0.0,0.0,0.0,0.0,0.0,0.0,0.0,0.0,0.0,0.0,0.0,0.0,0.0,0.0,0.0,0.0,0.0,0.0,0.0,0.0,0.0,0.0,0.0,0.0,0.0,0.0,0.0,-5.4941,-5.5962,0.0,0.0,0.0,-5.5688,-5.5346,0.0,0.0,0.0,0.0,0.0,0.0,0.0,0.0,0.0,0.0,0.0,0.0,0.0,0.0,0.0,0.0,0.0,0.0,0.0,0.0,0.0,0.0,0.0,0.0,0.0,0.0,0.0,0.0,0.0,0.0,0.0,0.0,0.0,0.0,0.0,0.0,0.0,0.0,0.0,0.0,0.0,0.0,0.0,0.0,0.0,0.0,0.0,0.0,0.0,0.0,0.0,0.0,0.0,0.0,0.0,0.0,0.0,-5.258,-5.3592,-5.4473,-5.5244,-5.528,-5.55,-5.5831,-5.4217,0.0,0.0,0.0,0.0,0.0,0.0,0.0,0.0,0.0,0.0,0.0,0.0,0.0,0.0,0.0,0.0,0.0,0.0,0.0,0.0,0.0,0.0,0.0,0.0,0.0,0.0,0.0,-4.1542,0.0,0.0,0.0,0.0,0.0,0.0,0.0,0.0,0.0,0.0,0.0,0.0,0.0,0.0,-5.5826,-5.5349,-5.6713,-5.7501,0.0,0.0,-5.6644,-5.6439,-5.6404,-5.6097,0.0,0.0,0.0,0.0,0.0,0.0,0.0,0.0,0.0,0.0,0.0,0.0,0.0,0.0,0.0,0.0,0.0,0.0,0.0,0.0,0.0,0.0,0.0,0.0,0.0,0.0,0.0,0.0,0.0,0.0,0.0,0.0,0.0,0.0,0.0,0.0,0.0,0.0,0.0,0.0,0.0,0.0,0.0,0.0,0.0,0.0,0.0,0.0,0.0,0.0,0.0,0.0,0.0,0.0,-4.9984,-5.0986,-5.2491,-5.3665,-5.4436,-5.4473,-5.5207,-5.6579,-5.2898,-5.1511,0.0,0.0,0.0,0.0,0.0,0.0,0.0,0.0,0.0,0.0,0.0,0.0,0.0,0.0,0.0,0.0,0.0,0.0,0.0,0.0,0.0,0.0,0.0,0.0,0.0,0.0,0.0,0.0,0.0,0.0,0.0,0.0,0.0,0.0,0.0,0.0,0.0,0.0,0.0,0.0,0.0,-5.6099,-5.6336,-5.7707,-5.8462,0.0,-5.7806,-5.7565,-5.6876,-5.6771,-5.6429,-5.5544,0.0,0.0,0.0,0.0,0.0,0.0,0.0,0.0,0.0,0.0,0.0,0.0,0.0,0.0,0.0,0.0,0.0,0.0,0.0,0.0,0.0,0.0,0.0,0.0,0.0,0.0,0.0,0.0,0.0,0.0,0.0,0.0,0.0,0.0,0.0,0.0,0.0,0.0,0.0,0.0,0.0,0.0,0.0,0.0,0.0,0.0,0.0,0.0,0.0,0.0,0.0,0.0,0.0,-4.9955,-5.0802,-5.1903,-5.2858,-5.3607,-5.3665,-5.4179,-5.5317,-5.2815,-5.169,0.0,0.0,0.0,0.0,0.0,0.0,0.0,0.0,0.0,0.0,0.0,0.0,0.0,0.0,0.0,0.0,0.0,0.0,0.0,0.0,0.0,0.0,0.0,0.0,0.0,0.0,0.0,0.0,-4.3842,-4.4248,-4.4581,0.0,0.0,0.0,0.0,0.0,0.0,0.0,0.0,0.0,0.0,-5.5823,-5.6437,-5.798,0.0,0.0,-5.8835,-5.8899,-5.8683,-5.8681,-5.837,-5.7575,-5.753,0.0,0.0,0.0,0.0,0.0,0.0,0.0,0.0,0.0,0.0,0.0,0.0,0.0,0.0,0.0,0.0,0.0,0.0,0.0,0.0,0.0,0.0,0.0,0.0,0.0,0.0,0.0,0.0,0.0,0.0,0.0,0.0,0.0,0.0,0.0,0.0,0.0,0.0,0.0,0.0,0.0,0.0,0.0,0.0,0.0,0.0,0.0,0.0,0.0,0.0,0.0,0.0,-4.9738,-5.0765,-5.1353,-5.216,-5.3188,-5.3203,-5.3592,-5.4326,-5.2821,-5.1935,0.0,0.0,0.0,0.0,0.0,0.0,0.0,0.0,0.0,0.0,0.0,0.0,0.0,0.0,0.0,0.0,0.0,0.0,0.0,0.0,0.0,0.0,0.0,0.0,0.0,0.0,0.0,0.0,-4.4248,-4.4581,-4.4581,0.0,0.0,0.0,0.0,0.0,0.0,0.0,0.0,0.0,0.0,-5.6021,-5.6603,-5.8282,-5.9451,-5.9451,-5.9619,-5.9783,-5.9879,-5.9975,-5.9759,-5.899,0.0,0.0,0.0,0.0,0.0,0.0,0.0,0.0,0.0,0.0,0.0,0.0,0.0,0.0,0.0,0.0,0.0,0.0,0.0,0.0,0.0,0.0,0.0,0.0,0.0,0.0,0.0,0.0,0.0,0.0,-4.2886,0.0,0.0,0.0,0.0,0.0,0.0,0.0,0.0,0.0,0.0,0.0,0.0,0.0,0.0,0.0,0.0,0.0,0.0,0.0,0.0,0.0,0.0,-4.915,-5.0802,-5.0875,-5.161,-5.313,-5.3203,-5.3592,-5.4289,-5.2821,-5.1935,-5.1721,0.0,0.0,0.0,0.0,0.0,0.0,0.0,0.0,0.0,0.0,0.0,0.0,0.0,0.0,0.0,0.0,0.0,0.0,0.0,0.0,0.0,0.0,0.0,0.0,0.0,0.0,-4.4519,-4.4615,-4.4615,0.0,0.0,0.0,0.0,0.0,0.0,0.0,0.0,0.0,0.0,-5.5191,-5.6835,-5.6999,-5.8609,-5.9779,-5.9814,-5.9975,-6.0107,-6.0139,-6.0356,-6.0264,0.0,0.0,0.0,0.0,0.0,0.0,0.0,0.0,0.0,0.0,0.0,0.0,0.0,0.0,0.0,0.0,0.0,0.0,0.0,0.0,0.0,0.0,0.0,0.0,0.0,0.0,0.0,-4.4083,-4.4064,0.0,0.0,0.0,0.0,0.0,0.0,0.0,0.0,0.0,0.0,0.0,-4.8403,-4.8996,0.0,0.0,0.0,0.0,0.0,0.0,0.0,0.0,0.0,0.0,0.0,0.0,-4.9407,-5.1463,-5.1096,-5.1573,-5.313,-5.3203,-5.3335,-5.3592,-5.2564,-5.1381,-5.0097,0.0,0.0,0.0,0.0,0.0,0.0,0.0,0.0,0.0,0.0,0.0,0.0,0.0,0.0,0.0,0.0,0.0,0.0,0.0,0.0,0.0,0.0,0.0,0.0,0.0,-4.4581,0.0,0.0,0.0,0.0,0.0,0.0,0.0,0.0,0.0,0.0,0.0,-5.2392,-5.3848,-5.5469,-5.6903,-5.7977,-5.9278,-6.0199,0.0,0.0,0.0,0.0,0.0,0.0,0.0,0.0,0.0,0.0,0.0,0.0,0.0,0.0,-5.7298,-5.5934,-5.5942,-5.6005,-5.5447,0.0,0.0,0.0,0.0,0.0,0.0,0.0,0.0,0.0,0.0,0.0,0.0,0.0,0.0,-4.4997,0.0,-4.4222,0.0,0.0,0.0,0.0,0.0,0.0,0.0,0.0,-4.8268,-4.874,-4.9153,-4.9792,-5.0112,0.0,-5.0257,-4.9777,0.0,0.0,0.0,0.0,0.0,0.0,0.0,0.0,-4.9407,-5.1463,-5.1059,-5.1573,-5.3093,-5.3203,-5.3203,-5.3167,-5.216,-5.0977,-4.9731,-4.8457,-4.7244,0.0,0.0,0.0,0.0,0.0,0.0,0.0,0.0,0.0,0.0,0.0,0.0,0.0,0.0,0.0,0.0,0.0,0.0,0.0,0.0,0.0,0.0,0.0,-4.4716,0.0,0.0,0.0,0.0,0.0,0.0,0.0,0.0,0.0,-5.0509,-5.1881,-5.3397,-5.489,-5.6373,-5.7732,-5.8804,0.0,0.0,0.0,0.0,0.0,0.0,0.0,-6.1776,-6.1923,-6.1806,-6.1623,-6.1333,-6.1115,-6.0626,-5.9644,0.0,0.0,-5.76,-5.7495,-5.7573,-5.7222,-5.7062,-5.6967,-5.6838,-5.6805,-5.6805,0.0,0.0,0.0,0.0,0.0,0.0,0.0,0.0,-4.6224,-4.6025,0.0,-4.5107,0.0,0.0,0.0,0.0,0.0,-4.6708,0.0,0.0,-4.8592,-4.9145,-4.9866,-5.0073,-5.0198,-5.0162,-5.0344,-5.0416,-5.0378,-4.9789,0.0,0.0,0.0,0.0,0.0,0.0,-4.915,-5.0802,-5.0875,-5.161,-5.313,-5.3203,-5.3203,-5.313,-5.1646,-5.0741,-5.0529,-4.879,-4.7244,-4.6097,-4.5501,0.0,0.0,0.0,0.0,0.0,0.0,0.0,0.0,0.0,0.0,0.0,0.0,0.0,0.0,0.0,0.0,0.0,0.0,0.0,0.0,-4.4649,0.0,0.0,0.0,0.0,0.0,0.0,0.0,0.0,0.0,0.0,-5.2819,-5.3857,-5.4994,-5.614,0.0,0.0,0.0,0.0,-6.1211,-6.1458,-6.1664,-6.184,-6.1969,-6.2105,-6.2185,-6.2185,0.0,0.0,-6.0234,-6.0744,-6.0934,-5.9937,-6.0259,-6.0267,-5.9066,-5.8379,-5.7895,-5.7646,-5.7396,-5.7071,-5.6907,-5.7047,-5.6978,-4.8618,0.0,0.0,0.0,0.0,-4.7791,-4.7748,-4.7571,-4.7992,-4.7613,-4.6793,-4.6685,0.0,0.0,0.0,0.0,0.0,0.0,-4.7618,-4.8583,-4.9372,-4.9851,-5.0198,-5.0988,-5.1442,-5.1537,-5.1746,-5.1615,-5.1086,-5.0911,-5.055,-5.0045,0.0,0.0,0.0,0.0,-5.0031,-5.1536,-5.1646,-5.216,-5.3167,-5.3203,-5.3203,-5.3167,-5.1646,-5.0782,-5.0725,-4.8831,-4.756,-4.7083,-4.5785,0.0,0.0,0.0,0.0,0.0,0.0,0.0,0.0,0.0,0.0,0.0,0.0,0.0,0.0,0.0,0.0,0.0,0.0,0.0,-4.5331,-4.5365,-4.5703,0.0,0.0,0.0,0.0,0.0,0.0,0.0,0.0,0.0,-5.4554,-5.5152,-5.6125,0.0,0.0,-5.9618,-6.0517,-6.0944,-6.1379,-6.1804,-6.1887,0.0,-6.2275,-6.2397,-6.2475,-6.2475,-6.242,-6.224,-6.202,-6.2203,-6.2226,-6.1792,-6.1729,-6.1571,-6.1032,-6.0327,-5.9655,-5.9246,-5.8955,-5.8727,-5.8459,-5.8392,-5.8392,-4.9734,-4.8409,-4.8409,-4.859,-4.8892,-4.896,-4.8872,-4.8722,-4.9031,-4.8692,-4.793,-4.7895,-4.7471,-4.6717,-4.6691,0.0,0.0,0.0,-4.8163,-4.9107,-4.9806,-5.0287,-5.0683,-5.1372,-5.1797,-5.2029,-5.2222,-5.2134,-5.1765,-5.1787,-5.1667,-5.1411,0.0,0.0,-5.0524,-5.0188,-5.0631,-5.1841,-5.1956,-5.238,-5.3188,-5.3203,-5.3078,-5.2711,-5.1499,-5.0655,-5.0325,-4.8705,-4.7669,-4.7428,-4.6187,-4.5029,0.0,0.0,0.0,0.0,0.0,0.0,0.0,0.0,0.0,0.0,0.0,-4.4581,-4.4581,0.0,0.0,0.0,-4.4886,-4.5196,-4.5669,-4.5974,0.0,0.0,0.0,0.0,0.0,0.0,0.0,-5.2352,-5.3466,-5.4724,-5.6192,-5.6662,-5.73,-5.8523,-5.9382,-6.023,-6.1051,0.0,-6.1672,-6.2078,-6.2185,-6.2318,-6.25,-6.2629,-6.2679,-6.2679,-6.273,-6.278,-6.2805,-6.2805,-6.2755,-6.2603,-6.237,-6.2141,-6.184,-6.1211,-6.0512,-6.004,-5.9751,-5.9453,-5.9081,-5.9012,-5.9012,-5.0923,-5.0271,-5.0293,-5.0633,-5.1104,-5.034,-4.9938,-4.9801,-4.972,-4.9484,-4.9107,-4.8922,-4.8556,-4.8074,-4.781,0.0,-4.8205,-4.8338,-4.8855,-4.9785,-4.9995,-5.0452,-5.1114,-5.1244,-5.151,-5.1808,-5.198,-5.209,-5.2233,-5.2268,-5.2315,-5.2278,-5.0936,-5.0301,-5.0294,-5.0529,-5.102,-5.1767,-5.1967,-5.2433,-5.3167,-5.3203,-5.28,-5.1993,-5.1185,-5.0378,-4.9571,-4.8429,-4.7627,-4.7298,-4.6578,-4.568,-4.4514,0.0,0.0,0.0,0.0,0.0,0.0,0.0,0.0,0.0,0.0,0.0,0.0,0.0,0.0,0.0,-4.5365,0.0,-4.5872,-4.6515,0.0,0.0,0.0,-4.9458,-5.0132,-5.1036,-5.2215,-5.3844,0.0,0.0,-5.7599,-5.8145,-5.8411,-5.8733,-5.9808,-6.0762,-6.1205,-6.1559,-6.1923,-6.2328,-6.25,-6.2629,-6.273,-6.278,-6.278,-6.278,-6.2805,-6.2805,-6.2805,-6.2805,-6.2755,-6.2629,-6.237,-6.2141,-6.1876,-6.1234,-6.0666,-6.0167,-5.9816,-5.9453,-5.9081,-5.9012,-5.9012,-5.2082,-5.1937,-5.19,-5.1321,-5.0416,-5.0791,-5.0882,-5.0839,-5.1369,-5.1072,-5.016,-4.9987,-4.9229,-4.81,-4.7837,-4.8121,-4.8868,-4.8896,-4.9395,-5.023,-5.0209,-5.0279,-5.0453,-5.0557,-5.0776,-5.107,-5.1305,-5.1597,-5.1822,-5.1612,-5.1475,-5.1475,-5.1144,-5.0976,-5.0981,-5.1137,-5.1275,-5.1493,-5.2331,-5.284,-5.3023,-5.2952,-5.2506,-5.1725,-5.09,-5.0097,-4.9314,-4.8182,-4.745,-4.7151,-4.6435,-4.5531,-4.4422,-4.3749,0.0,0.0,0.0,0.0,0.0,0.0,0.0,0.0,0.0,-4.4581,-4.4581,0.0,-4.4823,0.0,-4.6109,-4.6752,-4.7327,-4.8037,0.0,0.0,-5.0236,-5.0841,-5.1138,-5.1849,-5.2827,-5.4072,-5.5236,-5.6469,-5.7737,-5.8561,-5.9143,-5.934,-5.9966,-6.0605,-6.1176,-6.1473,-6.1812,-6.2301,-6.2397,-6.2526,-6.273,-6.2805,-6.278,-6.2805,-6.2805,-6.2805,-6.2805,-6.2805,-6.2792,-6.2629,-6.237,-6.2105,-6.184,-6.1263,-6.063,-6.0234,-5.9816,-5.9486,-5.9081,-5.9012,-5.9012,-5.248,-5.248,-5.248,-5.1973,-5.1176,-5.1647,-5.1782,-5.1749,-5.2183,-5.1946,-5.1166,-5.0718,-4.9925,-4.8889,-4.87,-4.8885,-4.9349,-4.9349,-4.9648,-5.0086,-4.9999,-4.9971,-4.9971,-5.0057,-5.0285,-5.062,-5.0776,-5.0991,-5.1289,-5.1123,-5.1017,-5.1044,-5.1044,-5.1067,-5.1178,-5.1501,-5.1723,-5.1723,-5.2372,-5.2761,-5.2828,-5.2717,-5.2104,-5.0977,-5.0504,-4.974,-4.8577,-4.781,-4.7298,-4.7017,-4.6363,-4.562,-4.4794,-4.4099,-4.343,0.0,0.0,0.0,0.0,0.0,0.0,0.0,0.0,0.0,0.0,0.0,-4.5399,-4.6143,-4.6912,-4.7683,-4.8463,-4.9236,-5.0014,-5.0759,-5.1509,-5.1983,-5.2111,-5.2857,-5.3808,-5.5132,-5.6056,-5.7085,-5.822,-5.8839,-5.9285,-5.9554,-5.9978,-6.0419,-6.0968,-6.1415,-6.1812,-6.2168,-6.2354,-6.2459,-6.2603,-6.2603,-6.2603,-6.2603,-6.2654,-6.2705,-6.2705,-6.2755,-6.2755,-6.2629,-6.237,-6.2078,-6.172,-6.1146,-6.0574,-6.0072,-5.9718,-5.9386,-5.9047,-5.9012,-5.9012,-5.248,-5.248,-5.248,-5.248,-5.248,-5.248,-5.248,-5.248,-5.248,-5.2317,-5.1945,-5.1123,-5.0418,-4.9913,-4.9737,-4.9679,-4.9679,-4.9679,-4.9679,-4.9679,-4.9649,-4.9619,-4.9649,-4.9649,-4.9884,-5.0285,-5.0313,-5.0481,-5.0721,-5.0757,-5.0757,-5.0721,-5.0721,-5.0811,-5.1008,-5.1597,-5.1945,-5.2102,-5.228,-5.2408,-5.2522,-5.2384,-5.1555,-5.0073,-5.0001,-4.9242,-4.7702,-4.7363,-4.7143,-4.6952,-4.635,-4.5819,-4.5407,-4.4434,-4.3797,0.0,-4.2963,0.0,0.0,0.0,0.0,0.0,0.0,0.0,0.0,-4.5529,-4.6341,-4.7048,-4.7942,-4.8745,-4.9528,-5.04,-5.1176,-5.1859,-5.2611,-5.3056,-5.309,-5.3766,-5.4823,-5.6367,-5.6672,-5.7357,-5.8771,-5.9012,-5.9149,-5.9486,-5.9849,-6.0199,-6.0696,-6.1263,-6.1756,-6.1914,-6.2195,-6.2318,-6.2318,-6.2354,-6.2344,-6.2381,-6.2449,-6.2552,-6.2552,-6.2654,-6.2679,-6.2526,-6.2291,-6.1969,-6.1551,-6.0968,-6.0419,-5.9876,-5.9551,-5.9251,-5.9047,-5.9012,-5.9012,-5.248,-5.248,-5.248,-5.248,-5.248,-5.248,-5.248,-5.248,-5.248,-5.2138,-5.1475,-5.0776,-5.0285,-4.9913,-4.9649,-4.953,-4.953,-4.953,-4.953,-4.953,-4.9381,-4.929,-4.929,-4.929,-4.95,-4.9825,-4.9942,-5.0171,-5.0481,-5.0369,-5.0313,-5.0313,-5.0313,-5.0348,-5.0369,0.0,0.0,0.0,-5.2114,-5.2162,-5.2186,-5.2078,-5.1167,-4.9531,-4.946,0.0,-4.7241,-4.6962,-4.6824,-4.6661,-4.6253,0.0,0.0,0.0,0.0,0.0,0.0,0.0,0.0,0.0,0.0,0.0,-4.6123,-4.6253,-4.563,-4.6801,-4.8035,-4.8903,-4.9714,-5.0431,-5.1247,-5.1999,-5.2511,-5.2714,-5.3331,-5.384,-5.3937,-5.4104,-5.4855,-5.6532,-5.6772,-5.7357,-5.8737,-5.9012,-5.9081,-5.9352,-5.965,-5.9943,-6.0199,-6.0908,-6.1501,-6.1784,-6.1978,-6.2051,-6.2087,-6.2114,-6.2051,-6.2078,-6.2185,-6.2265,-6.2301,-6.237,-6.2407,-6.2158,-6.1978,-6.1728,-6.127,-6.0727,-6.0231,-5.9879,-5.9518,-5.9251,-5.9047,-5.9012,-5.9012,-5.3675,0.0,-5.3675,-5.3675,0.0,-5.3568,-5.352,-5.3508,-5.2712,-5.1969,-5.1166,-5.064,-5.0143,-4.9679,-4.9441,-4.932,-4.9229,-4.9229,-4.9229,-4.9263,-4.9138,-4.9107,-4.9107,-4.9107,-4.926,-4.959,-4.9679,-4.9854,-5.0178,-5.012,-5.0092,-5.0092,-5.0092,-5.0149,-5.02,-5.0481,-5.0964,-5.1637,-5.151,-5.1546,-5.1637,-5.147,-5.0748,-4.9538,-4.9139,0.0,0.0,0.0,0.0,0.0,0.0,0.0,0.0,0.0,0.0,-4.4803,-4.501,-4.5156,-4.5269,-4.5919,-4.6389,-4.6504,-4.7243,-4.7515,-4.7053,-4.8128,-4.9142,-4.9949,-5.0792,-5.1607,-5.2361,-5.2869,-5.3278,-5.3656,-5.4033,-5.4271,-5.4335,-5.4335,-5.5019,-5.6462,-5.6805,-5.7357,-5.8806,-5.9012,-5.9081,-5.9285,-5.9518,-5.9748,-5.9975,-6.0605,-6.1176,-6.1501,-6.1615,-6.17,-6.1784,-6.1812,-6.1812,-6.1812,-6.1923,-6.2005,-6.2005,-6.2141,-6.2105,-6.1832,-6.1636,-6.1379,-6.0818,-6.0356,-5.994,-5.9617,-5.9318,-5.9115,-5.9012,-5.9012,-5.9012,-5.4907,-5.4907,-5.4858,-5.4858,-5.4858,-5.4614,-5.4489,-5.4306,0.0,0.0,0.0,-5.0656,-5.0109,-4.9471,-4.926,-4.9107,-4.9018,-4.9018,-4.9052,-4.9187,-4.9187,-4.9255,-4.939,-4.9255,-4.9342,-4.9645,-4.9539,-4.9654,-4.9952,-4.9982,-5.0011,-5.0011,-5.0011,-5.0034,-5.0178,-5.0397,-5.0667,-5.1017,-5.0884,-5.0884,-5.1096,-5.0884,-5.0398,-4.9643,-4.8978,-4.8268,-4.7436,-4.6725,-4.629,-4.619,-4.5924,-4.5675,-4.5441,-4.5177,-4.5063,-4.509,-4.5501,-4.588,-4.6124,-4.6839,-4.7374,-4.7683,-4.8265,-4.8709,-4.8846,-4.9393,-5.0112,-5.0998,-5.1806,-5.2551,-5.3272,-5.347,-5.3839,-5.446,-5.4494,-5.4494,-5.4494,-5.4494,-5.5115,-5.646,-5.6805,-5.7357,-5.8771,-5.9012,-5.9047,-5.9251,-5.9419,-5.9617,-5.9811,-6.0356,-6.0818,-6.1028,-6.1152,-6.1241,-6.1357,-6.1386,-6.1451,-6.1444,-6.1559,-6.1672,-6.1728,-6.1812,-6.1748,-6.1401,-6.1257,-6.0938,-6.0356,-6.0008,-5.9683,-5.9386,-5.9115,-5.9012,-5.9012,-5.9012,-5.9012,-5.4907,-5.4882,-5.4724,-5.4639,-5.4614,-5.4389,-5.4018,-5.3673,-5.3487,-5.2837,-5.1821,-5.1049,-5.0296,-4.9471,-4.9202,-4.9015,-4.9018,-4.9018,-4.9323,-4.9932,-4.9932,-5.027,-5.0845,-5.0236,-5.006,-5.0212,-4.9752,-4.956,-4.9772,-4.9952,-5.0011,-5.0011,-5.0011,-5.0011,-5.004,-5.0063,-5.0178,-5.0341,-5.0612,-5.0749,-5.0694,-5.064,-5.0208,-4.94,-4.9234,-4.8816,-4.8023,-4.7256,-4.6873,-4.6847,-4.6057,-4.5607,-4.5581,-4.5344,-4.5424,-4.6014,-4.6048,-4.6368,-4.7073,-4.7796,-4.8509,-4.9272,-4.9473,-4.9816,-5.0468,-5.0605,-5.1352,-5.2781,-5.3087,-5.3497,-5.4187,-5.429,-5.4356,-5.4494,-5.4494,-5.4494,-5.4529,-5.4563,-5.5115,-5.6598,-5.6805,-5.7391,-5.8702,-5.9012,-5.9012,-5.9047,-5.9217,-5.9418,-5.9748,-6.01,-6.0388,-6.045,-6.0609,-6.0701,-6.0762,-6.0732,-6.0823,-6.0908,-6.1093,-6.1241,-6.1357,-6.1386,-6.1263,-6.0933,-6.0788,-6.0481,-5.994,-5.9748,-5.9553,-5.9319,-5.9115,-5.9012,-5.9012,-5.9012,-5.9012,-5.6088,-5.6013,-5.5862,-5.5698,-5.548,-5.5169,-5.4755,-5.4326,-5.4238,-5.3457,-5.2201,-5.1701,-5.1131,-5.0577,-5.0297,-5.0202,-5.0202,-5.0171,-5.0371,-5.0676,-5.071,-5.0879,-5.1151,-5.0879,-5.0805,-5.0961,-5.0779,-5.0792,-5.0909,-5.0715,-5.0597,-5.0562,-5.0218,-5.0011,-5.0011,-5.0011,-5.0005,-5.0092,-5.0291,-5.0369,-5.0397,-5.0313,-5.009,-4.9658,-4.9277,-4.8862,-4.8488,-4.7761,-4.7346,-4.7346,-4.698,-4.6746,-4.6746,-4.6556,-4.6584,-4.6927,-4.7198,-4.7546,-4.7975,-4.8815,-4.9457,-4.986,-5.0238,-5.0789,-5.1546,-5.1615,-5.2092,-5.3287,-5.3736,-5.4149,-5.446,-5.4494,-5.4494,-5.4494,-5.4494,-5.4494,-5.4563,-5.4908,-5.5563,-5.6598,-5.715,-5.7805,-5.8875,-5.9012,-5.9012,-5.9012,-5.9183,-5.9386,-5.9518,-5.9814,-6.0072,-6.0167,-6.0262,-6.0329,-6.0329,-6.0329,-6.0388,-6.0512,-6.0605,-6.0727,-6.0848,-6.0848,-6.0666,-6.0481,-6.0294,-6.0008,-5.9584,-5.952,-5.9386,-5.9183,-5.9081,-5.9012,-5.9012,-5.9012,-5.9012,-5.7036,-5.6881,-5.6697,-5.6402,-5.5978,-5.5613,-5.5199,-5.4838,-5.4617,-5.3836,-5.2708,-5.2317,-5.1896,-5.1473,-5.1282,-5.1185,-5.1217,-5.1217,-5.1286,-5.1422,-5.1454,-5.1523,-5.1691,-5.1555,-5.152,-5.1615,-5.167,-5.1725,-5.1751,-5.142,-5.1133,-5.0926,-5.0238,-4.986,-4.9894,-4.9894,-4.986,-4.986,-4.9894,-4.9976,-5.0149,-5.0068,-5.0011,-4.9942,-4.9424,-4.9114,-4.9016,-4.8327,-4.7948,-4.7948,-4.7775,-4.77,-4.7672,-4.7623,-4.7636,-4.7779,-4.8243,-4.8626,-4.8913,-4.9608,-5.008,-5.0252,-5.0769,-5.1494,-5.2356,-5.2463,-5.2804,-5.3563,-5.4184,-5.4494,-5.4494,-5.4494,-5.4494,-5.4494,-5.4494,-5.4494,-5.4563,-5.515,-5.5908,-5.6702,-5.746,-5.8185,-5.8806,-5.9012,-5.9012,-5.9012,-5.9149,-5.9285,-5.9352,-5.9551,-5.9781,-5.9914,-6.001,-6.0043,-6.001,-6.001,-6.0075,-6.0167,-6.0199,-6.0294,-6.0388,-6.0325,-6.0167,-6.0008,-5.9814,-5.9584,-5.9319,-5.9251,-5.9183,-5.9047,-5.9012,-5.9012,-5.9012,-5.9012,-5.9012,-5.6891,-5.6626,-5.6292,-5.5758,-5.5144,-5.4776,-5.446,-5.4269,-5.4108,-5.3912,-5.3476,-5.2864,-5.2185,-5.1541,-5.1349,-5.1319,-5.1285,-5.1219,-5.1557,-5.2164,-5.2198,-5.257,-5.3078,-5.2536,-5.2132,-5.2033,-5.1753,-5.1545,-5.1449,-5.1566,-5.1312,-5.0629,-4.9907,-4.9564,-4.9564,-4.9564,-4.953,-4.9564,-4.953,-4.9713,-5.0011,-5.0011,-5.0011,-5.0011,-4.9942,-4.9907,-4.9775,-4.912,-4.8672,-4.8637,-4.8086,-4.7734,-4.7707,-4.7707,-4.7982,-4.8609,-4.8747,-4.9057,-4.9775,-4.9976,-5.0321,-5.0942,-5.1114,-5.177,-5.308,-5.3287,-5.3598,-5.4218,-5.446,-5.4494,-5.4494,-5.4494,-5.4494,-5.4494,-5.4494,-5.4494,-5.4598,-5.515,-5.5908,-5.6702,-5.7495,-5.8185,-5.884,-5.9012,-5.9012,-5.9012,-5.9149,-5.9285,-5.9319,-5.9486,-5.9553,-5.952,-5.9617,-5.9748,-5.9685,-5.9654,-5.9718,-5.9811,-5.9844,-5.9943,-6.004,-5.9975,-5.9814,-5.9718,-5.9485,-5.9284,-5.9115,-5.9012,-5.9047,-5.9012,-5.9012,-5.9012,-5.9012,-5.9012,-5.9012,-5.6429,-5.6189,-5.5808,-5.5254,-5.4523,-5.4141,-5.3882,-5.3617,-5.3551,-5.3416,-5.3213,-5.3011,-5.2841,-5.2669,-5.2603,-5.257,-5.257,-5.257,-5.2739,-5.301,-5.2876,-5.3045,-5.3213,-5.274,-5.2435,-5.24,-5.2337,-5.2303,-5.2202,-5.213,-5.1507,-5.0515,-5.0104,-4.9824,-4.9539,-4.9471,-4.9471,-4.9471,-4.9471,-4.9594,-4.9683,-4.9713,-4.9713,-4.9713,-4.9713,-4.9742,-4.9796,-4.9487,-4.9378,-4.9499,-4.9217,-4.9045,-4.9079,-4.8931,-4.9068,-4.9465,-4.9528,-4.9637,-5.0011,-5.0424,-5.0804,-5.108,-5.1977,-5.277,-5.3322,-5.3804,-5.4218,-5.4425,-5.4494,-5.4494,-5.4494,-5.4494,-5.4494,-5.4494,-5.4494,-5.4529,-5.4529,-5.5598,-5.646,-5.684,-5.784,-5.8633,-5.8944,-5.9012,-5.9012,-5.9012,-5.9149,-5.9285,-5.9319,-5.9453,-5.9521,-5.9386,-5.952,-5.9586,-5.9453,-5.9419,-5.952,-5.9619,-5.9586,-5.9551,-5.9683,-5.9617,-5.9451,-5.9453,-5.925,-5.9115,-5.9012,-5.9012,-5.9012,-5.9012,-5.9012,-5.9012,-5.9012,-5.9012,-5.9012,-5.5986,-5.5613,-5.5134,-5.4582,-5.3979,-5.3617,-5.3349,-5.3144,-5.311,-5.3041,-5.2938,-5.3041,-5.3212,-5.3314,-5.345,-5.3518,-5.3518,-5.345,-5.3416,-5.3382,-5.3144,-5.3041,-5.2973,-5.2696,-5.2485,-5.2485,-5.2626,-5.2696,-5.2664,-5.2269,-5.1561,-5.0713,-5.0238,-4.9828,-4.9477,-4.9243,-4.9077,-4.9111,-4.9246,-4.9348,-4.9385,-4.9585,-4.9607,-4.9509,-4.9471,-4.953,-4.9649,-4.9649,-4.9708,-4.983,-4.986,-4.986,-4.983,-4.9708,-4.9708,-4.9865,-5.0037,-5.0174,-5.0174,-5.0887,-5.1468,-5.1709,-5.2774,-5.3494,-5.3736,-5.4184,-5.4494,-5.4494,-5.4494,-5.4494,-5.4494,-5.4494,-5.4494,-5.4494,-5.4494,-5.4563,-5.4874,-5.6046,-5.6874,-5.715,-5.8219,-5.9012,-5.9012,-5.9012,-5.9012,-5.9012,-5.9115,-5.9217,-5.9251,-5.9319,-5.9352,-5.9285,-5.9419,-5.9486,-5.9352,-5.9319,-5.9386,-5.9386,-5.9352,-5.9285,-5.9419,-5.925,-5.9183,-5.9183,-5.9047,-5.9012,-5.9012,-5.9012,-5.9012,-5.9012,-5.9012,-5.9012,-5.9012,-5.9012,-5.9012,-5.5584,-5.4961,-5.4108,-5.3683,-5.3382,-5.311,-5.2938,-5.2903,-5.2903,-5.2903,-5.2868,-5.2903,-5.2903,-5.2938,-5.3246,-5.3484,-5.3484,-5.328,-5.3179,-5.3144,-5.28,-5.2626,-5.2626,-5.2414,-5.22,-5.1984,-5.2164,-5.2272,-5.2274,-5.1822,-5.1526,-5.1326,-5.0093,-4.9392,-4.9259,-4.8595,-4.8132,-4.833,-4.8796,-4.9061,-4.9128,-4.9725,-4.9823,-4.9532,-4.9509,-4.9577,-4.9539,-4.9535,-4.9535,-4.9535,-4.9535,-4.9535,-4.95,-4.95,-4.95,-4.9603,-5.0154,-5.0564,-5.0697,-5.1436,-5.2211,-5.2829,-5.3197,-5.367,-5.4256,-5.4428,-5.4463,-5.4494,-5.4494,-5.4494,-5.4494,-5.4494,-5.4494,-5.4494,-5.4494,-5.4805,-5.546,-5.6253,-5.7081,-5.7736,-5.8495,-5.8978,-5.9012,-5.9012,-5.9012,-5.9012,-5.9012,-5.9012,-5.9047,-5.9047,-5.9047,-5.9115,-5.9319,-5.9554,-5.9352,-5.9352,-5.9352,-5.9319,-5.9251,-5.9047,-5.9012,-5.9012,-5.9012,-5.9012,-5.9012,-5.9012,-5.9012,-5.9012,-5.9012,-5.9012,-5.9012,-5.9012,-5.9012,-5.9012,-5.9012,-5.4772,-5.4108,-5.3617,-5.3281,-5.3076,-5.2799,-5.2659,-5.2587,-5.2587,-5.2516,-5.2409,-5.2483,-5.2378,-5.2131,-5.252,-5.2868,-5.3076,-5.2938,-5.28,-5.2765,-5.2272,-5.2023,-5.1951,-5.1614,-5.1355,-5.135,-5.1355,-5.1466,-5.1512,-5.1536,-5.1248,-5.0755,-5.0368,-4.991,-4.9449,-4.9117,-4.8951,-4.8984,-4.9214,-4.9345,-4.9345,-4.9575,-4.9651,-4.956,-4.989,-5.0182,-5.0373,-4.9965,-4.9757,-4.9885,-4.9474,-4.9168,-4.9168,-4.9168,-4.9345,-4.9692,-5.015,-5.0618,-5.1128,-5.1967,-5.2606,-5.2914,-5.3492,-5.3898,-5.4235,-5.4303,-5.4367,-5.4463,-5.4494,-5.4494,-5.4494,-5.4494,-5.4494,-5.4494,-5.4529,-5.4805,-5.5563,-5.6322,-5.7081,-5.784,-5.853,-5.8978,-5.9012,-5.9012,-5.9012,-5.9012,-5.9012,-5.9012,-5.9012,-5.9012,-5.9012,-5.9047,-5.9217,-5.9386,-5.9352,-5.9419,-5.9453,-5.9285,-5.9183,-5.9047,-5.9012,-5.9012,-5.9012,-5.9012,-5.9012,-5.9012,-5.9012,-5.9012,-5.9012,-5.9012,-5.9012,-5.9012,-5.9012,-5.9012,-5.9012,-5.3979,-5.3517,-5.3144,-5.2938,-5.2764,-5.2589,-5.2445,-5.2302,-5.2302,-5.2158,-5.1941,-5.1911,-5.1696,-5.1475,-5.1623,-5.1875,-5.2128,-5.2203,-5.2307,-5.22,-5.1586,-5.1322,-5.1247,-5.0826,-5.0589,-5.0589,-5.0589,-5.0634,-5.0755,-5.1054,-5.0838,-5.0385,-5.0343,-5.0095,-4.9639,-4.9307,-4.9141,-4.9174,-4.9368,-4.9498,-4.9531,-4.9726,-4.9892,-5.0,-5.0323,-5.0549,-5.056,-5.0125,-4.9822,-4.9684,-4.928,-4.9011,-4.9011,-4.9011,-4.9249,-4.9823,-5.0354,-5.0819,-5.1458,-5.2332,-5.287,-5.2935,-5.3508,-5.3948,-5.4045,-5.411,-5.4207,-5.4335,-5.4399,-5.4399,-5.4463,-5.4494,-5.4494,-5.4494,-5.4494,-5.4943,-5.5874,-5.6495,-5.7219,-5.8116,-5.8702,-5.8978,-5.9012,-5.9012,-5.9012,-5.9012,-5.9012,-5.9012,-5.9012,-5.9012,-5.9012,-5.9012,-5.9183,-5.9251,-5.9251,-5.9319,-5.9419,-5.9285,-5.9115,-5.9047,-5.9012,-5.9012,-5.9012,-5.9012,-5.9012,-5.9012,-5.9012,-5.9012,-5.9012,-5.9012,-5.9012,-5.9012,-5.9012,-5.9012,-5.9012,-5.3349,-5.3144,-5.2764,-5.2624,-5.2589,-5.2445,-5.2266,-5.2122,-5.205,-5.1794,-5.1462,-5.121,-5.0989,-5.08,-5.0647,-5.0563,-5.0679,-5.1215,-5.1475,-5.1327,-5.0761,-5.0525,-5.0486,-5.0097,-4.9931,-4.9931,-4.9931,-4.9931,-5.001,-5.0292,-5.0454,-5.0365,-5.0043,-4.9898,-4.9769,-4.9069,-4.8536,-4.8733,-4.9245,-4.9501,-4.9597,-5.0115,-5.048,-5.0729,-5.0773,-5.0496,-4.9906,-5.0015,-4.9788,-4.9259,-4.906,-4.9027,-4.9027,-4.9027,-4.9325,-5.0019,-5.0749,-5.1217,-5.1523,-5.2298,-5.2873,-5.301,-5.345,-5.3651,-5.3717,-5.3849,-5.4013,-5.4175,-5.4207,-5.4271,-5.4431,-5.4463,-5.4463,-5.4529,-5.4598,-5.5253,-5.6322,-5.684,-5.7391,-5.8599,-5.8978,-5.9012,-5.9012,-5.9012,-5.9012,-5.9012,-5.9012,-5.9012,-5.9012,-5.9012,-5.9012,-5.9012,-5.9115,-5.9183,-5.9183,-5.9149,-5.9217,-5.925,-5.9115,-5.9012,-5.9012,-5.9012,-5.9012,-5.9012,-5.9012,-5.9012,-5.9012,-5.9012,-5.9012,-5.9012,-5.9012,-5.9012,-5.9012,-5.9012,-5.9012,-5.2834,-5.2764,-5.2518,-5.248,-5.2445,-5.2266,-5.2086,-5.1868,-5.1577,-5.1172,-5.0832,-5.0602,-5.026,-5.0018,-4.99,-4.9701,-4.9493,-4.971,-5.0033,-5.0416,-5.0097,-4.986,-4.9821,-4.9582,-4.9461,-4.9461,-4.9461,-4.9461,-4.9501,-4.9741,-4.986,-4.9837,-4.9867,-4.9889,-4.9826,-4.9589,-4.9423,-4.9455,-4.9645,-4.9811,-4.9772,-5.0002,-5.0168,-5.0207,-5.0363,-5.0339,-5.015,-5.0111,-5.0004,-4.9746,-4.9254,-4.8993,-4.8993,-4.8993,-4.9352,-5.004,-5.0373,-5.0874,-5.1408,-5.1927,-5.2307,-5.2449,-5.2731,-5.3076,-5.3315,-5.3484,-5.3717,-5.398,-5.4078,-5.4143,-5.4271,-5.4303,-5.437,-5.4463,-5.4977,-5.5632,-5.6736,-5.7667,-5.8426,-5.8875,-5.9012,-5.9012,-5.9012,-5.9012,-5.9012,-5.9012,-5.9012,-5.9012,-5.9012,-5.9012,-5.9012,-5.9012,-5.9081,-5.9115,-5.9081,-5.9081,-5.9115,-5.9149,-5.9047,-5.9012,-5.9012,-5.9012,-5.9012,-5.9012,-5.9012,-5.9012,-5.9012,-5.9012,-5.9012,-5.9012,-5.9012,-5.9012,-5.9012,-5.9012,-5.9012,-5.2553,-5.2516,-5.2445,-5.2338,-5.2266,-5.205,-5.1762,-5.1397,-5.1059,-5.057,-5.0097,-4.9821,-4.947,-4.9138,-4.9015,-4.8883,-4.8666,-4.8563,-4.8903,-4.939,-4.934,-4.9291,-4.9331,-4.9169,-4.9047,-4.9015,-4.9015,-4.9015,-4.9015,-4.925,-4.9372,-4.9412,-4.9573,-4.9661,-4.9661,-4.9693,-4.9693,-4.9661,-4.9661,-4.9693,-4.9661,-4.9693,-4.9661,-4.9693,-4.9852,-4.9931,-4.9939,-4.9878,-4.9833,-4.9737,-4.9162,-4.8905,-4.913,-4.9195,-4.9521,-5.0102,-5.0408,-5.0676,-5.1145,-5.1434,-5.1619,-5.1696,-5.2023,-5.2343,-5.2626,-5.287,-5.3247,-5.3517,-5.3717,-5.3849,-5.4047,-5.4451,-5.4684,-5.4815,-5.529,-5.6048,-5.7081,-5.8254,-5.8909,-5.9012,-5.9012,-5.9012,-5.9012,-5.9012,-5.9012,-5.9012,-5.9012,-5.9012,-5.9012,-5.9012,-5.9012,-5.9012,-5.9012,-5.9012,-5.9012,-5.9012,-5.9012,-5.9012,-5.9012,-5.9012,-5.9012,-5.9012,-5.9012,-5.9012,-5.9012,-5.9012,-5.9012,-5.9012,-5.9012,-5.9012,-5.9012,-5.9012,-5.9012,-5.9012,-5.9012,-5.2516,-5.2409,-5.2409,-5.2266,-5.2086,-5.1868,-5.1392,-5.0838,-5.0454,-4.9939,-4.934,-4.9015,-4.8687,-4.8343,-4.8218,-4.8091,-4.7964,-4.8007,-4.8133,-4.8355,-4.851,-4.8759,-4.8955,-4.88,-4.8687,-4.8646,-4.8646,-4.8646,-4.8718,-4.8883,-4.8996,-4.9078,-4.921,-4.93,-4.9372,-4.9331,-4.9331,-4.9331,-4.925,-4.9219,-4.9219,-4.925,-4.9219,-4.9259,-4.9291,-4.9259,-4.93,-4.9278,-4.9355,-4.9407,-4.894,-4.8908,-4.9393,-4.9559,-4.9847,-5.039,-5.0557,-5.0602,-5.0781,-5.0896,-5.094,-5.1097,-5.1434,-5.1692,-5.1802,-5.2238,-5.2626,-5.2868,-5.328,-5.3585,-5.3922,-5.4733,-5.5342,-5.5544,-5.588,-5.66,-5.7771,-5.8633,-5.8944,-5.9012,-5.9012,-5.9012,-5.9012,-5.9012,-5.9012,-5.9012,-5.9012,-5.9012,-5.9012,-5.9012,-5.9012,-5.9012,-5.9012,-5.9012,-5.9012,-5.9012,-5.9012,-5.9012,-5.9012,-5.9012,-5.9012,-5.9012,-5.9012,-5.9012,-5.9012,-5.9012,-5.9012,-5.9012,-5.9012,-5.9012,-5.9012,-5.9012,-5.9012,-5.9012,-5.9012,-5.2445,-5.2409,-5.2409,-5.2299,-5.2013,-5.154,-5.1022,-5.0486,-4.967,-4.9178,-4.8728,-4.8355,-4.8218,-4.8049,-4.7794,-4.7709,-4.7666,-4.7538,-4.7581,-4.7794,-4.8049,-4.8385,-4.8635,-4.8635,-4.8604,-4.8604,-4.8604,-4.8604,-4.8635,-4.8646,-4.88,-4.8996,-4.9037,-4.9128,-4.925,-4.9128,-4.9078,-4.9037,-4.8718,-4.8676,-4.8728,-4.8604,-4.8646,-4.88,-4.88,-4.8769,-4.8769,-4.8769,-4.9035,-4.9521,-4.941,-4.9426,-4.9701,-4.9733,-4.9796,-5.0026,-5.0089,-5.0089,-5.0168,-5.0363,-5.0512,-5.0518,-5.0902,-5.1167,-5.1285,-5.1692,-5.202,-5.2371,-5.3023,-5.3744,-5.419,-5.5041,-5.5928,-5.6884,-5.7086,-5.7565,-5.8426,-5.884,-5.9012,-5.9012,-5.9012,-5.9012,-5.9012,-5.9012,-5.9012,-5.9012,-5.9012,-5.9012,-5.9012,-5.9012,-5.9012,-5.9012,-5.9012,-5.9012,-5.9012,-5.9012,-5.9012,-5.9012,-5.9012,-5.9012,-5.9012,-5.9012,-5.9012,-5.9012,-5.9012,-5.9012,-5.9012,-5.9012,-5.9012,-5.9012,-5.9012,-5.9012,-5.9012,-5.9012,-5.9012,-5.2409,-5.2373,-5.2302,-5.2086,-5.1794,-5.1135,-5.0602,-5.0018,-4.9178,-4.8604,-4.8343,-4.8007,-4.7794,-4.7666,-4.7538,-4.7452,-4.7452,-4.7352,-4.7439,-4.7624,-4.7964,-4.8313,-4.8521,-4.8604,-4.8604,-4.8604,-4.8604,-4.8604,-4.8604,-4.8604,-4.8687,-4.8759,-4.8718,-4.8759,-4.8811,-4.8676,-4.8541,-4.8343,-4.8019,-4.7934,-4.8049,-4.7807,-4.788,-4.8007,-4.8049,-4.8049,-4.8049,-4.8049,-4.8396,-4.8975,-4.9178,-4.925,-4.9372,-4.934,-4.9412,-4.9493,-4.9613,-4.9661,-4.9812,-5.001,-5.0129,-5.0168,-5.0473,-5.0634,-5.089,-5.1324,-5.189,-5.203,-5.3066,-5.3798,-5.4362,-5.5398,-5.6638,-5.7706,-5.8153,-5.8462,-5.8944,-5.8978,-5.9012,-5.9012,-5.9012,-5.9012,-5.9012,-5.9012,-5.9012,-5.9012,-5.9012,-5.9012,-5.9012,-5.9012,-5.9012,-5.9012,-5.9012,-5.9012,-5.9012,-5.9012,-5.9012,-5.9012,-5.9012,-5.9012,-5.9012,-5.9012,-5.9012,-5.9012,-5.9012,-5.9012,-5.9012,-5.9012,-5.9012,-5.9012,-5.9012,-5.9012,-5.9012,-5.9012,-5.9012,-5.2373,-5.2338,-5.2158,-5.1831,-5.1387,-5.0717,-5.0136,-4.9461,-4.8811,-4.8343,-4.7964,-4.7666,-4.7495,-4.7309,-4.7352,-4.7309,-4.7309,-4.7309,-4.7409,-4.7666,-4.8007,-4.8343,-4.8552,-4.8563,-4.8604,-4.8604,-4.8604,-4.8604,-4.8563,-4.8563,-4.8563,-4.8552,-4.8355,-4.826,-4.8187,-4.8007,-4.7752,-4.7495,-4.7046,-4.6959,-4.7019,-4.6858,-4.6814,-4.7062,-4.7193,-4.7193,-4.7193,-4.7236,-4.7581,-4.8355,-4.8438,-4.8521,-4.8521,-4.8521,-4.8604,-4.8841,-4.9047,-4.9219,-4.9493,-4.9613,-4.9915,-5.005,-5.0279,-5.0437,-5.0809,-5.1499,-5.2023,-5.2101,-5.3104,-5.406,-5.4849,-5.602,-5.7175,-5.8111,-5.8527,-5.8806,-5.8944,-5.8978,-5.9012,-5.9012,-5.9012,-5.9012,-5.9012,-5.9012,-5.9012,-5.9012,-5.9012,-5.9012,-5.9012,-5.9012,-5.9012,-5.9012,-5.9012,-5.9012,-5.9012,-5.9012,-5.9012,-5.9012,-5.9012,-5.9012,-5.9012,-5.9012,-5.9012,-5.9012,-5.9012,-5.9012,-5.9012,-5.9012,-5.9012,-5.9012,-5.9012,-5.9012,-5.9012,-5.9012,-5.9012,-5.2335,-5.2158,-5.2119,-5.1651,-5.0946,-5.0416,-4.9789,-4.9015,-4.8427,-4.8007,-4.7666,-4.7452,-4.7352,-4.7309,-4.7309,-4.7309,-4.7309,-4.7309,-4.7439,-4.7624,-4.7922,-4.8175,-4.8385,-4.8521,-4.8604,-4.8604,-4.8604,-4.8604,-4.8563,-4.8469,-4.8385,-4.8343,-4.8133,-4.7964,-4.7709,-4.7366,-4.7019,-4.6712,-4.6016,-4.5837,-4.6016,-4.5747,-4.5747,-4.6106,-4.6329,-4.6447,-4.6491,-4.6624,-4.6844,-4.7106,-4.7508,-4.7849,-4.7976,-4.8019,-4.8061,-4.8218,-4.8385,-4.8635,-4.8841,-4.9171,-4.9612,-5.0357,-5.0542,-5.0916,-5.1625,-5.1923,-5.2324,-5.2653,-5.3567,-5.4705,-5.5831,-5.6996,-5.7642,-5.8029,-5.8455,-5.8736,-5.884,-5.8909,-5.8978,-5.9012,-5.9012,-5.9012,-5.9012,-5.9012,-5.9012,-5.9012,-5.9012,-5.9012,-5.9012,-5.9012,-5.9012,-5.9012,-5.9012,-5.9012,-5.9012,-5.9012,-5.9012,-5.9012,-5.9012,-5.9012,-5.9012,-5.9012,-5.9012,-5.9012,-5.9012,-5.9012,-5.9012,-5.9012,-5.9012,-5.9012,-5.8978,-5.8978,-5.8978,-5.8978,-5.8909,-5.2266,-5.2083,-5.1762,-5.1247,-5.0608,-5.0058,-4.9421,-4.8728,-4.8218,-4.7837,-4.7581,-4.7366,-4.7309,-4.7309,-4.7309,-4.7309,-4.7309,-4.7309,-4.7352,-4.7538,-4.7794,-4.8049,-4.8218,-4.8438,-4.8604,-4.8604,-4.8604,-4.8604,-4.8521,-4.8396,-4.8343,-4.826,-4.791,-4.7538,-4.7236,-4.6712,-4.6195,-4.5792,-4.5201,-4.4926,-4.5018,-4.4954,-4.5,-4.5429,-4.5702,-4.5866,-4.5911,-4.6135,-4.6254,-4.6387,-4.6624,-4.6989,-4.7249,-4.7292,-4.7336,-4.7495,-4.7968,-4.8347,-4.859,-4.9193,-4.9859,-5.0421,-5.0694,-5.1132,-5.1727,-5.2197,-5.274,-5.3186,-5.4075,-5.5255,-5.6414,-5.6949,-5.7402,-5.7772,-5.8027,-5.8312,-5.8525,-5.8771,-5.9012,-5.9012,-5.9012,-5.9012,-5.9012,-5.9012,-5.9012,-5.9012,-5.9012,-5.9012,-5.9012,-5.9012,-5.9012,-5.9012,-5.9012,-5.9012,-5.9012,-5.9012,-5.9012,-5.9012,-5.9012,-5.9012,-5.9012,-5.9012,-5.9012,-5.9012,-5.9012,-5.9012,-5.9012,-5.9012,-5.8978,-5.8978,-5.8978,-5.8944,-5.8944,-5.8875,-5.8806,-5.2227,-5.1941,-5.1322,-5.0761,-5.0292,-4.9582,-4.8975,-4.848,-4.8091,-4.7752,-4.7538,-4.7396,-4.7309,-4.7309,-4.7309,-4.7309,-4.7309,-4.7309,-4.7309,-4.7396,-4.7794,-4.8007,-4.8164,-4.8508,-4.8881,-4.8758,-4.8666,-4.8593,-4.848,-4.8385,-4.8225,-4.8201,-4.7675,-4.7332,-4.6874,-4.6191,-4.566,-4.5182,-4.4715,-4.448,-4.4583,-4.4592,-4.4837,-4.506,-4.5459,-4.5528,-4.5561,-4.5685,-4.5866,-4.5895,-4.5895,-4.612,-4.6387,-4.6521,-4.6653,-4.6904,-4.7599,-4.8089,-4.8593,-4.9293,-4.9934,-5.0161,-5.069,-5.1172,-5.1658,-5.2459,-5.3092,-5.3764,-5.4572,-5.5466,-5.6244,-5.6597,-5.6949,-5.7327,-5.7476,-5.7735,-5.8099,-5.8597,-5.8771,-5.8944,-5.8978,-5.9012,-5.9012,-5.9012,-5.9012,-5.9012,-5.9012,-5.9012,-5.9012,-5.9012,-5.9012,-5.9012,-5.9012,-5.9012,-5.9012,-5.9012,-5.9012,-5.9012,-5.9012,-5.9012,-5.9012,-5.9012,-5.9012,-5.9012,-5.9012,-5.9012,-5.9012,-5.9012,-5.8978,-5.8978,-5.8909,-5.8875,-5.8806,-5.8736,-5.8666,-5.1941,-5.1536,-5.1059,-5.0416,-4.9701,-4.9178,-4.8604,-4.8133,-4.7794,-4.7538,-4.7396,-4.7309,-4.7309,-4.7309,-4.7309,-4.7309,-4.7309,-4.7309,-4.7309,-4.7396,-4.7752,-4.7964,-4.8274,-4.8906,-4.9393,-4.9343,-4.9024,-4.8695,-4.8508,-4.8133,-4.8261,-4.8099,-4.7689,-4.7356,-4.6917,-4.6271,-4.544,-4.5012,-4.456,-4.4367,-4.4546,-4.4795,-4.4948,-4.5116,-4.5487,-4.557,-4.5356,-4.5441,-4.564,-4.5866,-4.5895,-4.5969,-4.6117,-4.6162,-4.644,-4.6807,-4.731,-4.7965,-4.8502,-4.8878,-4.9599,-5.0216,-5.0757,-5.1464,-5.2202,-5.2947,-5.3541,-5.4242,-5.4994,-5.5726,-5.5879,-5.6244,-5.6558,-5.6834,-5.7139,-5.7439,-5.7845,-5.8135,-5.8455,-5.8701,-5.8806,-5.9012,-5.9012,-5.9012,-5.9012,-5.9012,-5.9012,-5.9012,-5.9012,-5.9012,-5.9012,-5.9012,-5.9012,-5.9012,-5.9012,-5.9012,-5.9012,-5.9012,-5.9012,-5.9012,-5.9012,-5.9012,-5.9012,-5.9012,-5.9012,-5.9012,-5.9012,-5.8978,-5.8944,-5.8909,-5.884,-5.8771,-5.8666,-5.8561,-5.8525,-5.1614,-5.1129,-5.0563,-4.9939,-4.9219,-4.8769,-4.8301,-4.7837,-4.7666,-4.7495,-4.7352,-4.7309,-4.7309,-4.7309,-4.7309,-4.7309,-4.7309,-4.7309,-4.7309,-4.7396,-4.7654,-4.8092,-4.8462,-4.9231,-4.9769,-4.9935,-4.9708,-4.9438,-4.9267,-4.8853,-4.8549,-4.8313,-4.7796,-4.7229,-4.6785,-4.6039,-4.5442,-4.5001,-4.4655,-4.4534,-4.4655,-4.5061,-4.5271,-4.5525,-4.585,-4.6016,-4.5988,-4.6109,-4.6217,-4.6258,-4.6524,-4.6512,-4.6517,-4.6679,-4.6824,-4.6969,-4.7526,-4.8086,-4.8682,-4.9075,-4.9799,-5.0211,-5.072,-5.1394,-5.2229,-5.2918,-5.377,-5.4581,-5.5122,-5.5645,-5.5839,-5.5966,-5.6205,-5.6447,-5.6641,-5.6949,-5.7289,-5.7514,-5.7845,-5.8312,-5.8562,-5.8771,-5.9012,-5.9012,-5.9012,-5.9012,-5.9012,-5.9012,-5.9012,-5.9012,-5.9012,-5.9012,-5.9012,-5.9012,-5.9012,-5.9012,-5.9012,-5.9012,-5.9012,-5.9012,-5.9012,-5.9012,-5.9012,-5.9012,-5.9012,-5.9012,-5.8944,-5.8944,-5.8875,-5.8771,-5.8701,-5.8596,-5.8455,-5.8348,-5.8312,-5.1355,-5.0685,-5.0097,-4.9421,-4.8811,-4.8427,-4.8007,-4.7666,-4.7568,-4.7409,-4.7309,-4.7309,-4.7309,-4.7309,-4.7309,-4.7309,-4.7309,-4.7309,-4.7309,-4.7382,-4.7735,-4.8296,-4.8802,-4.9548,-5.0131,-5.059,-5.0628,-5.0401,-4.9904,-4.9343,-4.8983,-4.8551,-4.7814,-4.7165,-4.6694,-4.6067,-4.5513,-4.5208,-4.4983,-4.4908,-4.5119,-4.55,-4.5818,-4.5956,-4.6371,-4.6607,-4.6498,-4.6613,-4.6652,-4.6698,-4.6907,-4.7145,-4.7091,-4.7543,-4.7677,-4.7445,-4.8217,-4.8653,-4.9078,-4.9455,-4.9882,-5.0066,-5.0632,-5.1152,-5.1819,-5.2681,-5.377,-5.4665,-5.5196,-5.5401,-5.5564,-5.5685,-5.5886,-5.6126,-5.6165,-5.6244,-5.668,-5.7025,-5.7289,-5.7735,-5.8207,-5.8562,-5.8736,-5.8909,-5.8909,-5.8978,-5.9012,-5.9012,-5.9012,-5.9012,-5.9012,-5.9012,-5.9012,-5.9012,-5.9012,-5.9012,-5.9012,-5.9012,-5.9012,-5.9012,-5.9012,-5.9012,-5.9012,-5.9012,-5.9012,-5.8978,-5.8944,-5.884,-5.8736,-5.8631,-5.8525,-5.8384,-5.8207,-5.8135,-5.8099,-5.1129,-5.0486,-4.9892,-4.9219,-4.8604,-4.8218,-4.788,-4.7581,-4.7409,-4.7309,-4.7309,-4.7309,-4.7309,-4.7309,-4.7309,-4.7309,-4.7309,-4.7309,-4.7309,-4.7412,-4.8036,-4.8498,-4.8917,-5.0418,-5.0723,-5.1044,-5.1228,-5.0834,-5.0185,-4.9343,-4.8833,-4.8603,-4.7978,-4.7362,-4.7017,-4.6307,-4.5813,-4.5581,-4.5478,-4.5723,-4.6127,-4.6441,-4.6503,-4.6454,-4.6618,-4.6799,-4.6728,-4.6846,-4.6821,-4.6976,-4.7024,-4.7167,-4.7357,-4.7894,-4.8297,-4.8441,-4.8663,-4.8972,-4.9407,-4.9708,-4.9795,-4.9844,-5.0135,-5.0442,-5.1309,-5.2457,-5.3596,-5.4146,-5.4781,-5.5155,-5.5278,-5.5401,-5.5604,-5.5766,-5.5846,-5.6046,-5.6369,-5.6486,-5.6757,-5.7063,-5.7551,-5.8099,-5.8456,-5.8701,-5.884,-5.8909,-5.8978,-5.8978,-5.8978,-5.8978,-5.9012,-5.9012,-5.9012,-5.9012,-5.9012,-5.9012,-5.9012,-5.9012,-5.9012,-5.9012,-5.9012,-5.9012,-5.9012,-5.9012,-5.8978,-5.8909,-5.8806,-5.8701,-5.8596,-5.8455,-5.8348,-5.8135,-5.7991,-5.7918,-5.7954,-5.0563,-4.9939,-4.93,-4.8728,-4.826,-4.7922,-4.7624,-4.7439,-4.7352,-4.7309,-4.7309,-4.7309,-4.7309,-4.7309,-4.7309,-4.7309,-4.7309,-4.7309,-4.7309,-4.7459,-4.8099,-4.8697,-4.9342,-5.035,-5.1001,-5.141,-5.1222,-5.079,-5.0113,-4.9634,-4.9174,-4.8689,-4.8034,-4.7364,-4.7081,-4.6523,-4.6258,-4.6127,-4.6102,-4.6211,-4.6506,-4.6717,-4.6816,-4.6723,-4.6952,-4.7063,-4.7147,-4.7219,-4.7271,-4.7453,-4.758,-4.7783,-4.7844,-4.8227,-4.8677,-4.8775,-4.8775,-4.9066,-4.9562,-4.9669,-4.9698,-4.9795,-4.996,-5.0442,-5.1293,-5.2321,-5.3334,-5.3813,-5.4497,-5.4906,-5.5072,-5.5319,-5.5409,-5.5523,-5.5564,-5.5726,-5.5927,-5.6046,-5.6244,-5.6525,-5.6834,-5.7364,-5.7845,-5.8099,-5.835,-5.8701,-5.8771,-5.8875,-5.8909,-5.8944,-5.8978,-5.9012,-5.9012,-5.9012,-5.9012,-5.9012,-5.9012,-5.9012,-5.9012,-5.9012,-5.9012,-5.9012,-5.8978,-5.8944,-5.8944,-5.884,-5.8666,-5.8561,-5.849,-5.8312,-5.8099,-5.7991,-5.7918,-5.7881,-5.7845,-4.986,-4.93,-4.8811,-4.8343,-4.788,-4.7666,-4.7525,-4.7309,-4.7309,-4.7309,-4.7309,-4.7309,-4.7309,-4.7309,-4.7309,-4.7309,-4.7309,-4.7309,-4.7429,-4.7698,-4.8251,-4.8984,-4.9704,-5.0532,-5.1074,-5.1632,-5.0887,-5.0353,-4.9902,-4.9386,-4.8816,-4.8581,-4.774,-4.726,-4.6873,-4.6585,-4.6453,-4.6453,-4.6453,-4.648,-4.6535,-4.6692,-4.6796,-4.6925,-4.7081,-4.7339,-4.7545,-4.7541,-4.7516,-4.7706,-4.7891,-4.8013,-4.8141,-4.8439,-4.8745,-4.8844,-4.8894,-4.9022,-4.9326,-4.9453,-4.9522,-4.9669,-4.999,-5.0423,-5.1246,-5.2185,-5.298,-5.3465,-5.4157,-5.4655,-5.4906,-5.5113,-5.5196,-5.5237,-5.5237,-5.5401,-5.5523,-5.5604,-5.5645,-5.5814,-5.6132,-5.6447,-5.6877,-5.7331,-5.7772,-5.8278,-5.8561,-5.8735,-5.8806,-5.8875,-5.8909,-5.8944,-5.8978,-5.8978,-5.9012,-5.9012,-5.9012,-5.9012,-5.9012,-5.8978,-5.8978,-5.8978,-5.8978,-5.8944,-5.884,-5.8666,-5.8525,-5.8455,-5.8384,-5.8135,-5.7991,-5.7954,-5.7881,-5.7845,-5.7769,-4.9097,-4.8646,-4.8604,-4.8218,-4.7624,-4.7624,-4.7452,-4.7309,-4.7309,-4.7309,-4.7309,-4.7309,-4.7309,-4.7309,-4.7309,-4.7309,-4.7309,-4.7309,-4.7638,-4.8207,-4.894,-4.9479,-5.0108,-5.0631,-5.0922,-5.071,-5.0279,-4.9669,-4.898,-4.8302,-4.7925,-4.7671,-4.7236,-4.6821,-4.6612,-4.6535,-4.6535,-4.6535,-4.6535,-4.6535,-4.6535,-4.6587,-4.6665,-4.6848,-4.6953,-4.7057,-4.7315,-4.7315,-4.7414,-4.7582,-4.7745,-4.7976,-4.8189,-4.8346,-4.8559,-4.871,-4.876,-4.8859,-4.8959,-4.9058,-4.9108,-4.9404,-4.9795,-5.0279,-5.0822,-5.1572,-5.2306,-5.3024,-5.377,-5.4242,-5.4528,-5.4697,-5.4906,-5.4948,-5.4989,-5.5063,-5.5146,-5.5155,-5.5237,-5.5237,-5.545,-5.5774,-5.5981,-5.6453,-5.7181,-5.7772,-5.8278,-5.8455,-5.8631,-5.8736,-5.8875,-5.8909,-5.8944,-5.8978,-5.8978,-5.9012,-5.9012,-5.9012,-5.9012,-5.8978,-5.8944,-5.8944,-5.8944,-5.8806,-5.8701,-5.8525,-5.8348,-5.8277,-5.8135,-5.7991,-5.7881,-5.7881,-5.7772,-5.7698,-5.7618,-4.8728,-4.8187,-4.8049,-4.7837,-4.7581,-4.7452,-4.7396,-4.7309,-4.7309,-4.7309,-4.7309,-4.7309,-4.7309,-4.7309,-4.7309,-4.7309,-4.7309,-4.7309,-4.7758,-4.8297,-4.8955,-4.9613,-5.0226,-5.0607,-5.0775,-5.0327,-4.9746,-4.893,-4.81,-4.7335,-4.6742,-4.648,-4.6533,-4.6612,-4.6508,-4.6482,-4.6535,-4.6535,-4.6535,-4.6535,-4.6535,-4.6535,-4.6587,-4.664,-4.6692,-4.6796,-4.7005,-4.7057,-4.7212,-4.7367,-4.747,-4.7699,-4.7953,-4.8004,-4.8156,-4.8358,-4.8409,-4.8409,-4.8509,-4.871,-4.8959,-4.9108,-4.9551,-5.0009,-5.0442,-5.1199,-5.1987,-5.2757,-5.3465,-5.3942,-5.437,-5.4655,-5.4854,-5.4813,-5.4771,-5.4771,-5.4813,-5.4822,-5.4864,-5.4906,-5.4989,-5.5196,-5.5369,-5.5612,-5.6414,-5.7181,-5.7735,-5.8205,-5.8348,-5.849,-5.8596,-5.8736,-5.8771,-5.8909,-5.8944,-5.8978,-5.8978,-5.8978,-5.8978,-5.8909,-5.8875,-5.8875,-5.884,-5.8666,-5.8525,-5.8384,-5.8241,-5.8133,-5.7991,-5.7918,-5.7881,-5.7845,-5.7735,-5.7547,-5.7486,-4.8438,-4.7964,-4.7654,-4.7495,-4.7525,-4.7352,-4.7309,-4.7309,-4.7309,-4.7309,-4.7309,-4.7309,-4.7309,-4.7309,-4.7309,-4.7309,-4.7369,-4.7549,-4.8027,-4.8626,-4.9314,-4.9837,-5.0249,-5.0384,-5.0298,-4.9892,-4.9029,-4.8128,-4.7232,-4.6506,-4.6112,-4.5901,-4.5848,-4.6086,-4.635,-4.6455,-4.6482,-4.6535,-4.6535,-4.6535,-4.6535,-4.6535,-4.6535,-4.6535,-4.6535,-4.6587,-4.6717,-4.6769,-4.6901,-4.7081,-4.7184,-4.7315,-4.747,-4.7596,-4.7699,-4.7801,-4.7931,-4.7953,-4.8106,-4.8459,-4.8731,-4.8831,-4.9305,-4.9698,-5.0231,-5.0964,-5.1803,-5.2622,-5.329,-5.3813,-5.4242,-5.4444,-5.4486,-5.4444,-5.4518,-5.4476,-5.4528,-5.4571,-5.4571,-5.4571,-5.4655,-5.4781,-5.4948,-5.5164,-5.5821,-5.6608,-5.7101,-5.7551,-5.7808,-5.7991,-5.8205,-5.8384,-5.8561,-5.8736,-5.8875,-5.884,-5.8875,-5.8909,-5.8875,-5.8771,-5.8771,-5.8736,-5.8665,-5.849,-5.8348,-5.8205,-5.8063,-5.7991,-5.7918,-5.7918,-5.7842,-5.78,-5.7536,-5.741,-5.7432,-4.8175,-4.7922,-4.7525,-4.7309,-4.7309,-4.7309,-4.7309,-4.7309,-4.7309,-4.7309,-4.7309,-4.7309,-4.7309,-4.7309,-4.7309,-4.7309,-4.7459,-4.7908,-4.8506,-4.9105,-4.9657,-5.0266,-5.0431,-5.0316,-4.9815,-4.893,-4.8179,-4.7414,-4.6533,-4.5954,-4.5662,-4.5502,-4.5448,-4.5609,-4.6034,-4.6297,-4.6482,-4.6482,-4.6482,-4.6482,-4.6535,-4.6535,-4.6535,-4.6535,-4.6535,-4.6535,-4.6587,-4.656,-4.6744,-4.6901,-4.6873,-4.7057,-4.7264,-4.7288,-4.7339,-4.7418,-4.7624,-4.7699,-4.775,-4.8258,-4.8431,-4.8531,-4.9009,-4.9502,-5.0086,-5.0822,-5.1618,-5.2487,-5.3113,-5.3552,-5.3899,-5.4103,-5.4103,-5.4103,-5.4103,-5.4189,-5.4231,-5.4274,-5.4274,-5.4316,-5.437,-5.4454,-5.4581,-5.4832,-5.5377,-5.5981,-5.6486,-5.6872,-5.7176,-5.7402,-5.7588,-5.7918,-5.8135,-5.8314,-5.8456,-5.8666,-5.8736,-5.8771,-5.8736,-5.8596,-5.8561,-5.849,-5.8384,-5.8207,-5.8099,-5.7991,-5.7918,-5.7881,-5.7698,-5.7551,-5.7722,-5.7641,-5.7439,-5.7354,-5.7456,-4.7964,-4.7709,-4.7439,-4.7309,-4.7309,-4.7309,-4.7309,-4.7309,-4.7309,-4.7309,-4.7309,-4.7309,-4.7309,-4.7309,-4.7309,-4.7309,-4.7429,-4.7997,-4.8626,-4.9284,-4.9835,-5.0181,-5.0342,-5.0009,-4.9404,-4.8581,-4.7824,-4.695,-4.6165,-4.5609,-4.5234,-4.5072,-4.518,-4.5395,-4.5662,-4.5875,-4.5981,-4.6139,-4.6192,-4.6245,-4.6482,-4.6482,-4.6482,-4.6482,-4.6482,-4.6535,-4.6535,-4.6535,-4.6587,-4.6692,-4.6692,-4.6796,-4.7005,-4.7029,-4.7081,-4.7264,-4.7418,-4.7442,-4.7494,-4.7801,-4.8055,-4.8358,-4.881,-4.9305,-4.9844,-5.071,-5.1526,-5.2306,-5.2922,-5.3365,-5.3552,-5.364,-5.364,-5.364,-5.3671,-5.3758,-5.3844,-5.3931,-5.4005,-5.4103,-5.4231,-5.4157,-5.4242,-5.4327,-5.4758,-5.509,-5.5539,-5.602,-5.6375,-5.6647,-5.6839,-5.7327,-5.7625,-5.7845,-5.8027,-5.8135,-5.8205,-5.8205,-5.8243,-5.8278,-5.8207,-5.8135,-5.8099,-5.7918,-5.7845,-5.7772,-5.7658,-5.751,-5.7252,-5.7172,-5.7563,-5.7692,-5.7454,-5.7508,-5.7771,-4.7837,-4.7581,-4.7396,-4.7309,-4.7309,-4.7309,-4.7309,-4.7309,-4.7309,-4.7309,-4.7309,-4.7309,-4.7309,-4.7309,-4.7309,-4.7309,-4.7399,-4.8267,-4.876,-4.9374,-4.9981,-5.0218,-5.0162,-4.9669,-4.8831,-4.8078,-4.726,-4.6455,-4.5715,-4.5234,-4.4964,-4.4856,-4.491,-4.5046,-4.5261,-4.5502,-4.5715,-4.5875,-4.5875,-4.5981,-4.6139,-4.6192,-4.6297,-4.635,-4.643,-4.6535,-4.6535,-4.6535,-4.6535,-4.6535,-4.6535,-4.6587,-4.6744,-4.6796,-4.6848,-4.7005,-4.716,-4.7236,-4.747,-4.7624,-4.7903,-4.8308,-4.876,-4.9256,-4.9863,-5.0775,-5.1526,-5.2215,-5.2788,-5.31,-5.3334,-5.3377,-5.3377,-5.3334,-5.3377,-5.354,-5.3584,-5.3671,-5.3714,-5.3844,-5.3931,-5.3888,-5.3899,-5.3899,-5.4082,-5.4295,-5.4549,-5.5049,-5.5539,-5.5781,-5.606,-5.6492,-5.6839,-5.703,-5.7256,-5.7514,-5.7551,-5.7588,-5.7662,-5.7772,-5.7735,-5.7625,-5.7662,-5.7625,-5.7476,-5.7327,-5.7281,-5.7158,-5.7089,-5.7318,-5.7785,-5.7745,-5.7434,-5.7641,-5.7926,-4.7837,-4.7581,-4.7396,-4.7309,-4.7309,-4.7309,-4.7309,-4.7309,-4.7309,-4.7309,-4.7309,-4.7309,-4.7309,-4.7309,-4.7309,-4.7309,-4.7578,-4.8596,-4.9075,-4.9477,-5.0109,-5.0206,-4.9863,-4.9256,-4.833,-4.7391,-4.656,-4.6034,-4.5234,-4.4964,-4.4776,-4.4722,-4.4748,-4.483,-4.4992,-4.5207,-4.5422,-4.5555,-4.5609,-4.5662,-4.5822,-4.5901,-4.5981,-4.6086,-4.6245,-4.635,-4.643,-4.6482,-4.6482,-4.6535,-4.6535,-4.6535,-4.6535,-4.6535,-4.6535,-4.6587,-4.6796,-4.7108,-4.7391,-4.7494,-4.7953,-4.8409,-4.9058,-4.9551,-5.0183,-5.0917,-5.1618,-5.22,-5.2698,-5.3011,-5.3246,-5.3246,-5.329,-5.3246,-5.3246,-5.3334,-5.3377,-5.3421,-5.3452,-5.3465,-5.3509,-5.3509,-5.3552,-5.3596,-5.364,-5.377,-5.3954,-5.421,-5.4675,-5.4915,-5.5172,-5.5539,-5.5901,-5.6106,-5.6342,-5.6608,-5.6801,-5.6762,-5.7025,-5.7139,-5.7101,-5.7139,-5.7214,-5.7176,-5.7025,-5.6972,-5.6972,-5.7034,-5.7091,-5.7405,-5.7702,-5.7748,-5.7479,-5.7743,-5.7956,-4.7581,-4.7366,-4.7309,-4.7309,-4.7309,-4.7309,-4.7309,-4.7309,-4.7309,-4.7309,-4.7309,-4.7309,-4.7309,-4.7309,-4.7309,-4.7309,-4.7788,-4.8506,-4.894,-4.9472,-4.9946,-4.9833,-4.9404,-4.8681,-4.7824,-4.7081,-4.6297,-4.5662,-4.5234,-4.4856,-4.4722,-4.4694,-4.4694,-4.4694,-4.4802,-4.4884,-4.5126,-4.5234,-4.5287,-4.5395,-4.5502,-4.5635,-4.5715,-4.5822,-4.6034,-4.6139,-4.6192,-4.6377,-4.643,-4.6482,-4.6482,-4.6482,-4.6535,-4.6535,-4.6535,-4.6535,-4.6587,-4.6692,-4.6873,-4.7391,-4.7953,-4.8581,-4.9326,-4.9795,-5.0298,-5.0964,-5.1741,-5.2155,-5.2563,-5.2877,-5.3011,-5.3011,-5.3011,-5.3055,-5.3055,-5.3055,-5.31,-5.3188,-5.3188,-5.3246,-5.329,-5.329,-5.329,-5.3334,-5.3377,-5.3377,-5.3465,-5.364,-5.3856,-5.4114,-5.437,-5.4717,-5.4966,-5.5181,-5.5377,-5.562,-5.5821,-5.5981,-5.6218,-5.6453,-5.6564,-5.6603,-5.6757,-5.6674,-5.6468,-5.6599,-5.6799,-5.6873,-5.6964,-5.7013,-5.7224,-5.7416,-5.7552,-5.7751,-5.7814,-4.7254,-4.7279,-4.7309,-4.7309,-4.7309,-4.7309,-4.7309,-4.7309,-4.7309,-4.7309,-4.7309,-4.7309,-4.7309,-4.7309,-4.7309,-4.7339,-4.7429,-4.8596,-4.9194,-4.9172,-4.9739,-4.9572,-4.9108,-4.8229,-4.7312,-4.6612,-4.5981,-4.5395,-4.5072,-4.4856,-4.4694,-4.4694,-4.4694,-4.4694,-4.4748,-4.4748,-4.4776,-4.4964,-4.5018,-4.5126,-4.5207,-4.5395,-4.5448,-4.5502,-4.5688,-4.5795,-4.5875,-4.6086,-4.6139,-4.6139,-4.6139,-4.6139,-4.6139,-4.6139,-4.6139,-4.6139,-4.6245,-4.6455,-4.6796,-4.7339,-4.8004,-4.8781,-4.9571,-5.0057,-5.0632,-5.1276,-5.1695,-5.2094,-5.2458,-5.2729,-5.2729,-5.2729,-5.2729,-5.2729,-5.2743,-5.2788,-5.2833,-5.2953,-5.2966,-5.31,-5.3069,-5.3069,-5.3069,-5.3113,-5.3144,-5.3055,-5.3055,-5.31,-5.329,-5.3552,-5.377,-5.4028,-5.4157,-5.4295,-5.4497,-5.4707,-5.4925,-5.5172,-5.5377,-5.558,-5.5854,-5.5966,-5.6006,-5.5944,-5.5832,-5.6048,-5.6324,-5.6713,-5.6858,-5.6931,-5.7055,-5.7326,-5.747,-5.7447,-5.7449,-4.6821,-4.7219,-4.7279,-4.7309,-4.7309,-4.7309,-4.7309,-4.7309,-4.7309,-4.7309,-4.7309,-4.7309,-4.7309,-4.7309,-4.7309,-4.7309,-4.7698,-4.8626,-4.9103,-4.8919,-4.9644,-4.9571,-4.876,-4.7801,-4.6977,-4.6112,-4.5529,-4.518,-4.4856,-4.4694,-4.4694,-4.4694,-4.4694,-4.4694,-4.4694,-4.4694,-4.4748,-4.4802,-4.4802,-4.4856,-4.4856,-4.5018,-4.518,-4.518,-4.5395,-4.5555,-4.5609,-4.5609,-4.5582,-4.5609,-4.5662,-4.5662,-4.5662,-4.5715,-4.5635,-4.5795,-4.606,-4.6403,-4.6873,-4.7494,-4.828,-4.9029,-4.9795,-5.0327,-5.0899,-5.1369,-5.1741,-5.1956,-5.22,-5.2427,-5.2427,-5.2427,-5.2427,-5.2427,-5.2473,-5.2473,-5.2518,-5.2563,-5.2563,-5.2653,-5.2653,-5.2653,-5.2712,-5.2757,-5.2877,-5.2743,-5.2819,-5.2819,-5.2877,-5.3144,-5.3246,-5.3421,-5.3465,-5.364,-5.377,-5.3985,-5.4157,-5.437,-5.4549,-5.4758,-5.5081,-5.5155,-5.5219,-5.5384,-5.5569,-5.5611,-5.5827,-5.6328,-5.6762,-5.6944,-5.7136,-5.7371,-5.737,-5.7244,-5.718,-4.6454,-4.6591,-4.71,-4.7309,-4.7309,-4.7309,-4.7309,-4.7309,-4.7309,-4.7309,-4.7309,-4.7309,-4.7309,-4.7309,-4.7309,-4.7309,-4.7608,-4.8432,-4.8864,-4.8955,-4.9395,-4.919,-4.8481,-4.7442,-4.6612,-4.6007,-4.5475,-4.5018,-4.4802,-4.4694,-4.4694,-4.4694,-4.4694,-4.4694,-4.4694,-4.4694,-4.4694,-4.4694,-4.4694,-4.4694,-4.4748,-4.4722,-4.483,-4.4964,-4.5126,-4.5287,-4.5341,-4.5448,-4.5529,-4.5609,-4.5582,-4.5582,-4.5582,-4.5582,-4.5688,-4.5901,-4.6112,-4.6455,-4.7029,-4.775,-4.8581,-4.9277,-4.9912,-5.0519,-5.1041,-5.1463,-5.1741,-5.1834,-5.1926,-5.2109,-5.22,-5.22,-5.22,-5.22,-5.22,-5.22,-5.22,-5.22,-5.22,-5.2231,-5.2231,-5.2246,-5.2382,-5.2473,-5.2518,-5.2608,-5.2698,-5.2729,-5.2729,-5.2877,-5.2877,-5.3011,-5.2922,-5.3011,-5.3188,-5.3365,-5.3584,-5.3726,-5.3985,-5.4157,-5.4316,-5.4687,-5.5027,-5.5237,-5.5399,-5.5543,-5.5879,-5.629,-5.6684,-5.6902,-5.7042,-5.7227,-5.7146,-5.6971,-5.6923,-4.5741,-4.6339,-4.704,-4.7309,-4.7309,-4.7309,-4.7309,-4.7309,-4.7309,-4.7309,-4.7309,-4.7309,-4.7309,-4.7309,-4.7309,-4.7309,-4.7445,-4.8238,-4.8445,-4.8529,-4.8615,-4.8361,-4.7735,-4.7029,-4.6218,-4.5635,-4.5234,-4.4856,-4.4748,-4.4694,-4.4694,-4.4694,-4.4694,-4.4694,-4.4694,-4.4694,-4.4694,-4.4694,-4.4694,-4.4694,-4.4694,-4.4722,-4.4722,-4.4802,-4.4856,-4.5018,-4.5018,-4.51,-4.5154,-4.5207,-4.5154,-4.5154,-4.5154,-4.5154,-4.5341,-4.5635,-4.5954,-4.6508,-4.7184,-4.8055,-4.893,-4.9571,-5.0202,-5.0775,-5.1041,-5.1416,-5.1526,-5.1649,-5.188,-5.2063,-5.2094,-5.2094,-5.2094,-5.2094,-5.2094,-5.2094,-5.2094,-5.2094,-5.2094,-5.2094,-5.2094,-5.2094,-5.22,-5.2306,-5.2397,-5.2473,-5.2563,-5.2729,-5.2729,-5.2729,-5.2729,-5.2729,-5.2729,-5.2729,-5.2877,-5.3011,-5.31,-5.3277,-5.3452,-5.3847,-5.421,-5.448,-5.4825,-5.5176,-5.5479,-5.5796,-5.6124,-5.6466,-5.6652,-5.6851,-5.6927,-5.6923,-5.6858,-5.681,-5.681,-4.5083,-4.6352,-4.704,-4.7309,-4.7309,-4.7309,-4.7309,-4.7309,-4.7309,-4.7309,-4.7309,-4.7309,-4.7309,-4.7309,-4.7309,-4.7309,-4.7505,-4.7926,-4.7997,-4.8062,-4.8067,-4.7893,-4.7327,-4.6508,-4.5795,-4.5315,-4.491,-4.4802,-4.4748,-4.4694,-4.4694,-4.4694,-4.4694,-4.4694,-4.4694,-4.4694,-4.4694,-4.4694,-4.4694,-4.4694,-4.4694,-4.4694,-4.4694,-4.4694,-4.4694,-4.4694,-4.4722,-4.4722,-4.4722,-4.4722,-4.4776,-4.483,-4.4884,-4.4938,-4.5234,-4.5502,-4.6086,-4.6665,-4.7442,-4.8409,-4.9256,-4.9941,-5.0489,-5.087,-5.1135,-5.1276,-5.1339,-5.1479,-5.1741,-5.1834,-5.188,-5.188,-5.188,-5.188,-5.188,-5.188,-5.188,-5.188,-5.188,-5.188,-5.188,-5.188,-5.2017,-5.2124,-5.2261,-5.2352,-5.2473,-5.2608,-5.2729,-5.2729,-5.2729,-5.2729,-5.2729,-5.2729,-5.2729,-5.2819,-5.2877,-5.2922,-5.3162,-5.3623,-5.4103,-5.4646,-5.5036,-5.5286,-5.5612,-5.6107,-5.626,-5.6491,-5.6673,-5.6827,-5.6858,-5.6858,-5.6858,-5.6761,-5.6761,-4.5095,-4.6381,-4.704,-4.7309,-4.7309,-4.7309,-4.7309,-4.7309,-4.7309,-4.7309,-4.7309,-4.7309,-4.7309,-4.7309,-4.7309,-4.7266,-4.7312,-4.7629,-4.7893,-4.8062,-4.7654,-4.7481,-4.707,-4.6165,-4.5529,-4.5046,-4.4748,-4.4748,-4.4694,-4.4694,-4.4694,-4.4694,-4.4694,-4.4694,-4.4694,-4.4694,-4.4694,-4.4694,-4.4694,-4.4694,-4.4694,-4.4694,-4.4694,-4.4694,-4.4694,-4.4694,-4.4694,-4.4694,-4.4694,-4.4694,-4.4694,-4.4694,-4.4802,-4.4938,-4.5287,-4.5742,-4.6297,-4.7053,-4.7925,-4.8781,-4.96,-5.0135,-5.0585,-5.0964,-5.1135,-5.1229,-5.1276,-5.1276,-5.1463,-5.1463,-5.1463,-5.1463,-5.1463,-5.1463,-5.1463,-5.1463,-5.1463,-5.1463,-5.1463,-5.1463,-5.1463,-5.1556,-5.1741,-5.1895,-5.2155,-5.2291,-5.2518,-5.2653,-5.2729,-5.2729,-5.2729,-5.2729,-5.2729,-5.2729,-5.2729,-5.2729,-5.2743,-5.2774,-5.2973,-5.354,-5.4189,-5.4993,-5.5378,-5.5672,-5.6073,-5.6567,-5.6686,-5.6625,-5.6686,-5.681,-5.681,-5.681,-5.681,-5.6713,-5.6664]},{"header":{"parameterUnit":"m.s-1","parameterCategory":1,"la1":31.0,"la2":29.5877,"lo1":-88.7671,"lo2":-86.6584,"dy":0.0162,"dx":0.0185,"nx":115,"ny":88,"refTime":"2024-05-16T06:00:00:Z","depth":0,"parameterNumber":3,"parameterNumberName":"V-component_of_WINDS"},"data":[0.0,0.0,0.0,0.0,0.0,0.0,0.0,0.0,0.0,0.0,0.0,0.0,0.0,0.0,0.0,0.0,0.0,0.0,0.0,0.0,0.0,0.0,0.0,0.0,0.0,0.0,0.0,0.0,0.0,0.0,0.0,0.0,0.0,0.0,0.0,0.0,0.0,0.0,0.0,0.0,0.0,0.0,0.0,0.0,0.0,0.0,0.0,0.0,0.0,0.0,0.0,0.0,0.0,0.0,0.0,0.0,0.0,0.0,0.0,0.0,0.0,0.0,0.0,0.0,0.0,0.0,0.0,0.0,0.0,0.0,0.0,0.0,0.0,0.0,0.0,0.0,0.0,0.0,0.0,0.0,0.0,0.0,0.0,0.0,0.0,0.0,0.0,0.0,0.0,0.0,0.0,0.0,0.0,0.0,0.0,0.0,0.0,0.0,0.0,0.0,0.0,0.0,0.0,0.0,0.0,0.0,0.0,0.0,0.0,0.0,0.0,0.0,0.0,0.0,0.0,0.0,0.0,0.0,0.0,0.0,0.0,0.0,0.0,0.0,0.0,0.0,0.0,0.0,0.0,0.0,0.0,0.0,0.0,0.0,0.0,0.0,0.0,0.0,0.0,0.0,0.0,0.0,0.0,0.0,0.0,0.0,0.0,0.0,0.0,0.0,0.0,0.0,0.0,0.0,0.0,0.0,0.0,0.0,0.0,0.0,0.0,0.0,0.0,0.0,0.0,0.0,0.0,0.0,0.0,0.0,0.0,0.0,0.0,0.0,0.0,0.0,0.0,0.0,0.0,0.0,0.0,0.0,0.0,0.0,0.0,0.0,0.0,0.0,0.0,0.0,0.0,0.0,0.0,0.0,0.0,0.0,0.0,0.0,0.0,0.0,0.0,0.0,0.0,0.0,0.0,0.0,0.0,0.0,0.0,0.0,0.0,0.0,0.0,0.0,0.0,0.0,0.0,0.0,0.0,0.0,0.0,0.0,0.0,0.0,0.0,0.0,0.0,0.0,0.0,0.0,0.0,0.0,0.0,0.0,0.0,0.0,0.0,0.0,0.0,0.0,0.0,0.0,0.0,0.0,0.0,0.0,0.0,0.0,0.0,0.0,0.0,0.0,0.0,0.0,0.0,0.0,0.0,0.0,0.0,0.0,0.0,0.0,0.0,0.0,0.0,0.0,0.0,0.0,0.0,0.0,0.0,0.0,0.0,0.0,0.0,0.0,0.0,0.0,0.0,0.0,0.0,0.0,0.0,0.0,0.0,0.0,0.0,0.0,0.0,0.0,0.0,0.0,0.0,0.0,0.0,0.0,0.0,0.0,0.0,0.0,0.0,0.0,0.0,0.0,0.0,0.0,0.0,0.0,0.0,0.0,0.0,0.0,0.0,0.0,0.0,0.0,0.0,0.0,0.0,0.0,0.0,0.0,0.0,0.0,0.0,0.0,0.0,0.0,0.0,0.0,0.0,0.0,0.0,0.0,0.0,0.0,0.0,0.0,0.0,0.0,0.0,0.0,0.0,0.0,0.0,0.0,0.0,0.0,0.0,0.0,0.0,0.0,0.0,0.0,0.0,0.0,0.0,0.0,0.0,0.0,0.0,0.0,0.0,0.0,0.0,0.0,0.0,0.0,0.0,0.0,0.0,0.0,0.0,0.0,0.0,0.0,0.0,0.0,0.0,0.0,0.0,0.0,0.0,0.0,0.0,0.0,0.0,0.0,0.0,0.0,0.0,0.0,0.0,0.0,0.0,0.0,0.0,0.0,0.0,0.0,0.0,0.0,0.0,0.0,0.0,0.0,0.0,0.0,0.0,0.0,0.0,0.0,0.0,0.0,0.0,0.0,0.0,0.0,0.0,0.0,0.0,0.0,0.0,0.0,0.0,0.0,0.0,0.0,0.0,0.0,0.0,0.0,0.0,0.0,0.0,0.0,0.0,0.0,0.0,0.0,0.0,0.0,0.0,0.0,0.0,0.0,0.0,0.0,0.0,0.0,0.0,0.0,0.0,0.0,0.0,0.0,0.0,0.0,0.0,0.0,0.0,0.0,0.0,0.0,0.0,0.0,0.0,0.0,0.0,0.0,0.0,0.0,0.0,0.0,0.0,0.0,0.0,0.0,0.0,0.0,0.0,0.0,0.0,0.0,0.0,0.0,0.0,0.0,0.0,0.0,0.0,0.0,0.0,0.0,0.0,0.0,0.0,0.0,0.0,0.0,0.0,0.0,0.0,0.0,0.0,0.0,0.0,0.0,0.0,0.0,0.0,0.0,0.0,0.0,0.0,0.0,0.0,0.0,0.0,0.0,0.0,0.0,0.0,0.0,0.0,0.0,0.0,0.0,0.0,0.0,0.0,0.0,0.0,0.0,0.0,0.0,0.0,0.0,0.0,0.0,0.0,0.0,0.0,0.0,0.0,0.0,0.0,0.0,0.0,0.0,0.0,0.0,0.0,0.0,0.0,0.0,0.0,0.0,0.0,0.0,0.0,0.0,0.0,0.0,0.0,0.0,0.0,0.0,0.0,0.0,0.0,0.0,0.0,0.0,0.0,0.0,0.0,0.0,0.0,0.0,0.0,0.0,0.0,0.0,0.0,0.0,0.0,0.0,0.0,0.0,0.0,0.0,0.0,0.0,0.0,0.0,0.0,0.0,0.0,0.0,0.0,0.0,0.0,0.0,0.0,0.0,0.0,0.0,0.0,0.0,0.0,0.0,0.0,0.0,0.0,0.0,0.0,0.0,0.0,0.0,0.0,0.0,0.0,0.0,0.0,0.0,0.0,0.0,0.0,0.0,0.0,0.0,0.0,0.0,0.0,0.0,0.0,0.0,0.0,0.0,0.0,0.0,0.0,0.0,0.0,0.0,0.0,0.0,0.0,0.0,0.0,0.0,0.0,0.0,0.0,0.0,0.0,0.0,0.0,0.0,0.0,0.0,0.0,0.0,0.0,0.0,0.0,0.0,0.0,0.0,0.0,0.0,0.0,0.0,0.0,0.0,0.0,0.0,0.0,0.0,0.0,0.0,0.0,0.0,0.0,0.0,0.0,0.0,0.0,0.0,0.0,0.0,0.0,0.0,0.0,0.0,0.0,0.0,0.0,0.0,0.0,0.0,0.0,0.0,0.0,0.0,0.0,0.0,0.0,0.0,0.0,0.0,0.0,0.0,0.0,0.0,0.0,0.0,0.0,0.0,0.0,0.0,0.0,0.0,0.0,0.0,0.0,0.0,0.0,0.0,0.0,0.0,0.0,0.0,0.0,0.0,0.0,0.0,0.0,0.0,0.0,0.0,0.0,0.0,0.0,0.0,0.0,0.0,0.0,0.0,0.0,0.0,0.0,0.0,0.0,0.0,0.0,0.0,0.0,0.0,0.0,0.0,0.0,0.0,0.0,0.0,0.0,0.0,0.0,0.0,0.0,0.0,0.0,0.0,0.0,0.0,0.0,0.0,0.0,0.0,0.0,0.0,0.0,0.0,0.0,0.0,0.0,0.0,0.0,0.0,0.0,0.0,0.0,0.0,0.0,0.0,0.0,0.0,0.0,0.0,0.0,0.0,0.0,0.0,0.0,0.0,0.0,0.0,0.0,0.0,0.0,0.0,0.0,0.0,0.0,0.0,0.0,0.0,0.0,0.0,0.0,0.0,0.0,0.0,0.0,0.0,0.0,0.0,0.0,0.0,0.0,0.0,0.0,0.0,0.0,0.0,0.0,0.0,0.0,0.0,0.0,0.0,0.0,0.0,0.0,0.0,0.0,0.0,0.0,0.0,0.0,0.0,0.0,0.0,0.0,0.0,0.0,0.0,0.0,0.0,0.0,0.0,0.0,0.0,0.0,0.0,0.0,0.0,0.0,0.0,0.0,0.0,0.0,0.0,0.0,0.0,0.0,0.0,0.0,0.0,0.0,0.0,0.0,0.0,0.0,0.0,0.0,0.0,0.0,0.0,0.0,0.0,0.0,0.0,0.0,0.0,0.0,0.0,0.0,0.0,0.0,0.0,0.0,0.0,0.0,0.0,0.0,0.0,0.0,0.0,0.0,0.0,0.0,0.0,0.0,0.0,0.0,0.0,0.0,0.0,0.0,0.0,0.0,0.0,0.0,0.0,0.0,0.0,0.0,0.0,0.0,0.0,0.0,0.0,0.0,0.0,0.0,0.0,0.0,0.0,0.0,0.0,0.0,0.0,0.0,0.0,0.0,0.0,0.0,0.0,0.0,0.0,0.0,0.0,0.0,0.0,0.0,0.0,0.0,0.0,0.0,0.0,0.0,0.0,0.0,0.0,-2.3085,0.0,0.0,0.0,0.0,0.0,0.0,0.0,0.0,0.0,0.0,0.0,0.0,0.0,0.0,0.0,0.0,0.0,0.0,0.0,0.0,0.0,0.0,0.0,0.0,0.0,0.0,0.0,0.0,0.0,0.0,0.0,0.0,0.0,0.0,0.0,0.0,0.0,0.0,0.0,0.0,0.0,0.0,0.0,0.0,0.0,0.0,0.0,0.0,0.0,0.0,0.0,0.0,0.0,0.0,0.0,0.0,0.0,0.0,0.0,0.0,0.0,0.0,0.0,0.0,0.0,0.0,0.0,0.0,0.0,0.0,0.0,0.0,0.0,0.0,0.0,0.0,0.0,0.0,0.0,0.0,0.0,0.0,0.0,0.0,0.0,0.0,0.0,0.0,0.0,0.0,0.0,0.0,0.0,0.0,0.0,0.0,0.0,0.0,0.0,0.0,0.0,0.0,0.0,0.0,0.0,0.0,0.0,0.0,0.0,0.0,-2.4749,-2.4414,-2.4334,-2.4051,-2.3514,0.0,0.0,0.0,0.0,0.0,0.0,0.0,0.0,0.0,0.0,0.0,0.0,0.0,0.0,0.0,0.0,0.0,0.0,0.0,0.0,0.0,0.0,0.0,0.0,0.0,0.0,0.0,0.0,0.0,0.0,0.0,0.0,0.0,0.0,0.0,0.0,0.0,0.0,0.0,0.0,0.0,0.0,0.0,0.0,0.0,0.0,0.0,0.0,0.0,0.0,0.0,0.0,0.0,0.0,0.0,0.0,0.0,0.0,0.0,0.0,0.0,0.0,0.0,0.0,0.0,0.0,0.0,0.0,0.0,0.0,0.0,0.0,0.0,0.0,0.0,0.0,0.0,0.0,0.0,0.0,0.0,0.0,0.0,0.0,0.0,0.0,0.0,0.0,0.0,0.0,0.0,0.0,0.0,0.0,0.0,0.0,0.0,0.0,0.0,0.0,0.0,0.0,0.0,0.0,0.0,0.0,0.0,0.0,0.0,0.0,0.0,0.0,-2.4152,-2.3988,-2.3688,0.0,0.0,0.0,0.0,0.0,0.0,0.0,0.0,0.0,0.0,0.0,0.0,0.0,0.0,0.0,0.0,0.0,0.0,0.0,0.0,0.0,0.0,0.0,0.0,0.0,0.0,0.0,0.0,0.0,0.0,0.0,0.0,0.0,0.0,0.0,0.0,0.0,0.0,0.0,0.0,0.0,0.0,0.0,0.0,0.0,0.0,0.0,0.0,0.0,0.0,0.0,0.0,0.0,0.0,0.0,0.0,0.0,0.0,0.0,0.0,0.0,0.0,0.0,0.0,0.0,0.0,0.0,0.0,0.0,0.0,0.0,0.0,0.0,0.0,0.0,0.0,0.0,0.0,0.0,0.0,0.0,0.0,0.0,0.0,0.0,0.0,0.0,0.0,0.0,0.0,0.0,0.0,0.0,0.0,0.0,0.0,0.0,0.0,0.0,0.0,0.0,0.0,0.0,0.0,0.0,0.0,0.0,0.0,0.0,0.0,-2.3555,-2.3506,-2.347,0.0,-2.3004,0.0,0.0,0.0,0.0,0.0,0.0,0.0,0.0,0.0,0.0,0.0,0.0,0.0,0.0,0.0,0.0,0.0,0.0,0.0,0.0,0.0,0.0,0.0,0.0,0.0,0.0,0.0,0.0,0.0,0.0,0.0,0.0,0.0,0.0,0.0,0.0,0.0,0.0,0.0,0.0,0.0,0.0,0.0,0.0,0.0,0.0,0.0,0.0,0.0,0.0,0.0,0.0,0.0,0.0,0.0,0.0,0.0,0.0,0.0,0.0,0.0,0.0,0.0,0.0,0.0,0.0,0.0,0.0,0.0,0.0,0.0,0.0,0.0,0.0,0.0,0.0,0.0,0.0,0.0,0.0,0.0,0.0,0.0,0.0,0.0,0.0,0.0,0.0,0.0,0.0,0.0,0.0,0.0,0.0,0.0,0.0,0.0,0.0,0.0,0.0,0.0,0.0,0.0,0.0,0.0,0.0,0.0,0.0,0.0,0.0,-2.2887,-2.2837,-2.3038,-2.2983,0.0,0.0,0.0,0.0,0.0,0.0,0.0,0.0,0.0,0.0,0.0,0.0,0.0,0.0,0.0,0.0,0.0,0.0,0.0,0.0,0.0,0.0,0.0,0.0,0.0,0.0,0.0,0.0,0.0,0.0,0.0,0.0,0.0,0.0,0.0,0.0,0.0,0.0,0.0,0.0,0.0,0.0,0.0,0.0,0.0,0.0,0.0,0.0,0.0,0.0,0.0,0.0,0.0,0.0,0.0,0.0,0.0,0.0,0.0,0.0,0.0,0.0,0.0,0.0,0.0,0.0,0.0,0.0,0.0,0.0,0.0,0.0,0.0,0.0,0.0,0.0,0.0,0.0,0.0,0.0,0.0,0.0,0.0,0.0,0.0,0.0,0.0,0.0,0.0,0.0,0.0,0.0,0.0,0.0,0.0,0.0,0.0,0.0,0.0,0.0,0.0,0.0,0.0,0.0,0.0,0.0,0.0,0.0,0.0,0.0,-2.208,-2.208,-2.2165,-2.2585,-2.2621,-2.2203,0.0,0.0,0.0,0.0,0.0,0.0,0.0,0.0,0.0,0.0,0.0,0.0,0.0,0.0,0.0,0.0,0.0,0.0,0.0,0.0,0.0,0.0,0.0,0.0,0.0,0.0,0.0,0.0,0.0,0.0,0.0,0.0,0.0,0.0,0.0,0.0,0.0,0.0,0.0,0.0,0.0,0.0,0.0,0.0,0.0,0.0,0.0,0.0,0.0,0.0,0.0,0.0,0.0,0.0,0.0,0.0,0.0,0.0,0.0,0.0,0.0,0.0,0.0,0.0,0.0,0.0,0.0,0.0,0.0,0.0,0.0,0.0,0.0,0.0,0.0,0.0,0.0,0.0,0.0,0.0,0.0,0.0,0.0,0.0,0.0,0.0,0.0,0.0,0.0,0.0,0.0,0.0,0.0,0.0,0.0,0.0,0.0,0.0,0.0,0.0,0.0,0.0,0.0,0.0,0.0,0.0,0.0,0.0,-2.0976,-2.0976,-2.1078,-2.1385,-2.2131,-2.2175,0.0,0.0,0.0,0.0,0.0,0.0,0.0,0.0,0.0,0.0,0.0,0.0,0.0,0.0,0.0,0.0,0.0,0.0,0.0,0.0,0.0,0.0,0.0,0.0,0.0,0.0,0.0,0.0,0.0,0.0,0.0,0.0,0.0,0.0,0.0,0.0,0.0,0.0,0.0,0.0,0.0,0.0,0.0,0.0,0.0,0.0,0.0,0.0,0.0,0.0,0.0,0.0,0.0,0.0,0.0,0.0,0.0,0.0,0.0,0.0,0.0,0.0,0.0,0.0,0.0,0.0,0.0,0.0,0.0,0.0,0.0,0.0,0.0,0.0,0.0,0.0,0.0,0.0,0.0,0.0,0.0,0.0,0.0,0.0,0.0,0.0,0.0,0.0,0.0,0.0,0.0,0.0,0.0,0.0,0.0,0.0,0.0,0.0,0.0,0.0,0.0,0.0,0.0,0.0,0.0,0.0,0.0,0.0,0.0,-1.9894,-2.005,-2.0348,-2.0757,-2.1226,-2.1378,0.0,0.0,0.0,0.0,0.0,0.0,0.0,0.0,0.0,0.0,0.0,0.0,0.0,0.0,0.0,0.0,0.0,0.0,0.0,0.0,0.0,0.0,0.0,0.0,0.0,0.0,0.0,0.0,0.0,0.0,0.0,0.0,0.0,0.0,0.0,0.0,0.0,0.0,0.0,0.0,0.0,0.0,0.0,0.0,0.0,0.0,0.0,0.0,0.0,0.0,0.0,0.0,0.0,0.0,0.0,0.0,0.0,0.0,0.0,0.0,0.0,0.0,0.0,0.0,0.0,0.0,0.0,0.0,0.0,0.0,0.0,0.0,0.0,0.0,0.0,0.0,0.0,0.0,0.0,0.0,0.0,0.0,0.0,0.0,0.0,0.0,0.0,0.0,0.0,0.0,0.0,0.0,0.0,0.0,0.0,0.0,0.0,0.0,0.0,0.0,0.0,0.0,0.0,0.0,0.0,0.0,0.0,0.0,0.0,-1.9208,0.0,-1.9849,-2.0098,-2.0518,-2.075,0.0,0.0,0.0,0.0,0.0,0.0,0.0,0.0,0.0,0.0,0.0,0.0,0.0,0.0,0.0,0.0,0.0,0.0,0.0,0.0,0.0,0.0,0.0,0.0,0.0,0.0,0.0,0.0,0.0,0.0,0.0,0.0,0.0,0.0,0.0,0.0,0.0,0.0,0.0,0.0,0.0,0.0,0.0,0.0,0.0,0.0,0.0,0.0,0.0,0.0,0.0,0.0,0.0,0.0,0.0,0.0,0.0,0.0,0.0,0.0,0.0,0.0,0.0,0.0,0.0,0.0,0.0,0.0,0.0,0.0,0.0,0.0,0.0,0.0,0.0,0.0,0.0,0.0,0.0,0.0,0.0,0.0,0.0,0.0,0.0,0.0,0.0,0.0,0.0,0.0,0.0,0.0,0.0,0.0,0.0,0.0,0.0,0.0,0.0,0.0,0.0,0.0,0.0,0.0,0.0,0.0,0.0,0.0,-1.884,-1.8898,-1.941,-1.9588,-1.9356,-2.0059,-2.0306,0.0,0.0,0.0,0.0,0.0,0.0,0.0,0.0,0.0,0.0,0.0,0.0,0.0,0.0,0.0,0.0,0.0,0.0,0.0,0.0,0.0,0.0,0.0,0.0,0.0,0.0,0.0,0.0,0.0,0.0,0.0,0.0,0.0,0.0,0.0,0.0,0.0,0.0,0.0,0.0,0.0,0.0,0.0,0.0,0.0,0.0,0.0,0.0,0.0,0.0,0.0,0.0,0.0,0.0,0.0,0.0,0.0,0.0,0.0,0.0,0.0,0.0,0.0,0.0,0.0,0.0,0.0,0.0,0.0,0.0,0.0,0.0,0.0,0.0,0.0,0.0,0.0,0.0,0.0,0.0,0.0,0.0,0.0,0.0,0.0,0.0,0.0,0.0,0.0,0.0,0.0,0.0,0.0,0.0,0.0,0.0,0.0,0.0,0.0,0.0,0.0,0.0,0.0,0.0,0.0,0.0,0.0,0.0,0.0,-1.8903,-1.9085,-1.9195,-1.9278,-1.9704,-1.9956,0.0,0.0,0.0,0.0,0.0,0.0,0.0,0.0,0.0,0.0,0.0,0.0,0.0,0.0,0.0,0.0,0.0,0.0,0.0,0.0,0.0,0.0,0.0,0.0,0.0,0.0,0.0,0.0,0.0,0.0,0.0,0.0,0.0,0.0,0.0,0.0,0.0,0.0,0.0,0.0,0.0,0.0,0.0,0.0,0.0,0.0,0.0,0.0,0.0,0.0,0.0,0.0,0.0,0.0,0.0,0.0,0.0,0.0,0.0,0.0,0.0,0.0,0.0,0.0,0.0,0.0,0.0,0.0,0.0,0.0,0.0,0.0,0.0,0.0,0.0,0.0,0.0,0.0,0.0,0.0,0.0,0.0,0.0,0.0,0.0,0.0,0.0,0.0,0.0,0.0,0.0,0.0,0.0,0.0,0.0,0.0,0.0,0.0,0.0,0.0,0.0,0.0,0.0,0.0,0.0,0.0,0.0,0.0,0.0,-1.9225,-1.9236,-1.9283,-1.9364,-1.9668,-1.9856,-1.9739,0.0,0.0,0.0,0.0,0.0,0.0,0.0,0.0,0.0,0.0,0.0,0.0,0.0,0.0,0.0,0.0,0.0,0.0,0.0,0.0,0.0,0.0,0.0,0.0,0.0,0.0,0.0,0.0,0.0,0.0,0.0,0.0,0.0,0.0,0.0,0.0,0.0,0.0,0.0,0.0,0.0,0.0,0.0,0.0,0.0,0.0,0.0,0.0,0.0,0.0,0.0,0.0,0.0,0.0,0.0,0.0,0.0,0.0,0.0,0.0,0.0,0.0,0.0,0.0,0.0,0.0,0.0,0.0,0.0,0.0,0.0,0.0,0.0,0.0,0.0,0.0,0.0,0.0,0.0,0.0,0.0,0.0,0.0,0.0,0.0,0.0,0.0,0.0,0.0,0.0,0.0,0.0,0.0,0.0,0.0,0.0,0.0,0.0,0.0,0.0,0.0,0.0,0.0,0.0,0.0,0.0,0.0,0.0,-1.9813,-1.984,-1.9706,-1.9484,-1.9938,-1.9907,0.0,0.0,0.0,0.0,0.0,0.0,0.0,0.0,0.0,0.0,0.0,0.0,0.0,0.0,0.0,0.0,0.0,0.0,0.0,0.0,0.0,0.0,0.0,0.0,0.0,0.0,0.0,0.0,0.0,0.0,0.0,0.0,0.0,0.0,0.0,0.0,0.0,0.0,0.0,0.0,0.0,0.0,0.0,0.0,0.0,0.0,0.0,0.0,0.0,0.0,0.0,0.0,0.0,0.0,0.0,0.0,0.0,0.0,0.0,0.0,0.0,0.0,0.0,0.0,0.0,0.0,0.0,0.0,0.0,0.0,0.0,0.0,0.0,0.0,0.0,0.0,0.0,0.0,0.0,0.0,0.0,0.0,0.0,0.0,0.0,0.0,0.0,0.0,0.0,0.0,0.0,0.0,0.0,0.0,0.0,0.0,0.0,0.0,0.0,0.0,0.0,0.0,0.0,0.0,0.0,0.0,0.0,0.0,0.0,-2.0107,-2.0334,-2.0307,-2.0013,-2.0158,-2.0103,0.0,0.0,0.0,0.0,0.0,0.0,0.0,0.0,0.0,0.0,0.0,0.0,0.0,0.0,0.0,0.0,0.0,0.0,0.0,0.0,0.0,0.0,0.0,0.0,0.0,0.0,0.0,0.0,0.0,0.0,0.0,0.0,0.0,0.0,0.0,0.0,0.0,0.0,0.0,0.0,0.0,0.0,0.0,0.0,0.0,0.0,0.0,0.0,0.0,0.0,0.0,0.0,0.0,0.0,0.0,0.0,0.0,0.0,0.0,0.0,0.0,0.0,0.0,0.0,0.0,0.0,0.0,0.0,0.0,0.0,0.0,0.0,0.0,0.0,0.0,0.0,0.0,0.0,0.0,0.0,0.0,0.0,0.0,0.0,0.0,0.0,0.0,0.0,0.0,0.0,0.0,0.0,0.0,0.0,0.0,0.0,0.0,0.0,0.0,0.0,0.0,0.0,0.0,0.0,0.0,0.0,0.0,0.0,-1.9893,-2.0227,-2.0641,-2.0837,-2.0786,-2.0686,-2.0498,0.0,0.0,0.0,0.0,0.0,0.0,0.0,0.0,0.0,0.0,0.0,0.0,0.0,0.0,0.0,0.0,0.0,0.0,0.0,0.0,0.0,0.0,0.0,0.0,0.0,0.0,0.0,0.0,0.0,0.0,0.0,0.0,0.0,0.0,0.0,0.0,0.0,0.0,0.0,0.0,0.0,0.0,0.0,0.0,0.0,0.0,0.0,0.0,0.0,0.0,0.0,0.0,0.0,0.0,0.0,0.0,0.0,0.0,0.0,0.0,0.0,0.0,0.0,0.0,0.0,0.0,0.0,0.0,0.0,0.0,0.0,0.0,0.0,0.0,0.0,0.0,0.0,0.0,0.0,0.0,0.0,0.0,0.0,0.0,0.0,0.0,0.0,0.0,0.0,0.0,0.0,0.0,0.0,0.0,0.0,0.0,0.0,0.0,0.0,0.0,0.0,0.0,0.0,0.0,0.0,0.0,0.0,0.0,-2.0241,-2.0281,-2.0828,-2.1235,-2.1587,-2.1332,-2.0906,0.0,0.0,0.0,0.0,0.0,0.0,0.0,0.0,0.0,0.0,0.0,0.0,0.0,0.0,0.0,0.0,0.0,0.0,0.0,0.0,0.0,0.0,0.0,0.0,0.0,0.0,0.0,0.0,0.0,0.0,0.0,0.0,0.0,0.0,0.0,0.0,0.0,0.0,0.0,0.0,0.0,0.0,0.0,0.0,0.0,0.0,0.0,0.0,0.0,0.0,0.0,0.0,0.0,0.0,0.0,0.0,0.0,0.0,0.0,0.0,0.0,0.0,0.0,0.0,0.0,0.0,0.0,0.0,0.0,0.0,0.0,0.0,0.0,0.0,0.0,0.0,0.0,0.0,0.0,0.0,0.0,0.0,0.0,0.0,0.0,0.0,0.0,0.0,0.0,0.0,0.0,0.0,0.0,0.0,0.0,0.0,0.0,0.0,0.0,0.0,0.0,0.0,0.0,0.0,0.0,0.0,0.0,0.0,-2.0347,-2.0588,-2.0922,-2.1235,-2.1614,-2.1332,-2.1222,0.0,0.0,0.0,0.0,0.0,0.0,0.0,0.0,0.0,0.0,0.0,0.0,0.0,0.0,0.0,0.0,0.0,0.0,0.0,0.0,0.0,0.0,0.0,0.0,0.0,0.0,0.0,0.0,0.0,0.0,0.0,0.0,0.0,0.0,0.0,0.0,0.0,0.0,0.0,0.0,0.0,0.0,0.0,0.0,0.0,0.0,0.0,0.0,-2.8626,0.0,0.0,0.0,0.0,0.0,0.0,0.0,0.0,0.0,0.0,0.0,0.0,0.0,0.0,0.0,0.0,0.0,0.0,0.0,0.0,0.0,0.0,0.0,0.0,0.0,0.0,0.0,0.0,0.0,0.0,0.0,0.0,0.0,0.0,0.0,0.0,0.0,0.0,0.0,0.0,0.0,0.0,0.0,0.0,0.0,0.0,0.0,0.0,0.0,0.0,0.0,0.0,0.0,0.0,0.0,0.0,0.0,0.0,0.0,-2.0374,-2.0668,-2.0962,-2.1362,-2.1776,-2.1455,-2.1458,0.0,0.0,0.0,0.0,0.0,0.0,0.0,0.0,0.0,0.0,0.0,0.0,0.0,0.0,0.0,0.0,0.0,0.0,0.0,0.0,0.0,0.0,0.0,0.0,0.0,0.0,0.0,0.0,0.0,0.0,0.0,0.0,0.0,0.0,0.0,0.0,0.0,0.0,0.0,0.0,0.0,0.0,0.0,0.0,0.0,0.0,0.0,0.0,0.0,0.0,0.0,0.0,0.0,0.0,0.0,0.0,0.0,0.0,0.0,0.0,0.0,0.0,0.0,0.0,0.0,0.0,0.0,0.0,0.0,0.0,0.0,0.0,0.0,0.0,0.0,0.0,0.0,0.0,0.0,0.0,0.0,0.0,0.0,0.0,0.0,0.0,0.0,0.0,0.0,0.0,0.0,0.0,0.0,0.0,0.0,0.0,0.0,0.0,0.0,0.0,0.0,0.0,0.0,0.0,0.0,0.0,0.0,-2.0272,-2.0401,-2.0735,-2.0975,-2.1425,-2.1964,-2.1516,-2.1665,-2.2506,0.0,0.0,0.0,0.0,0.0,0.0,0.0,0.0,0.0,0.0,0.0,0.0,0.0,0.0,0.0,0.0,0.0,0.0,0.0,0.0,0.0,0.0,0.0,0.0,0.0,0.0,0.0,0.0,0.0,0.0,0.0,0.0,0.0,0.0,0.0,0.0,0.0,0.0,-2.7285,-2.8359,0.0,0.0,0.0,0.0,0.0,0.0,0.0,0.0,-2.9726,0.0,0.0,0.0,0.0,0.0,0.0,0.0,0.0,0.0,0.0,0.0,0.0,0.0,0.0,0.0,0.0,0.0,0.0,0.0,0.0,0.0,0.0,0.0,0.0,0.0,0.0,0.0,0.0,0.0,0.0,0.0,0.0,0.0,0.0,0.0,0.0,0.0,0.0,0.0,0.0,0.0,0.0,0.0,0.0,0.0,0.0,0.0,0.0,0.0,0.0,0.0,0.0,0.0,0.0,0.0,0.0,-2.1026,-2.0489,-2.0433,-2.1015,-2.1082,-2.1299,-2.165,-2.1563,-2.2006,-2.2809,0.0,0.0,0.0,0.0,0.0,0.0,0.0,0.0,0.0,0.0,0.0,0.0,0.0,0.0,0.0,0.0,0.0,0.0,0.0,0.0,0.0,0.0,0.0,0.0,0.0,0.0,0.0,0.0,0.0,0.0,0.0,0.0,0.0,0.0,0.0,0.0,0.0,0.0,0.0,-2.9394,-3.0019,0.0,0.0,0.0,0.0,0.0,0.0,0.0,0.0,-3.0527,0.0,0.0,0.0,0.0,0.0,0.0,0.0,0.0,0.0,0.0,0.0,0.0,0.0,0.0,0.0,0.0,0.0,0.0,0.0,0.0,0.0,0.0,0.0,0.0,0.0,0.0,0.0,0.0,0.0,0.0,0.0,0.0,0.0,0.0,0.0,0.0,0.0,0.0,0.0,0.0,0.0,0.0,0.0,0.0,0.0,0.0,0.0,0.0,0.0,0.0,0.0,0.0,0.0,0.0,0.0,-2.081,-2.047,-2.0521,-2.1082,-2.1109,-2.1218,-2.1382,-2.1357,-2.1768,0.0,0.0,0.0,0.0,0.0,0.0,0.0,0.0,0.0,0.0,0.0,0.0,0.0,0.0,0.0,0.0,0.0,0.0,0.0,0.0,0.0,0.0,0.0,0.0,0.0,0.0,0.0,0.0,0.0,0.0,0.0,0.0,0.0,0.0,0.0,0.0,0.0,0.0,0.0,0.0,-3.0,-3.0566,-3.0547,0.0,0.0,0.0,0.0,0.0,0.0,-3.0742,-3.082,0.0,0.0,0.0,0.0,0.0,0.0,0.0,0.0,0.0,0.0,0.0,0.0,0.0,0.0,0.0,0.0,0.0,0.0,0.0,0.0,0.0,0.0,0.0,0.0,0.0,0.0,0.0,0.0,0.0,0.0,0.0,0.0,0.0,0.0,0.0,0.0,0.0,0.0,0.0,0.0,0.0,0.0,0.0,0.0,0.0,0.0,0.0,0.0,0.0,0.0,0.0,0.0,0.0,0.0,0.0,-2.0493,-2.0295,-2.042,-2.1002,-2.1029,-2.1061,-2.1197,-2.1083,-2.127,0.0,0.0,0.0,0.0,0.0,0.0,0.0,0.0,0.0,0.0,0.0,0.0,0.0,0.0,0.0,0.0,0.0,0.0,0.0,0.0,0.0,0.0,0.0,0.0,0.0,0.0,0.0,0.0,0.0,0.0,0.0,0.0,0.0,0.0,0.0,0.0,0.0,0.0,0.0,0.0,0.0,-3.1016,-3.0898,-3.1268,0.0,0.0,0.0,0.0,-3.0723,-3.0762,0.0,0.0,0.0,0.0,0.0,0.0,0.0,0.0,0.0,0.0,0.0,0.0,0.0,0.0,0.0,0.0,0.0,0.0,0.0,0.0,0.0,0.0,0.0,0.0,0.0,0.0,0.0,0.0,0.0,0.0,0.0,0.0,0.0,0.0,0.0,0.0,0.0,0.0,0.0,0.0,0.0,0.0,0.0,0.0,0.0,0.0,0.0,0.0,0.0,0.0,0.0,0.0,0.0,0.0,0.0,0.0,-1.9904,-2.0093,-2.0401,-2.0708,-2.0735,-2.0828,-2.1092,-2.0612,-2.0596,0.0,0.0,0.0,0.0,0.0,0.0,0.0,0.0,0.0,0.0,0.0,0.0,0.0,0.0,0.0,0.0,0.0,0.0,0.0,0.0,0.0,0.0,0.0,0.0,0.0,0.0,0.0,0.0,0.0,0.0,0.0,0.0,0.0,0.0,0.0,0.0,0.0,0.0,0.0,0.0,0.0,-3.1326,-3.1028,-3.1334,-3.137,0.0,0.0,-3.0398,-3.0038,-3.0274,0.0,0.0,0.0,0.0,0.0,0.0,0.0,0.0,0.0,0.0,0.0,0.0,0.0,0.0,0.0,0.0,0.0,0.0,0.0,0.0,0.0,0.0,0.0,0.0,0.0,0.0,0.0,0.0,0.0,0.0,0.0,0.0,0.0,0.0,0.0,0.0,0.0,0.0,0.0,0.0,0.0,0.0,0.0,0.0,0.0,0.0,0.0,0.0,0.0,0.0,0.0,0.0,0.0,0.0,0.0,-1.9207,-1.9577,-1.9832,-2.0134,-2.0414,-2.0428,-2.0481,-2.0601,-2.0365,-2.045,0.0,0.0,0.0,0.0,0.0,0.0,0.0,0.0,0.0,0.0,0.0,0.0,0.0,0.0,0.0,0.0,0.0,0.0,0.0,0.0,0.0,0.0,0.0,0.0,0.0,0.0,0.0,0.0,0.0,0.0,0.0,0.0,0.0,0.0,0.0,0.0,0.0,0.0,0.0,0.0,0.0,0.0,-3.1084,-3.1421,0.0,0.0,0.0,-3.0789,-3.06,0.0,0.0,0.0,0.0,0.0,0.0,0.0,0.0,0.0,0.0,0.0,0.0,0.0,0.0,0.0,0.0,0.0,0.0,0.0,0.0,0.0,0.0,0.0,0.0,0.0,0.0,0.0,0.0,0.0,0.0,0.0,0.0,0.0,0.0,0.0,0.0,0.0,0.0,0.0,0.0,0.0,0.0,0.0,0.0,0.0,0.0,0.0,0.0,0.0,0.0,0.0,0.0,0.0,0.0,0.0,0.0,0.0,-1.9202,-1.9506,-1.9826,-2.0107,-2.012,-2.0201,-2.0321,-2.0069,0.0,0.0,0.0,0.0,0.0,0.0,0.0,0.0,0.0,0.0,0.0,0.0,0.0,0.0,0.0,0.0,0.0,0.0,0.0,0.0,0.0,0.0,0.0,0.0,0.0,0.0,0.0,-2.3984,0.0,0.0,0.0,0.0,0.0,0.0,0.0,0.0,0.0,0.0,0.0,0.0,0.0,0.0,-3.1424,-3.0997,-3.1437,-3.1628,0.0,0.0,-3.0996,-3.0883,-3.0864,-3.0856,0.0,0.0,0.0,0.0,0.0,0.0,0.0,0.0,0.0,0.0,0.0,0.0,0.0,0.0,0.0,0.0,0.0,0.0,0.0,0.0,0.0,0.0,0.0,0.0,0.0,0.0,0.0,0.0,0.0,0.0,0.0,0.0,0.0,0.0,0.0,0.0,0.0,0.0,0.0,0.0,0.0,0.0,0.0,0.0,0.0,0.0,0.0,0.0,0.0,0.0,0.0,0.0,0.0,0.0,-1.8564,-1.8557,-1.9105,-1.9533,-1.9813,-1.9826,-2.0094,-2.0663,-1.9581,-1.9387,0.0,0.0,0.0,0.0,0.0,0.0,0.0,0.0,0.0,0.0,0.0,0.0,0.0,0.0,0.0,0.0,0.0,0.0,0.0,0.0,0.0,0.0,0.0,0.0,0.0,0.0,0.0,0.0,0.0,0.0,0.0,0.0,0.0,0.0,0.0,0.0,0.0,0.0,0.0,0.0,0.0,-3.1417,-3.0827,-3.1414,-3.166,0.0,-3.0817,-3.0688,-3.0321,-3.0185,-3.0162,-3.0158,0.0,0.0,0.0,0.0,0.0,0.0,0.0,0.0,0.0,0.0,0.0,0.0,0.0,0.0,0.0,0.0,0.0,0.0,0.0,0.0,0.0,0.0,0.0,0.0,0.0,0.0,0.0,0.0,0.0,0.0,0.0,0.0,0.0,0.0,0.0,0.0,0.0,0.0,0.0,0.0,0.0,0.0,0.0,0.0,0.0,0.0,0.0,0.0,0.0,0.0,0.0,0.0,0.0,-1.8306,-1.849,-1.8891,-1.9239,-1.9578,-1.9533,-1.972,-2.0134,-1.9354,-1.9133,0.0,0.0,0.0,0.0,0.0,0.0,0.0,0.0,0.0,0.0,0.0,0.0,0.0,0.0,0.0,0.0,0.0,0.0,0.0,0.0,0.0,0.0,0.0,0.0,0.0,0.0,0.0,0.0,-2.5312,-2.5547,-2.5674,0.0,0.0,0.0,0.0,0.0,0.0,0.0,0.0,0.0,0.0,-3.0705,-3.0723,-3.1072,0.0,0.0,-3.0709,-3.0416,-2.9981,-2.9899,-2.9821,-2.9574,-2.9234,0.0,0.0,0.0,0.0,0.0,0.0,0.0,0.0,0.0,0.0,0.0,0.0,0.0,0.0,0.0,0.0,0.0,0.0,0.0,0.0,0.0,0.0,0.0,0.0,0.0,0.0,0.0,0.0,0.0,0.0,0.0,0.0,0.0,0.0,0.0,0.0,0.0,0.0,0.0,0.0,0.0,0.0,0.0,0.0,0.0,0.0,0.0,0.0,0.0,0.0,0.0,0.0,-1.8103,-1.8477,-1.8691,-1.8985,-1.9359,-1.943,-1.9506,-1.9773,-1.9225,-1.9031,0.0,0.0,0.0,0.0,0.0,0.0,0.0,0.0,0.0,0.0,0.0,0.0,0.0,0.0,0.0,0.0,0.0,0.0,0.0,0.0,0.0,0.0,0.0,0.0,0.0,0.0,0.0,0.0,-2.5547,-2.5674,-2.5674,0.0,0.0,0.0,0.0,0.0,0.0,0.0,0.0,0.0,0.0,-3.018,-3.0334,-3.0502,-3.0538,-3.0538,-3.0296,-2.997,-2.9691,-2.9495,-2.9227,-2.8931,0.0,0.0,0.0,0.0,0.0,0.0,0.0,0.0,0.0,0.0,0.0,0.0,0.0,0.0,0.0,0.0,0.0,0.0,0.0,0.0,0.0,0.0,0.0,0.0,0.0,0.0,0.0,0.0,0.0,0.0,-2.0513,0.0,0.0,0.0,0.0,0.0,0.0,0.0,0.0,0.0,0.0,0.0,0.0,0.0,0.0,0.0,0.0,0.0,0.0,0.0,0.0,0.0,0.0,-1.7889,-1.849,-1.8517,-1.8784,-1.9403,-1.943,-1.9506,-1.976,-1.9225,-1.9031,-1.9273,0.0,0.0,0.0,0.0,0.0,0.0,0.0,0.0,0.0,0.0,0.0,0.0,0.0,0.0,0.0,0.0,0.0,0.0,0.0,0.0,0.0,0.0,0.0,0.0,0.0,0.0,-2.5703,-2.5693,-2.5693,0.0,0.0,0.0,0.0,0.0,0.0,0.0,0.0,0.0,0.0,-2.9578,-2.9981,-2.9751,-2.9782,-2.9805,-2.9822,-2.9495,-2.9316,-2.925,-2.8708,-2.8262,0.0,0.0,0.0,0.0,0.0,0.0,0.0,0.0,0.0,0.0,0.0,0.0,0.0,0.0,0.0,0.0,0.0,0.0,0.0,0.0,0.0,0.0,0.0,0.0,0.0,0.0,0.0,-2.3009,-2.2877,0.0,0.0,0.0,0.0,0.0,0.0,0.0,0.0,0.0,0.0,0.0,-1.9925,-1.992,0.0,0.0,0.0,0.0,0.0,0.0,0.0,0.0,0.0,0.0,0.0,0.0,-1.7983,-1.8731,-1.8597,-1.8771,-1.9403,-1.943,-1.9412,-1.9506,-1.9132,-1.8955,-1.9042,0.0,0.0,0.0,0.0,0.0,0.0,0.0,0.0,0.0,0.0,0.0,0.0,0.0,0.0,0.0,0.0,0.0,0.0,0.0,0.0,0.0,0.0,0.0,0.0,0.0,-2.5674,0.0,0.0,0.0,0.0,0.0,0.0,0.0,0.0,0.0,0.0,0.0,-2.8595,-2.8858,-2.8799,-2.8915,-2.9302,-2.9232,-2.9036,0.0,0.0,0.0,0.0,0.0,0.0,0.0,0.0,0.0,0.0,0.0,0.0,0.0,0.0,-2.649,-2.7356,-2.8044,-2.8613,-2.9095,0.0,0.0,0.0,0.0,0.0,0.0,0.0,0.0,0.0,0.0,0.0,0.0,0.0,0.0,-2.3113,0.0,-2.2654,0.0,0.0,0.0,0.0,0.0,0.0,0.0,0.0,-2.0551,-2.0438,-2.036,-2.0244,-2.0183,0.0,-1.9924,-1.9545,0.0,0.0,0.0,0.0,0.0,0.0,0.0,0.0,-1.7983,-1.8731,-1.8584,-1.8771,-1.939,-1.943,-1.943,-1.9417,-1.8985,-1.8807,-1.8904,-1.8844,-1.9148,0.0,0.0,0.0,0.0,0.0,0.0,0.0,0.0,0.0,0.0,0.0,0.0,0.0,0.0,0.0,0.0,0.0,0.0,0.0,0.0,0.0,0.0,0.0,-2.5752,0.0,0.0,0.0,0.0,0.0,0.0,0.0,0.0,0.0,-2.8287,-2.8389,-2.8542,-2.8727,-2.8491,-2.8392,-2.8601,0.0,0.0,0.0,0.0,0.0,0.0,0.0,-2.551,-2.5255,-2.4815,-2.4429,-2.4314,-2.4228,-2.4188,-2.4325,0.0,0.0,-2.6859,-2.7809,-2.8626,-2.9235,-2.9546,-2.9813,-3.0142,-3.0204,-3.0204,0.0,0.0,0.0,0.0,0.0,0.0,0.0,0.0,-2.267,-2.3073,0.0,-2.2983,0.0,0.0,0.0,0.0,0.0,-2.1656,0.0,0.0,-2.0688,-2.0482,-2.0783,-2.0485,-2.0281,-2.0267,-2.0022,-1.9733,-1.9401,-1.8863,0.0,0.0,0.0,0.0,0.0,0.0,-1.7889,-1.849,-1.8517,-1.8784,-1.9403,-1.943,-1.943,-1.9403,-1.8798,-1.8657,-1.8892,-1.8851,-1.9148,-1.9865,-2.0916,0.0,0.0,0.0,0.0,0.0,0.0,0.0,0.0,0.0,0.0,0.0,0.0,0.0,0.0,0.0,0.0,0.0,0.0,0.0,0.0,-2.5713,0.0,0.0,0.0,0.0,0.0,0.0,0.0,0.0,0.0,0.0,-2.9278,-2.909,-2.8781,-2.8605,0.0,0.0,0.0,0.0,-2.6934,-2.6167,-2.5779,-2.5457,-2.5037,-2.4699,-2.4495,-2.4495,0.0,0.0,-2.3046,-2.3242,-2.3619,-2.3912,-2.4576,-2.5272,-2.599,-2.7222,-2.8237,-2.8741,-2.9324,-2.9868,-3.0178,-3.0332,-3.0296,-2.0325,0.0,0.0,0.0,0.0,-2.0966,-2.1446,-2.1931,-2.2507,-2.303,-2.3458,-2.3149,0.0,0.0,0.0,0.0,0.0,0.0,-2.284,-2.2719,-2.25,-2.2391,-2.2284,-2.2038,-2.177,-2.1545,-2.1038,-2.0527,-2.0059,-1.9862,-1.9278,-1.84,0.0,0.0,0.0,0.0,-1.821,-1.8758,-1.8798,-1.8985,-1.9417,-1.943,-1.943,-1.9417,-1.8798,-1.8546,-1.8588,-1.8744,-1.9095,-1.9743,-2.1047,0.0,0.0,0.0,0.0,0.0,0.0,0.0,0.0,0.0,0.0,0.0,0.0,0.0,0.0,0.0,0.0,0.0,0.0,0.0,-2.6172,-2.6191,-2.6387,0.0,0.0,0.0,0.0,0.0,0.0,0.0,0.0,0.0,-2.9852,-2.9402,-2.9062,0.0,0.0,-2.78,-2.734,-2.7055,-2.645,-2.5442,-2.524,0.0,-2.4374,-2.3952,-2.3747,-2.3747,-2.3338,-2.3039,-2.2957,-2.3025,-2.3188,-2.3565,-2.416,-2.4876,-2.5671,-2.7096,-2.8454,-2.9297,-2.9877,-3.0409,-3.092,-3.1047,-3.1047,-2.0283,-2.0114,-2.0114,-2.0189,-2.0377,-2.0719,-2.1124,-2.1565,-2.2023,-2.2576,-2.3183,-2.3166,-2.341,-2.3868,-2.3919,0.0,0.0,0.0,-2.3686,-2.362,-2.3424,-2.3316,-2.3298,-2.3007,-2.2724,-2.2286,-2.1831,-2.1329,-2.0783,-2.0727,-2.0287,-1.9542,0.0,0.0,-1.9016,-1.8577,-1.8616,-1.9061,-1.8975,-1.9065,-1.9359,-1.943,-1.9319,-1.9185,-1.8744,-1.8437,-1.8317,-1.8635,-1.9138,-1.9828,-2.1293,-2.2267,0.0,0.0,0.0,0.0,0.0,0.0,0.0,0.0,0.0,0.0,0.0,-2.5674,-2.5674,0.0,0.0,0.0,-2.5849,-2.6094,-2.6367,-2.6543,0.0,0.0,0.0,0.0,0.0,0.0,0.0,-2.9393,-2.956,-2.9867,-3.0272,-2.989,-2.9511,-2.9258,-2.8483,-2.7687,-2.7102,0.0,-2.5861,-2.4766,-2.4495,-2.4156,-2.3679,-2.3338,-2.3201,-2.3201,-2.3065,-2.2928,-2.2859,-2.2859,-2.2996,-2.3406,-2.402,-2.4713,-2.5457,-2.6934,-2.8378,-2.9364,-3.0035,-3.062,-3.1249,-3.1377,-3.1377,-2.0574,-2.0311,-2.0256,-2.0457,-2.0647,-2.0659,-2.0813,-2.1139,-2.1426,-2.1967,-2.2704,-2.3008,-2.3682,-2.4561,-2.5154,0.0,-2.4562,-2.4298,-2.4225,-2.4282,-2.3846,-2.3794,-2.4039,-2.376,-2.3271,-2.2796,-2.24,-2.2044,-2.1702,-2.1517,-2.1402,-2.1388,-2.0644,-2.0132,-1.9938,-1.9333,-1.9139,-1.9484,-1.9172,-1.9149,-1.9417,-1.943,-1.9283,-1.8988,-1.8693,-1.8398,-1.8104,-1.859,-1.9242,-2.0138,-2.1658,-2.2713,-2.3111,0.0,0.0,0.0,0.0,0.0,0.0,0.0,0.0,0.0,0.0,0.0,0.0,0.0,0.0,0.0,-2.6191,0.0,-2.6484,-2.6855,0.0,0.0,0.0,-2.8555,-2.8871,-2.9022,-2.9317,-2.9846,0.0,0.0,-3.0707,-3.0511,-3.0084,-2.9363,-2.8768,-2.7932,-2.6851,-2.613,-2.5255,-2.4238,-2.3679,-2.3338,-2.3065,-2.2928,-2.2928,-2.2928,-2.2859,-2.2859,-2.2859,-2.2859,-2.2996,-2.3338,-2.402,-2.4713,-2.5472,-2.6784,-2.8048,-2.9102,-2.9905,-3.062,-3.1249,-3.1377,-3.1377,-2.1042,-2.0984,-2.0969,-2.0735,-2.0369,-2.0586,-2.0881,-2.1188,-2.1541,-2.1942,-2.2464,-2.2846,-2.3547,-2.4508,-2.5102,-2.5318,-2.5236,-2.5183,-2.5236,-2.5318,-2.5445,-2.548,-2.5569,-2.5276,-2.4834,-2.4223,-2.372,-2.3175,-2.2667,-2.3046,-2.3255,-2.3255,-2.3039,-2.2165,-2.0533,-2.0143,-2.0004,-2.0089,-1.9761,-1.9625,-1.9693,-1.9996,-1.9958,-1.9597,-1.9348,-1.9042,-1.8683,-1.9223,-1.9776,-2.038,-2.1962,-2.3012,-2.3372,-2.4126,0.0,0.0,0.0,0.0,0.0,0.0,0.0,0.0,0.0,-2.5674,-2.5674,0.0,-2.5879,0.0,-2.6621,-2.6992,-2.7324,-2.7734,0.0,0.0,-2.9004,-2.9205,-2.908,-2.941,-2.9584,-2.9512,-3.0069,-3.0501,-3.078,-3.0811,-3.0624,-3.0154,-2.9248,-2.818,-2.6918,-2.6331,-2.5524,-2.4306,-2.3952,-2.3611,-2.3065,-2.2859,-2.2928,-2.2859,-2.2859,-2.2859,-2.2859,-2.2859,-2.301,-2.3338,-2.402,-2.4699,-2.5457,-2.6718,-2.8031,-2.9053,-2.9905,-3.0555,-3.1249,-3.1377,-3.1377,-2.1203,-2.1203,-2.1203,-2.0998,-2.0676,-2.0867,-2.1053,-2.1237,-2.1415,-2.1783,-2.2314,-2.3314,-2.435,-2.545,-2.5894,-2.6129,-2.6171,-2.6171,-2.619,-2.6282,-2.6445,-2.65,-2.65,-2.6336,-2.5898,-2.5238,-2.4834,-2.439,-2.3848,-2.4111,-2.4334,-2.4278,-2.4278,-2.3677,-2.2386,-2.153,-2.1095,-2.1095,-2.063,-2.0385,-2.0213,-2.05,-2.0459,-2.0016,-1.983,-1.9531,-1.9074,-1.9621,-2.0138,-2.0688,-2.2114,-2.3182,-2.3755,-2.4382,-2.4697,0.0,0.0,0.0,0.0,0.0,0.0,0.0,0.0,0.0,0.0,0.0,-2.6211,-2.6641,-2.6948,-2.7253,-2.7699,-2.7999,-2.8369,-2.8718,-2.9217,-2.9411,-2.9184,-2.945,-2.9749,-2.9934,-3.0278,-3.0593,-3.1038,-3.1121,-3.0944,-3.0508,-2.9578,-2.8576,-2.7384,-2.6465,-2.5524,-2.4645,-2.417,-2.3898,-2.3406,-2.3406,-2.3406,-2.3406,-2.327,-2.3133,-2.3133,-2.2996,-2.2996,-2.3338,-2.402,-2.4766,-2.5644,-2.6985,-2.8246,-2.9299,-3.01,-3.075,-3.1313,-3.1377,-3.1377,-2.1203,-2.1203,-2.1203,-2.1203,-2.1203,-2.1203,-2.1203,-2.1203,-2.1203,-2.1603,-2.2384,-2.4111,-2.5551,-2.6609,-2.6935,-2.7043,-2.7043,-2.7043,-2.7043,-2.7043,-2.7098,-2.7152,-2.7098,-2.7098,-2.6663,-2.5898,-2.5844,-2.5514,-2.4944,-2.4962,-2.4962,-2.4944,-2.4944,-2.4851,-2.4535,-2.3175,-2.2384,-2.2116,-2.1588,-2.1174,-2.0888,-2.1231,-2.1092,-2.0485,-2.0456,-2.0145,-1.9576,-1.9983,-2.0498,-2.1027,-2.2232,-2.322,-2.4016,-2.4503,-2.4842,0.0,-2.4805,0.0,0.0,0.0,0.0,0.0,0.0,0.0,0.0,-2.622,-2.6688,-2.7026,-2.7193,-2.7439,-2.7879,-2.8081,-2.8294,-2.8672,-2.9088,-2.9334,-2.9353,-2.9421,-2.9766,-3.0525,-3.0371,-3.0497,-3.1249,-3.1377,-3.112,-3.0555,-2.9839,-2.9036,-2.7981,-2.6718,-2.5659,-2.5172,-2.4578,-2.4156,-2.4156,-2.417,-2.4088,-2.4102,-2.3816,-2.3543,-2.3543,-2.327,-2.3201,-2.3611,-2.4224,-2.5037,-2.6048,-2.7384,-2.8576,-2.9609,-3.0343,-3.1009,-3.1313,-3.1377,-3.1377,-2.1203,-2.1203,-2.1203,-2.1203,-2.1203,-2.1203,-2.1203,-2.1203,-2.1203,-2.193,-2.3255,-2.4834,-2.5898,-2.6609,-2.7098,-2.7314,-2.7314,-2.7314,-2.7314,-2.7314,-2.7584,-2.7745,-2.7745,-2.7745,-2.7368,-2.6772,-2.6554,-2.6118,-2.5514,-2.5734,-2.5844,-2.5844,-2.5844,-2.5861,-2.5734,0.0,0.0,0.0,-2.1987,-2.1873,-2.1816,-2.2173,-2.2116,-2.1665,-2.1634,0.0,-2.0664,-2.0909,-2.1216,-2.1573,-2.2434,0.0,0.0,0.0,0.0,0.0,0.0,0.0,0.0,0.0,0.0,0.0,-2.6361,-2.6369,-2.6278,-2.6749,-2.7108,-2.7317,-2.7628,-2.8026,-2.8407,-2.8823,-2.9107,-2.9145,-2.9562,-2.9691,-2.9514,-2.9453,-2.9707,-3.0217,-3.0266,-3.0497,-3.1231,-3.1377,-3.1249,-3.0815,-3.0148,-2.9561,-2.9036,-2.7517,-2.6264,-2.5592,-2.5119,-2.4834,-2.4849,-2.4781,-2.4834,-2.4766,-2.4495,-2.4292,-2.4306,-2.402,-2.4034,-2.4563,-2.5119,-2.5727,-2.68,-2.7915,-2.8971,-2.9691,-3.0408,-3.1009,-3.1313,-3.1377,-3.1377,-2.1686,0.0,-2.1686,-2.1686,0.0,-2.1847,-2.1964,-2.1891,-2.1565,-2.2328,-2.3927,-2.511,-2.6172,-2.7043,-2.7476,-2.7691,-2.7853,-2.7853,-2.7853,-2.7872,-2.8014,-2.8067,-2.8067,-2.8067,-2.7799,-2.7206,-2.7043,-2.6718,-2.619,-2.63,-2.6354,-2.6354,-2.6354,-2.6245,-2.6063,-2.5514,-2.4445,-2.299,-2.3271,-2.3287,-2.299,-2.3456,-2.3529,-2.3166,-2.2914,0.0,0.0,0.0,0.0,0.0,0.0,0.0,0.0,0.0,0.0,-2.5284,-2.579,-2.6005,-2.5808,-2.6245,-2.6447,-2.6244,-2.6525,-2.6678,-2.6622,-2.7022,-2.745,-2.7687,-2.7938,-2.8239,-2.8652,-2.878,-2.8928,-2.9133,-2.9338,-2.939,-2.9272,-2.9272,-2.9485,-3.01,-3.0204,-3.0497,-3.1267,-3.1377,-3.1249,-3.0944,-3.0408,-2.9952,-2.9495,-2.818,-2.6918,-2.6264,-2.5996,-2.5794,-2.5592,-2.5524,-2.5524,-2.5524,-2.5255,-2.5052,-2.5052,-2.4713,-2.4699,-2.5375,-2.5846,-2.645,-2.7716,-2.8708,-2.9478,-3.0213,-3.0797,-3.1184,-3.1377,-3.1377,-3.1377,-2.2184,-2.2184,-2.2303,-2.2303,-2.2303,-2.2692,-2.2989,-2.3121,0.0,0.0,0.0,-2.5602,-2.6573,-2.7422,-2.7799,-2.8067,-2.8301,-2.8301,-2.832,-2.8398,-2.8398,-2.8437,-2.8516,-2.8437,-2.813,-2.759,-2.746,-2.7171,-2.67,-2.6646,-2.6591,-2.6591,-2.6591,-2.6464,-2.619,-2.5679,-2.5055,-2.4334,-2.4612,-2.4612,-2.4167,-2.4612,-2.4717,-2.4481,-2.4153,-2.3738,-2.3393,-2.2979,-2.2891,-2.3092,-2.3273,-2.3587,-2.4035,-2.4529,-2.4979,-2.5252,-2.5875,-2.6156,-2.5963,-2.6366,-2.6531,-2.6295,-2.6616,-2.6861,-2.6937,-2.7239,-2.7635,-2.8051,-2.8201,-2.8384,-2.8774,-2.8655,-2.8627,-2.8957,-2.8975,-2.8975,-2.8975,-2.8975,-2.9305,-3.002,-3.0204,-3.0497,-3.1249,-3.1377,-3.1313,-3.1009,-3.0685,-3.0213,-2.9739,-2.8708,-2.7716,-2.7251,-2.7067,-2.6867,-2.6599,-2.6532,-2.6481,-2.6398,-2.613,-2.5861,-2.5727,-2.5524,-2.5577,-2.6301,-2.6635,-2.7451,-2.8708,-2.943,-3.0083,-3.075,-3.1184,-3.1377,-3.1377,-3.1377,-3.1377,-2.2184,-2.2244,-2.2528,-2.2632,-2.2692,-2.3227,-2.398,-2.4743,-2.4587,-2.4779,-2.5275,-2.6716,-2.738,-2.7422,-2.7979,-2.8228,-2.8301,-2.8301,-2.8476,-2.8828,-2.8828,-2.9023,-2.9355,-2.9004,-2.8684,-2.8336,-2.772,-2.726,-2.6954,-2.67,-2.6591,-2.6591,-2.6591,-2.6591,-2.6537,-2.6409,-2.619,-2.5789,-2.5165,-2.4889,-2.5,-2.511,-2.5101,-2.4967,-2.4951,-2.4739,-2.4403,-2.4013,-2.3819,-2.387,-2.3785,-2.3805,-2.3854,-2.4301,-2.4728,-2.5114,-2.5459,-2.5768,-2.6026,-2.6494,-2.682,-2.6892,-2.6931,-2.7118,-2.7473,-2.7548,-2.7809,-2.8286,-2.8376,-2.852,-2.8888,-2.8943,-2.8902,-2.8975,-2.8975,-2.8975,-2.8993,-2.9012,-2.9305,-3.0094,-3.0204,-3.0516,-3.1212,-3.1377,-3.1377,-3.1313,-3.0991,-3.0602,-2.9952,-2.9151,-2.8642,-2.851,-2.8263,-2.8064,-2.7932,-2.7998,-2.7799,-2.7517,-2.72,-2.6867,-2.6599,-2.6532,-2.6718,-2.7368,-2.7783,-2.8444,-2.9478,-2.9952,-3.0426,-3.0879,-3.1184,-3.1377,-3.1377,-3.1377,-3.1377,-2.2804,-2.2987,-2.3353,-2.3642,-2.4051,-2.4852,-2.5751,-2.6643,-2.6821,-2.6726,-2.6526,-2.749,-2.8051,-2.8325,-2.882,-2.8984,-2.8984,-2.9039,-2.9082,-2.9258,-2.9277,-2.9375,-2.9607,-2.9375,-2.9111,-2.8759,-2.8365,-2.7938,-2.7642,-2.7179,-2.6903,-2.6885,-2.6701,-2.6591,-2.6591,-2.6591,-2.6518,-2.6354,-2.5971,-2.5734,-2.5679,-2.5844,-2.5936,-2.5919,-2.572,-2.5504,-2.5376,-2.4995,-2.4778,-2.4778,-2.4718,-2.4659,-2.4659,-2.5016,-2.5293,-2.5479,-2.5961,-2.622,-2.6252,-2.6505,-2.6714,-2.6791,-2.6994,-2.729,-2.7697,-2.7734,-2.7917,-2.8333,-2.8572,-2.8792,-2.8957,-2.8975,-2.8975,-2.8975,-2.8975,-2.8975,-2.9012,-2.9195,-2.9544,-3.0094,-3.0387,-3.0736,-3.1304,-3.1377,-3.1377,-3.1377,-3.1138,-3.075,-3.0408,-2.9822,-2.9299,-2.9102,-2.8905,-2.8856,-2.8856,-2.8856,-2.8642,-2.8378,-2.818,-2.7915,-2.765,-2.765,-2.8048,-2.8444,-2.8839,-2.943,-3.0278,-3.049,-3.075,-3.1055,-3.1249,-3.1377,-3.1377,-3.1377,-3.1377,-2.3479,-2.3852,-2.4286,-2.4964,-2.5806,-2.6675,-2.7521,-2.8319,-2.8659,-2.855,-2.8173,-2.8406,-2.8767,-2.9122,-2.9458,-2.9626,-2.957,-2.957,-2.9685,-2.9763,-2.9707,-2.9822,-2.9844,-2.9766,-2.967,-2.9426,-2.9011,-2.8672,-2.8465,-2.7846,-2.7475,-2.7364,-2.6994,-2.6791,-2.6809,-2.6809,-2.6791,-2.6791,-2.6809,-2.6573,-2.6245,-2.6482,-2.6591,-2.6554,-2.6279,-2.6114,-2.6131,-2.5764,-2.5561,-2.5561,-2.547,-2.5362,-2.5414,-2.5589,-2.573,-2.5875,-2.633,-2.6608,-2.6489,-2.6516,-2.6628,-2.6719,-2.6995,-2.738,-2.7838,-2.7969,-2.8077,-2.848,-2.881,-2.8975,-2.8975,-2.8975,-2.8975,-2.8975,-2.8975,-2.8975,-2.9012,-2.9324,-2.9727,-3.0149,-3.0552,-3.0937,-3.1267,-3.1377,-3.1377,-3.1377,-3.112,-3.0944,-3.0815,-3.0343,-2.9887,-2.9709,-2.9513,-2.9447,-2.9513,-2.9513,-2.9382,-2.9102,-2.9036,-2.8839,-2.8642,-2.8774,-2.9102,-2.943,-2.9822,-3.0278,-3.0879,-3.1009,-3.1138,-3.1313,-3.1377,-3.1377,-3.1377,-3.1377,-3.1377,-2.3929,-2.4548,-2.521,-2.6371,-2.7719,-2.8439,-2.8957,-2.9313,-2.9608,-2.9884,-3.0025,-2.9757,-2.945,-2.9161,-2.9497,-2.9629,-2.9609,-2.9646,-2.9841,-3.0117,-3.0137,-3.0351,-3.0722,-3.0332,-3.025,-3.0421,-2.9579,-2.9312,-2.948,-2.8878,-2.837,-2.7992,-2.7521,-2.7333,-2.7333,-2.7333,-2.7314,-2.7333,-2.7314,-2.7062,-2.6591,-2.6591,-2.6591,-2.6591,-2.6554,-2.6536,-2.6535,-2.6186,-2.5947,-2.5929,-2.5635,-2.5381,-2.5433,-2.5433,-2.558,-2.5982,-2.6056,-2.6221,-2.6535,-2.6573,-2.6756,-2.7086,-2.7178,-2.7526,-2.8223,-2.8333,-2.8498,-2.8828,-2.8957,-2.8975,-2.8975,-2.8975,-2.8975,-2.8975,-2.8975,-2.8975,-2.903,-2.9324,-2.9727,-3.0149,-3.0571,-3.0937,-3.1286,-3.1377,-3.1377,-3.1377,-3.112,-3.0944,-3.0879,-3.0555,-3.0426,-3.049,-3.0213,-2.9952,-3.0165,-3.0313,-3.01,-2.9739,-2.9674,-2.9561,-2.9364,-2.9495,-2.9822,-3.01,-3.0473,-3.0861,-3.1184,-3.1377,-3.1313,-3.1377,-3.1377,-3.1377,-3.1377,-3.1377,-3.1377,-2.4903,-2.5533,-2.6172,-2.7323,-2.8838,-2.9549,-3.0098,-3.0567,-3.0684,-3.0918,-3.1189,-3.0838,-3.0508,-3.0179,-3.0294,-3.0351,-3.0351,-3.0351,-3.0449,-3.0605,-3.0759,-3.0935,-3.1111,-3.1299,-3.1428,-3.1563,-3.0983,-3.0732,-3.075,-3.0021,-2.9141,-2.8435,-2.8131,-2.7831,-2.746,-2.7422,-2.7422,-2.7422,-2.7422,-2.7279,-2.7116,-2.7062,-2.7062,-2.7062,-2.7062,-2.7008,-2.6826,-2.666,-2.6532,-2.6388,-2.6169,-2.6078,-2.6096,-2.6291,-2.6365,-2.637,-2.6334,-2.6462,-2.6591,-2.6811,-2.7013,-2.716,-2.7636,-2.8058,-2.8352,-2.8608,-2.8828,-2.8938,-2.8975,-2.8975,-2.8975,-2.8975,-2.8975,-2.8975,-2.8975,-2.8993,-2.8993,-2.9562,-3.002,-3.0222,-3.0754,-3.1176,-3.1341,-3.1377,-3.1377,-3.1377,-3.112,-3.0944,-3.0879,-3.062,-3.0573,-3.075,-3.049,-3.0361,-3.062,-3.0685,-3.049,-3.0296,-3.0361,-3.0343,-3.0083,-3.0213,-3.0538,-3.062,-3.0926,-3.1184,-3.1377,-3.1377,-3.1377,-3.1377,-3.1377,-3.1377,-3.1377,-3.1377,-3.1377,-2.5884,-2.6675,-2.7564,-2.8641,-2.9844,-3.049,-3.1034,-3.1383,-3.1441,-3.1556,-3.173,-3.1556,-3.1344,-3.117,-3.1015,-3.0898,-3.0898,-3.0937,-3.0995,-3.1054,-3.1383,-3.1556,-3.1594,-3.2055,-3.2399,-3.2399,-3.217,-3.2055,-3.1957,-3.1097,-3.0145,-2.9427,-2.9078,-2.8696,-2.8207,-2.8145,-2.8121,-2.814,-2.8218,-2.8276,-2.8369,-2.8412,-2.8138,-2.7514,-2.7422,-2.7314,-2.7098,-2.7098,-2.6989,-2.6845,-2.6791,-2.6791,-2.6845,-2.6989,-2.6989,-2.6863,-2.6956,-2.703,-2.703,-2.7271,-2.751,-2.7639,-2.8134,-2.8443,-2.8572,-2.881,-2.8975,-2.8975,-2.8975,-2.8975,-2.8975,-2.8975,-2.8975,-2.8975,-2.8975,-2.9012,-2.9177,-2.98,-3.0241,-3.0387,-3.0956,-3.1377,-3.1377,-3.1377,-3.1377,-3.1377,-3.1184,-3.1073,-3.1009,-3.0879,-3.0815,-3.0944,-3.0685,-3.0555,-3.0815,-3.0879,-3.075,-3.075,-3.0815,-3.0944,-3.0685,-3.0926,-3.1055,-3.1055,-3.1313,-3.1377,-3.1377,-3.1377,-3.1377,-3.1377,-3.1377,-3.1377,-3.1377,-3.1377,-3.1377,-2.6736,-2.808,-2.9608,-3.0372,-3.0898,-3.1441,-3.173,-3.1787,-3.1787,-3.1787,-3.1845,-3.1787,-3.1787,-3.173,-3.1286,-3.0957,-3.0957,-3.1228,-3.1325,-3.1383,-3.1883,-3.217,-3.217,-3.2514,-3.2856,-3.3197,-3.2913,-3.2742,-3.2664,-3.1912,-3.1498,-3.1376,-3.0622,-3.012,-3.0038,-2.9925,-2.9858,-2.9908,-3.0269,-3.0508,-3.0549,-3.0921,-2.9937,-2.7953,-2.7514,-2.7552,-2.746,-2.7387,-2.7387,-2.7387,-2.7387,-2.7387,-2.7368,-2.7368,-2.7368,-2.7425,-2.7801,-2.8028,-2.803,-2.8146,-2.8274,-2.8609,-2.8584,-2.8612,-2.8924,-2.9016,-2.9035,-2.8975,-2.8975,-2.8975,-2.8975,-2.8975,-2.8975,-2.8975,-2.8975,-2.914,-2.9489,-2.991,-3.0351,-3.0699,-3.1102,-3.1359,-3.1377,-3.1377,-3.1377,-3.1377,-3.1377,-3.1377,-3.1313,-3.1313,-3.1313,-3.1184,-3.0879,-3.0508,-3.0815,-3.0815,-3.0815,-3.0879,-3.1009,-3.1313,-3.1377,-3.1377,-3.1377,-3.1377,-3.1377,-3.1377,-3.1377,-3.1377,-3.1377,-3.1377,-3.1377,-3.1377,-3.1377,-3.1377,-3.1377,-2.8361,-2.9608,-3.0567,-3.115,-3.1498,-3.196,-3.219,-3.2383,-3.2383,-3.2498,-3.2669,-3.2477,-3.2571,-3.2892,-3.2342,-3.1845,-3.1498,-3.173,-3.1883,-3.194,-3.2742,-3.3063,-3.3176,-3.384,-3.4233,-3.4311,-3.4233,-3.4065,-3.3853,-3.3388,-3.3043,-3.2725,-3.2243,-3.1873,-3.1578,-3.1517,-3.1486,-3.1507,-3.1655,-3.174,-3.174,-3.1888,-3.1479,-3.0594,-2.9977,-2.9486,-2.9156,-2.8848,-2.8583,-2.8439,-2.8134,-2.796,-2.796,-2.796,-2.8203,-2.8618,-2.8446,-2.8492,-2.878,-2.888,-2.8935,-2.9105,-2.9271,-2.9341,-2.9294,-2.9331,-2.9213,-2.9035,-2.8975,-2.8975,-2.8975,-2.8975,-2.8975,-2.8975,-2.8993,-2.914,-2.9544,-2.9947,-3.0351,-3.0754,-3.1121,-3.1359,-3.1377,-3.1377,-3.1377,-3.1377,-3.1377,-3.1377,-3.1377,-3.1377,-3.1377,-3.1313,-3.1073,-3.075,-3.0815,-3.0685,-3.062,-3.0944,-3.1138,-3.1313,-3.1377,-3.1377,-3.1377,-3.1377,-3.1377,-3.1377,-3.1377,-3.1377,-3.1377,-3.1377,-3.1377,-3.1377,-3.1377,-3.1377,-3.1377,-2.9844,-3.0743,-3.1383,-3.173,-3.2018,-3.2305,-3.2612,-3.2841,-3.2841,-3.3069,-3.3409,-3.331,-3.3572,-3.3909,-3.3685,-3.3367,-3.297,-3.2778,-3.2685,-3.2856,-3.3741,-3.4211,-3.4323,-3.5013,-3.5423,-3.5423,-3.5423,-3.529,-3.5046,-3.468,-3.4371,-3.4065,-3.3638,-3.3235,-3.2933,-3.2868,-3.2835,-3.2857,-3.2987,-3.3074,-3.3095,-3.3226,-3.3258,-3.3095,-3.2602,-3.174,-3.0756,-3.0267,-2.9862,-2.9559,-2.9246,-2.9086,-2.9086,-2.9086,-2.9373,-2.9937,-2.9809,-2.9711,-2.9934,-3.0062,-3.0065,-2.9949,-2.9966,-2.9981,-2.9804,-2.9686,-2.9509,-2.9272,-2.9153,-2.9153,-2.9035,-2.8975,-2.8975,-2.8975,-2.8975,-2.9214,-2.9709,-3.0039,-3.0424,-3.0901,-3.1212,-3.1359,-3.1377,-3.1377,-3.1377,-3.1377,-3.1377,-3.1377,-3.1377,-3.1377,-3.1377,-3.1377,-3.1138,-3.1009,-3.1009,-3.0879,-3.0685,-3.0944,-3.1184,-3.1313,-3.1377,-3.1377,-3.1377,-3.1377,-3.1377,-3.1377,-3.1377,-3.1377,-3.1377,-3.1377,-3.1377,-3.1377,-3.1377,-3.1377,-3.1377,-3.1034,-3.1383,-3.2018,-3.2248,-3.2305,-3.2612,-3.2898,-3.3126,-3.3239,-3.3636,-3.4142,-3.4379,-3.4636,-3.4914,-3.5135,-3.5323,-3.5157,-3.4302,-3.3909,-3.4134,-3.4969,-3.5378,-3.5433,-3.5982,-3.6277,-3.6277,-3.6277,-3.6277,-3.6168,-3.5708,-3.5411,-3.5266,-3.4635,-3.4294,-3.4206,-3.412,-3.4064,-3.4123,-3.4482,-3.4661,-3.4728,-3.501,-3.5101,-3.4947,-3.4814,-3.39,-3.2024,-3.1634,-3.1262,-3.0855,-3.0731,-3.071,-3.071,-3.071,-3.0971,-3.1407,-3.1788,-3.1849,-3.1651,-3.1657,-3.1534,-3.1303,-3.0781,-3.0509,-3.0392,-3.0157,-2.9863,-2.9568,-2.9509,-2.939,-2.9094,-2.9035,-2.9035,-2.8993,-2.903,-2.9379,-2.9947,-3.0222,-3.0516,-3.1157,-3.1359,-3.1377,-3.1377,-3.1377,-3.1377,-3.1377,-3.1377,-3.1377,-3.1377,-3.1377,-3.1377,-3.1377,-3.1184,-3.1138,-3.1138,-3.112,-3.0991,-3.0926,-3.1184,-3.1377,-3.1377,-3.1377,-3.1377,-3.1377,-3.1377,-3.1377,-3.1377,-3.1377,-3.1377,-3.1377,-3.1377,-3.1377,-3.1377,-3.1377,-3.1377,-3.1903,-3.2018,-3.242,-3.2555,-3.2612,-3.2898,-3.3182,-3.3523,-3.3896,-3.4435,-3.4936,-3.5268,-3.5685,-3.6091,-3.6254,-3.6526,-3.6874,-3.6449,-3.5936,-3.5466,-3.5982,-3.6309,-3.6363,-3.6688,-3.685,-3.685,-3.685,-3.685,-3.6796,-3.6472,-3.6309,-3.6208,-3.5899,-3.5668,-3.5622,-3.5617,-3.558,-3.5603,-3.574,-3.5777,-3.5831,-3.5913,-3.595,-3.5895,-3.5676,-3.5166,-3.4548,-3.3562,-3.3018,-3.2771,-3.2523,-3.2351,-3.2351,-3.2351,-3.2588,-3.2964,-3.3026,-3.3117,-3.3226,-3.2922,-3.2685,-3.2457,-3.1998,-3.1421,-3.1092,-3.0801,-3.0392,-2.9922,-2.9745,-2.9627,-2.939,-2.9331,-2.929,-2.9035,-2.9232,-2.958,-3.0167,-3.0662,-3.1066,-3.1304,-3.1377,-3.1377,-3.1377,-3.1377,-3.1377,-3.1377,-3.1377,-3.1377,-3.1377,-3.1377,-3.1377,-3.1377,-3.1249,-3.1267,-3.1249,-3.1249,-3.1184,-3.112,-3.1313,-3.1377,-3.1377,-3.1377,-3.1377,-3.1377,-3.1377,-3.1377,-3.1377,-3.1377,-3.1377,-3.1377,-3.1377,-3.1377,-3.1377,-3.1377,-3.1377,-3.2363,-3.2498,-3.2612,-3.2784,-3.2898,-3.3239,-3.3614,-3.4099,-3.4602,-3.5245,-3.5982,-3.6363,-3.6773,-3.7281,-3.7441,-3.7679,-3.8022,-3.8027,-3.7524,-3.6881,-3.7012,-3.7143,-3.7089,-3.7304,-3.7465,-3.7441,-3.7441,-3.7441,-3.7441,-3.7197,-3.7036,-3.6982,-3.6766,-3.658,-3.658,-3.6603,-3.6603,-3.658,-3.658,-3.6603,-3.658,-3.6603,-3.658,-3.6603,-3.6386,-3.6277,-3.62,-3.5414,-3.4732,-3.4183,-3.3709,-3.3533,-3.3687,-3.3732,-3.3876,-3.4273,-3.4241,-3.4262,-3.4336,-3.4043,-3.3762,-3.3572,-3.3063,-3.2628,-3.217,-3.1767,-3.1131,-3.0743,-3.0392,-3.0157,-2.9882,-2.9796,-2.9614,-2.9453,-2.9476,-2.988,-3.0351,-3.0974,-3.1322,-3.1377,-3.1377,-3.1377,-3.1377,-3.1377,-3.1377,-3.1377,-3.1377,-3.1377,-3.1377,-3.1377,-3.1377,-3.1377,-3.1377,-3.1377,-3.1377,-3.1377,-3.1377,-3.1377,-3.1377,-3.1377,-3.1377,-3.1377,-3.1377,-3.1377,-3.1377,-3.1377,-3.1377,-3.1377,-3.1377,-3.1377,-3.1377,-3.1377,-3.1377,-3.1377,-3.1377,-3.2498,-3.2669,-3.2669,-3.2898,-3.3182,-3.3523,-3.4177,-3.4858,-3.5411,-3.62,-3.7012,-3.7441,-3.7868,-3.8368,-3.8526,-3.8684,-3.8841,-3.8788,-3.8631,-3.8291,-3.8157,-3.7838,-3.7649,-3.7785,-3.7868,-3.7921,-3.7921,-3.7921,-3.7892,-3.7679,-3.7596,-3.7489,-3.7251,-3.7066,-3.7036,-3.7089,-3.7089,-3.7089,-3.7197,-3.7173,-3.7173,-3.7197,-3.7173,-3.712,-3.7143,-3.712,-3.7066,-3.6965,-3.6271,-3.4998,-3.4508,-3.4485,-3.4746,-3.4782,-3.4984,-3.5366,-3.54,-3.5268,-3.5146,-3.498,-3.4847,-3.4547,-3.4043,-3.3649,-3.348,-3.2721,-3.217,-3.1845,-3.1384,-3.0937,-3.0585,-3.0417,-3.0283,-3.0158,-2.9947,-3.0174,-3.0717,-3.1176,-3.1341,-3.1377,-3.1377,-3.1377,-3.1377,-3.1377,-3.1377,-3.1377,-3.1377,-3.1377,-3.1377,-3.1377,-3.1377,-3.1377,-3.1377,-3.1377,-3.1377,-3.1377,-3.1377,-3.1377,-3.1377,-3.1377,-3.1377,-3.1377,-3.1377,-3.1377,-3.1377,-3.1377,-3.1377,-3.1377,-3.1377,-3.1377,-3.1377,-3.1377,-3.1377,-3.1377,-3.1377,-3.2612,-3.2669,-3.2669,-3.2919,-3.3296,-3.3952,-3.4658,-3.5433,-3.6503,-3.7227,-3.7814,-3.8291,-3.8526,-3.8736,-3.905,-3.9154,-3.9206,-3.9362,-3.931,-3.905,-3.8736,-3.8315,-3.7998,-3.7998,-3.7974,-3.7974,-3.7974,-3.7974,-3.7998,-3.7921,-3.7785,-3.7596,-3.7542,-3.7358,-3.7197,-3.7358,-3.7489,-3.7542,-3.7892,-3.7945,-3.7814,-3.7974,-3.7921,-3.7785,-3.7785,-3.7761,-3.7761,-3.7761,-3.7287,-3.631,-3.6064,-3.591,-3.5862,-3.5885,-3.5931,-3.6013,-3.6059,-3.6059,-3.595,-3.5676,-3.5533,-3.5455,-3.4902,-3.4513,-3.4267,-3.3649,-3.314,-3.2804,-3.2493,-3.2133,-3.1762,-3.1618,-3.1401,-3.1046,-3.0673,-3.0688,-3.1066,-3.1368,-3.1377,-3.1377,-3.1377,-3.1377,-3.1377,-3.1377,-3.1377,-3.1377,-3.1377,-3.1377,-3.1377,-3.1377,-3.1377,-3.1377,-3.1377,-3.1377,-3.1377,-3.1377,-3.1377,-3.1377,-3.1377,-3.1377,-3.1377,-3.1377,-3.1377,-3.1377,-3.1377,-3.1377,-3.1377,-3.1377,-3.1377,-3.1377,-3.1377,-3.1377,-3.1377,-3.1377,-3.1377,-3.2669,-3.2727,-3.2841,-3.3182,-3.3636,-3.4491,-3.5268,-3.6091,-3.7227,-3.7974,-3.8368,-3.8788,-3.905,-3.9206,-3.9362,-3.9465,-3.9465,-3.9645,-3.9542,-3.9258,-3.8841,-3.8344,-3.808,-3.7974,-3.7974,-3.7974,-3.7974,-3.7974,-3.7974,-3.7974,-3.7868,-3.7838,-3.7892,-3.7838,-3.7708,-3.7945,-3.8181,-3.8368,-3.8712,-3.8816,-3.8736,-3.8973,-3.8945,-3.8788,-3.8736,-3.8736,-3.8736,-3.8736,-3.8238,-3.7495,-3.7227,-3.7197,-3.7036,-3.7012,-3.6982,-3.6874,-3.6712,-3.658,-3.644,-3.6168,-3.6004,-3.595,-3.5588,-3.529,-3.5058,-3.47,-3.4345,-3.4275,-3.397,-3.3617,-3.315,-3.2713,-3.2289,-3.1822,-3.1492,-3.1331,-3.1423,-3.1359,-3.1377,-3.1377,-3.1377,-3.1377,-3.1377,-3.1377,-3.1377,-3.1377,-3.1377,-3.1377,-3.1377,-3.1377,-3.1377,-3.1377,-3.1377,-3.1377,-3.1377,-3.1377,-3.1377,-3.1377,-3.1377,-3.1377,-3.1377,-3.1377,-3.1377,-3.1377,-3.1377,-3.1377,-3.1377,-3.1377,-3.1377,-3.1377,-3.1377,-3.1377,-3.1377,-3.1377,-3.1377,-3.2727,-3.2784,-3.3069,-3.3579,-3.4255,-3.5102,-3.5927,-3.685,-3.7708,-3.8368,-3.8841,-3.9206,-3.9413,-3.9697,-3.9645,-3.9697,-3.9697,-3.9697,-3.9517,-3.9206,-3.8788,-3.8368,-3.8104,-3.8027,-3.7974,-3.7974,-3.7974,-3.7974,-3.8027,-3.8027,-3.8027,-3.8104,-3.8291,-3.8473,-3.8502,-3.8788,-3.9102,-3.9413,-3.9827,-3.993,-3.9981,-4.0109,-4.016,-3.9929,-3.9775,-3.9775,-3.9775,-3.9724,-3.931,-3.8291,-3.8185,-3.808,-3.808,-3.808,-3.7974,-3.7732,-3.7465,-3.7173,-3.6874,-3.6712,-3.6432,-3.6447,-3.6196,-3.5976,-3.5992,-3.5893,-3.5754,-3.5641,-3.5483,-3.5023,-3.444,-3.3577,-3.2844,-3.246,-3.2192,-3.1763,-3.1506,-3.1442,-3.1377,-3.1377,-3.1377,-3.1377,-3.1377,-3.1377,-3.1377,-3.1377,-3.1377,-3.1377,-3.1377,-3.1377,-3.1377,-3.1377,-3.1377,-3.1377,-3.1377,-3.1377,-3.1377,-3.1377,-3.1377,-3.1377,-3.1377,-3.1377,-3.1377,-3.1377,-3.1377,-3.1377,-3.1377,-3.1377,-3.1377,-3.1377,-3.1377,-3.1377,-3.1377,-3.1377,-3.1377,-3.2862,-3.3069,-3.3203,-3.3784,-3.4769,-3.5466,-3.634,-3.7441,-3.8262,-3.8788,-3.9206,-3.9465,-3.9645,-3.9697,-3.9697,-3.9697,-3.9697,-3.9697,-3.9542,-3.9258,-3.8893,-3.8579,-3.8315,-3.808,-3.7974,-3.7974,-3.7974,-3.7974,-3.8027,-3.821,-3.8315,-3.8368,-3.8631,-3.8841,-3.9154,-3.9569,-3.9981,-4.0338,-4.1071,-4.1272,-4.1071,-4.1372,-4.1372,-4.0971,-4.0719,-4.0643,-4.0593,-4.044,-4.0185,-3.9878,-3.9337,-3.8921,-3.8764,-3.8712,-3.8659,-3.8526,-3.8315,-3.7998,-3.7732,-3.756,-3.7301,-3.7347,-3.7229,-3.7248,-3.7336,-3.7122,-3.6894,-3.6697,-3.6472,-3.6037,-3.5227,-3.4077,-3.3364,-3.3082,-3.2485,-3.1974,-3.1782,-3.157,-3.1442,-3.1377,-3.1377,-3.1377,-3.1377,-3.1377,-3.1377,-3.1377,-3.1377,-3.1377,-3.1377,-3.1377,-3.1377,-3.1377,-3.1377,-3.1377,-3.1377,-3.1377,-3.1377,-3.1377,-3.1377,-3.1377,-3.1377,-3.1377,-3.1377,-3.1377,-3.1377,-3.1377,-3.1377,-3.1377,-3.1377,-3.1377,-3.1442,-3.1442,-3.1442,-3.1442,-3.157,-3.2898,-3.326,-3.3614,-3.4323,-3.519,-3.6036,-3.6904,-3.7814,-3.8526,-3.8998,-3.931,-3.9569,-3.9697,-3.9697,-3.9697,-3.9697,-3.9697,-3.9697,-3.9645,-3.9362,-3.905,-3.8736,-3.8526,-3.8185,-3.7974,-3.7974,-3.7974,-3.7974,-3.808,-3.8238,-3.8368,-3.8473,-3.897,-3.9362,-3.9724,-4.0338,-4.087,-4.1322,-4.1967,-4.2262,-4.2164,-4.2289,-4.2239,-4.172,-4.1421,-4.1298,-4.1248,-4.0997,-4.0922,-4.077,-4.044,-3.9955,-3.9647,-3.9595,-3.9544,-3.9413,-3.9454,-3.9238,-3.8998,-3.8868,-3.8779,-3.869,-3.8461,-3.8269,-3.8189,-3.801,-3.7793,-3.7501,-3.7251,-3.6833,-3.5767,-3.4984,-3.4235,-3.3607,-3.3165,-3.274,-3.2358,-3.1827,-3.1377,-3.1377,-3.1377,-3.1377,-3.1377,-3.1377,-3.1377,-3.1377,-3.1377,-3.1377,-3.1377,-3.1377,-3.1377,-3.1377,-3.1377,-3.1377,-3.1377,-3.1377,-3.1377,-3.1377,-3.1377,-3.1377,-3.1377,-3.1377,-3.1377,-3.1377,-3.1377,-3.1377,-3.1377,-3.1377,-3.1442,-3.1442,-3.1442,-3.1506,-3.1589,-3.1717,-3.1846,-3.3033,-3.3409,-3.4211,-3.4969,-3.5708,-3.6688,-3.7495,-3.8133,-3.8684,-3.9102,-3.9362,-3.9594,-3.9697,-3.9697,-3.9697,-3.9697,-3.9697,-3.9697,-3.9697,-3.9594,-3.905,-3.8788,-3.8656,-3.8412,-3.819,-3.8094,-3.8022,-3.8051,-3.8133,-3.8315,-3.8704,-3.8859,-3.9563,-4.0336,-4.0747,-4.1227,-4.1931,-4.2503,-4.2993,-4.3236,-4.3242,-4.3345,-4.3204,-4.2574,-4.2206,-4.1901,-4.1749,-4.1498,-4.1298,-4.1324,-4.1324,-4.1073,-4.077,-4.0618,-4.0644,-4.0415,-4.0564,-4.053,-4.0414,-4.0364,-4.0256,-4.0348,-3.9871,-3.9443,-3.9193,-3.8907,-3.8573,-3.8173,-3.7769,-3.7149,-3.6178,-3.5624,-3.4984,-3.436,-3.411,-3.367,-3.3038,-3.2147,-3.1827,-3.1506,-3.1442,-3.1377,-3.1377,-3.1377,-3.1377,-3.1377,-3.1377,-3.1377,-3.1377,-3.1377,-3.1377,-3.1377,-3.1377,-3.1377,-3.1377,-3.1377,-3.1377,-3.1377,-3.1377,-3.1377,-3.1377,-3.1377,-3.1377,-3.1377,-3.1377,-3.1377,-3.1377,-3.1377,-3.1442,-3.1442,-3.157,-3.1717,-3.1846,-3.1974,-3.2102,-3.3409,-3.403,-3.4602,-3.5466,-3.6526,-3.7227,-3.7974,-3.8631,-3.905,-3.9362,-3.9594,-3.9697,-3.9697,-3.9697,-3.9697,-3.9697,-3.9697,-3.9697,-3.9697,-3.9594,-3.9102,-3.8841,-3.8831,-3.8728,-3.8677,-3.8551,-3.8388,-3.8302,-3.8412,-3.8631,-3.9343,-4.0092,-4.082,-4.1621,-4.2523,-4.3054,-4.331,-4.3754,-4.4269,-4.4463,-4.4449,-4.4698,-4.4655,-4.3759,-4.326,-4.2774,-4.2202,-4.1822,-4.1547,-4.1298,-4.1324,-4.13,-4.1252,-4.1201,-4.1359,-4.1594,-4.1673,-4.1696,-4.1792,-4.1653,-4.1526,-4.1395,-4.1102,-4.0845,-4.0602,-4.008,-3.9348,-3.8512,-3.7708,-3.6972,-3.681,-3.6178,-3.5685,-3.517,-3.4673,-3.4173,-3.3481,-3.2975,-3.2485,-3.2038,-3.1763,-3.1377,-3.1377,-3.1377,-3.1377,-3.1377,-3.1377,-3.1377,-3.1377,-3.1377,-3.1377,-3.1377,-3.1377,-3.1377,-3.1377,-3.1377,-3.1377,-3.1377,-3.1377,-3.1377,-3.1377,-3.1377,-3.1377,-3.1377,-3.1377,-3.1377,-3.1377,-3.1442,-3.1506,-3.1653,-3.1782,-3.191,-3.2102,-3.2294,-3.2358,-3.384,-3.4568,-3.5323,-3.62,-3.7173,-3.7761,-3.8421,-3.8998,-3.9206,-3.9413,-3.9645,-3.9697,-3.9697,-3.9697,-3.9697,-3.9697,-3.9697,-3.9697,-3.9697,-3.9594,-3.9283,-3.9118,-3.9157,-3.9072,-3.9147,-3.9189,-3.9099,-3.9062,-3.9277,-3.9915,-4.0467,-4.1172,-4.2008,-4.2994,-4.3819,-4.4265,-4.4655,-4.5099,-4.5442,-4.5616,-4.5442,-4.5755,-4.5271,-4.4738,-4.418,-4.3667,-4.3356,-4.2998,-4.2536,-4.2203,-4.2259,-4.2156,-4.1976,-4.203,-4.216,-4.2291,-4.2606,-4.2918,-4.307,-4.3038,-4.3099,-4.2979,-4.2559,-4.1991,-4.1452,-4.0697,-3.9697,-3.8574,-3.7796,-3.7093,-3.6871,-3.6606,-3.6239,-3.5788,-3.5479,-3.4984,-3.4423,-3.4047,-3.3481,-3.274,-3.2211,-3.1827,-3.1377,-3.1377,-3.1377,-3.1377,-3.1377,-3.1377,-3.1377,-3.1377,-3.1377,-3.1377,-3.1377,-3.1377,-3.1377,-3.1377,-3.1377,-3.1377,-3.1377,-3.1377,-3.1377,-3.1377,-3.1377,-3.1377,-3.1377,-3.1377,-3.1506,-3.1506,-3.1717,-3.191,-3.2038,-3.223,-3.2485,-3.2676,-3.274,-3.4233,-3.508,-3.5982,-3.6904,-3.7708,-3.8262,-3.8788,-3.9206,-3.9387,-3.9517,-3.9697,-3.9697,-3.9697,-3.9697,-3.9697,-3.9697,-3.9697,-3.9697,-3.9697,-3.9671,-3.9613,-3.9547,-3.9607,-3.9677,-3.9698,-4.0061,-4.0452,-4.0361,-4.0232,-4.0856,-4.1651,-4.2391,-4.3336,-4.4271,-4.4993,-4.5468,-4.5912,-4.6104,-4.6378,-4.6504,-4.6518,-4.62,-4.5719,-4.5358,-4.4878,-4.4519,-4.4125,-4.3945,-4.3504,-4.3167,-4.3171,-4.3201,-4.2681,-4.2996,-4.3023,-4.2813,-4.3415,-4.3807,-4.4093,-4.4141,-4.4131,-4.41,-4.3628,-4.3017,-4.215,-4.1067,-3.9697,-3.8455,-3.7758,-3.7456,-3.7214,-3.7032,-3.6728,-3.6361,-3.63,-3.6178,-3.5418,-3.4859,-3.4423,-3.367,-3.2848,-3.2211,-3.1891,-3.157,-3.157,-3.1442,-3.1377,-3.1377,-3.1377,-3.1377,-3.1377,-3.1377,-3.1377,-3.1377,-3.1377,-3.1377,-3.1377,-3.1377,-3.1377,-3.1377,-3.1377,-3.1377,-3.1377,-3.1377,-3.1377,-3.1442,-3.1506,-3.1699,-3.1974,-3.2166,-3.2358,-3.2613,-3.2848,-3.2975,-3.3038,-3.4568,-3.5433,-3.6332,-3.7173,-3.7974,-3.8526,-3.8945,-3.931,-3.9517,-3.9697,-3.9697,-3.9697,-3.9697,-3.9697,-3.9697,-3.9697,-3.9697,-3.9697,-3.9697,-3.9696,-3.9863,-3.9978,-4.0145,-4.0465,-4.0709,-4.1058,-4.1762,-4.1441,-4.1186,-4.1588,-4.2543,-4.357,-4.4545,-4.5538,-4.6507,-4.6611,-4.6823,-4.6995,-4.7094,-4.7347,-4.7662,-4.7466,-4.6911,-4.6353,-4.5911,-4.5391,-4.4732,-4.4552,-4.4238,-4.3902,-4.385,-4.3696,-4.349,-4.3887,-4.3967,-4.3808,-4.3912,-4.4095,-4.4487,-4.4561,-4.4639,-4.4585,-4.4258,-4.3848,-4.2768,-4.1353,-3.9931,-3.9249,-3.8358,-3.7818,-3.7637,-3.7456,-3.7154,-3.6911,-3.6789,-3.6484,-3.5911,-3.5726,-3.5294,-3.4797,-3.3985,-3.3038,-3.2403,-3.2038,-3.1782,-3.157,-3.1442,-3.1442,-3.1442,-3.1442,-3.1377,-3.1377,-3.1377,-3.1377,-3.1377,-3.1377,-3.1377,-3.1377,-3.1377,-3.1377,-3.1377,-3.1377,-3.1377,-3.1377,-3.1442,-3.157,-3.1846,-3.2038,-3.223,-3.2485,-3.2676,-3.2975,-3.3228,-3.3355,-3.3292,-3.5323,-3.62,-3.7066,-3.7814,-3.8473,-3.8893,-3.9258,-3.9542,-3.9645,-3.9697,-3.9697,-3.9697,-3.9697,-3.9697,-3.9697,-3.9697,-3.9697,-3.9697,-3.9697,-3.9823,-4.0092,-4.0411,-4.0674,-4.1046,-4.1484,-4.191,-4.2507,-4.2902,-4.2612,-4.3051,-4.3986,-4.4811,-4.5683,-4.6545,-4.7494,-4.7549,-4.7589,-4.7662,-4.774,-4.7853,-4.7948,-4.7852,-4.7536,-4.7133,-4.685,-4.635,-4.5929,-4.5799,-4.5351,-4.4933,-4.4856,-4.4754,-4.4517,-4.4678,-4.4997,-4.4891,-4.4891,-4.4863,-4.4724,-4.4722,-4.4748,-4.4639,-4.4396,-4.3848,-4.2849,-4.1525,-4.0281,-3.9638,-3.8693,-3.8178,-3.7938,-3.7577,-3.7374,-3.7275,-3.7214,-3.6972,-3.6667,-3.6484,-3.6178,-3.5665,-3.517,-3.4298,-3.3481,-3.3038,-3.2594,-3.2038,-3.1827,-3.1717,-3.1653,-3.1506,-3.1442,-3.1377,-3.1377,-3.1377,-3.1377,-3.1377,-3.1377,-3.1377,-3.1377,-3.1377,-3.1377,-3.1377,-3.1442,-3.1506,-3.1589,-3.1782,-3.2102,-3.2294,-3.2422,-3.274,-3.3038,-3.3228,-3.3355,-3.3418,-3.3481,-3.6309,-3.7066,-3.7708,-3.8368,-3.8945,-3.9206,-3.9438,-3.9697,-3.9697,-3.9697,-3.9697,-3.9697,-3.9697,-3.9697,-3.9697,-3.9697,-3.9697,-3.9697,-3.9798,-4.0023,-4.0398,-4.0921,-4.1339,-4.1748,-4.2196,-4.2562,-4.327,-4.3771,-4.4344,-4.4859,-4.5422,-4.5901,-4.6608,-4.726,-4.7699,-4.7925,-4.7999,-4.7999,-4.7999,-4.8027,-4.8083,-4.7931,-4.7829,-4.7647,-4.7494,-4.7236,-4.7029,-4.6922,-4.6389,-4.5969,-4.5946,-4.5762,-4.5286,-4.5368,-4.5555,-4.5449,-4.5395,-4.5315,-4.51,-4.5018,-4.4884,-4.4722,-4.4422,-4.3929,-4.2905,-4.1696,-4.0745,-4.0106,-3.9167,-3.8537,-3.8178,-3.7878,-3.7758,-3.7698,-3.7698,-3.7456,-3.7275,-3.7154,-3.7093,-3.6767,-3.6279,-3.5788,-3.5025,-3.4278,-3.3607,-3.2721,-3.2294,-3.2057,-3.1846,-3.1717,-3.157,-3.1506,-3.1442,-3.1442,-3.1377,-3.1377,-3.1377,-3.1377,-3.1377,-3.1442,-3.1442,-3.1442,-3.1442,-3.1589,-3.1782,-3.2102,-3.2358,-3.2485,-3.2613,-3.2975,-3.3228,-3.3292,-3.3418,-3.3481,-3.369,-3.7334,-3.7921,-3.7974,-3.8526,-3.9258,-3.9258,-3.9465,-3.9697,-3.9697,-3.9697,-3.9697,-3.9697,-3.9697,-3.9697,-3.9697,-3.9697,-3.9697,-3.9697,-3.9973,-4.045,-4.0974,-4.1426,-4.1952,-4.2484,-4.3108,-4.3598,-4.4094,-4.4722,-4.5475,-4.6138,-4.6585,-4.6846,-4.7339,-4.775,-4.7953,-4.8083,-4.8083,-4.8083,-4.8083,-4.8083,-4.8083,-4.8032,-4.7903,-4.7778,-4.7675,-4.7573,-4.7315,-4.7315,-4.7105,-4.6657,-4.6714,-4.6533,-4.603,-4.5979,-4.5981,-4.5822,-4.5768,-4.5662,-4.5555,-4.5448,-4.5395,-4.5072,-4.4639,-4.4094,-4.3406,-4.2513,-4.1606,-4.0687,-3.9697,-3.9049,-3.8716,-3.8477,-3.8178,-3.8118,-3.8058,-3.8021,-3.79,-3.7818,-3.7698,-3.7698,-3.7314,-3.6828,-3.6441,-3.5705,-3.4528,-3.3607,-3.2721,-3.2485,-3.2166,-3.1974,-3.1717,-3.157,-3.1506,-3.1442,-3.1442,-3.1377,-3.1377,-3.1377,-3.1377,-3.1442,-3.1506,-3.1506,-3.1589,-3.1846,-3.2038,-3.2358,-3.2676,-3.2804,-3.2975,-3.3228,-3.3418,-3.3418,-3.3607,-3.3733,-3.4024,-3.7814,-3.8502,-3.8736,-3.8998,-3.931,-3.9465,-3.9594,-3.9697,-3.9697,-3.9697,-3.9697,-3.9697,-3.9697,-3.9697,-3.9697,-3.9697,-3.9697,-3.9697,-4.0074,-4.0526,-4.1078,-4.163,-4.2238,-4.2937,-4.3462,-4.4039,-4.4694,-4.5529,-4.6348,-4.7129,-4.7773,-4.8027,-4.7976,-4.7953,-4.8055,-4.8134,-4.8083,-4.8083,-4.8083,-4.8083,-4.8083,-4.8083,-4.8032,-4.7981,-4.7931,-4.7829,-4.7624,-4.7573,-4.7418,-4.7264,-4.716,-4.6873,-4.6612,-4.656,-4.6403,-4.6192,-4.6139,-4.6139,-4.6034,-4.5822,-4.5555,-4.5395,-4.491,-4.4341,-4.3848,-4.2961,-4.2004,-4.1033,-4.0106,-3.9462,-3.8871,-3.8537,-3.832,-3.838,-3.844,-3.844,-3.838,-3.8298,-3.8238,-3.8178,-3.8058,-3.7758,-3.7435,-3.7071,-3.5767,-3.4528,-3.367,-3.2931,-3.2676,-3.2422,-3.223,-3.1974,-3.1827,-3.157,-3.1506,-3.1442,-3.1442,-3.1442,-3.1442,-3.157,-3.1635,-3.1717,-3.1864,-3.2102,-3.2358,-3.2613,-3.2867,-3.3058,-3.3228,-3.3355,-3.3418,-3.3481,-3.367,-3.4067,-3.4627,-3.8185,-3.8841,-3.9283,-3.9413,-3.9438,-3.9645,-3.9697,-3.9697,-3.9697,-3.9697,-3.9697,-3.9697,-3.9697,-3.9697,-3.9697,-3.9697,-3.9747,-3.9898,-4.03,-4.0802,-4.1379,-4.1911,-4.2633,-4.3318,-4.4013,-4.4531,-4.5422,-4.6376,-4.7232,-4.7948,-4.838,-4.8581,-4.8631,-4.8459,-4.8207,-4.8106,-4.8134,-4.8083,-4.8083,-4.8083,-4.8083,-4.8083,-4.8083,-4.8083,-4.8083,-4.8032,-4.7852,-4.7801,-4.7726,-4.7494,-4.7391,-4.7315,-4.716,-4.6977,-4.6873,-4.6769,-4.6692,-4.6612,-4.6455,-4.6086,-4.5742,-4.5635,-4.518,-4.4748,-4.4148,-4.324,-4.2231,-4.1206,-4.0339,-3.9638,-3.9049,-3.8834,-3.8775,-3.8834,-3.8798,-3.8857,-3.8716,-3.8656,-3.8656,-3.8656,-3.8537,-3.8358,-3.8118,-3.7736,-3.6685,-3.5459,-3.4735,-3.3985,-3.3544,-3.3228,-3.2931,-3.2613,-3.2294,-3.1974,-3.1635,-3.1699,-3.1717,-3.1653,-3.1717,-3.1827,-3.191,-3.1974,-3.2185,-3.2422,-3.2676,-3.2931,-3.3102,-3.3228,-3.3355,-3.3355,-3.3564,-3.3792,-3.4315,-3.4752,-3.554,-3.8579,-3.8893,-3.9438,-3.9697,-3.9697,-3.9697,-3.9697,-3.9697,-3.9697,-3.9697,-3.9697,-3.9697,-3.9697,-3.9697,-3.9697,-3.9697,-3.9823,-4.0199,-4.0701,-4.1204,-4.176,-4.2553,-4.3263,-4.3932,-4.4559,-4.5529,-4.6323,-4.7105,-4.7976,-4.8531,-4.8859,-4.9009,-4.9058,-4.8909,-4.8509,-4.8258,-4.8134,-4.8134,-4.8134,-4.8134,-4.8083,-4.8083,-4.8083,-4.8083,-4.8083,-4.8083,-4.8032,-4.8004,-4.788,-4.7726,-4.7699,-4.7573,-4.7367,-4.7288,-4.7236,-4.7212,-4.7005,-4.6873,-4.6821,-4.6297,-4.606,-4.5954,-4.5502,-4.4964,-4.4313,-4.3406,-4.2457,-4.1378,-4.0571,-3.9989,-3.9521,-3.9308,-3.9308,-3.9308,-3.9308,-3.919,-3.9131,-3.9072,-3.9072,-3.9012,-3.8871,-3.8752,-3.8574,-3.8216,-3.7352,-3.6441,-3.5726,-3.5108,-3.461,-3.4235,-3.3922,-3.3355,-3.2975,-3.2657,-3.2403,-3.2102,-3.1974,-3.191,-3.1974,-3.223,-3.2294,-3.2422,-3.2613,-3.2848,-3.3038,-3.3228,-3.3355,-3.3418,-3.3733,-3.3985,-3.4001,-3.4293,-3.4855,-3.5665,-3.6603,-3.8841,-3.9154,-3.9542,-3.9697,-3.9697,-3.9697,-3.9697,-3.9697,-3.9697,-3.9697,-3.9697,-3.9697,-3.9697,-3.9697,-3.9697,-3.9697,-3.9798,-4.0275,-4.0802,-4.1354,-4.2095,-4.2954,-4.3665,-4.4341,-4.5072,-4.5901,-4.669,-4.7568,-4.833,-4.8909,-4.9256,-4.9404,-4.9305,-4.9108,-4.8859,-4.866,-4.8559,-4.8409,-4.8358,-4.8308,-4.8134,-4.8134,-4.8134,-4.8134,-4.8134,-4.8083,-4.8083,-4.8083,-4.8032,-4.7931,-4.7931,-4.7829,-4.7624,-4.7545,-4.7494,-4.7367,-4.7212,-4.7133,-4.7081,-4.6769,-4.6508,-4.6192,-4.5715,-4.518,-4.4585,-4.3598,-4.2569,-4.1606,-4.0884,-4.0305,-3.9989,-3.9873,-3.9873,-3.9873,-3.9896,-3.9779,-3.9661,-3.9544,-3.9508,-3.9308,-3.9131,-3.9167,-3.9049,-3.893,-3.8253,-3.7774,-3.711,-3.638,-3.5828,-3.5397,-3.5087,-3.436,-3.3859,-3.3481,-3.3165,-3.2975,-3.2931,-3.2931,-3.2785,-3.2721,-3.2848,-3.2975,-3.3038,-3.3355,-3.3481,-3.3607,-3.3879,-3.413,-3.4485,-3.4693,-3.5102,-3.5267,-3.5727,-3.6813,-3.8057,-3.8998,-3.931,-3.9594,-3.9697,-3.9697,-3.9697,-3.9697,-3.9697,-3.9697,-3.9697,-3.9697,-3.9697,-3.9697,-3.9697,-3.9697,-3.9697,-3.9772,-4.0501,-4.0824,-4.143,-4.2406,-4.3271,-4.3991,-4.4722,-4.5635,-4.6428,-4.726,-4.8106,-4.881,-4.9256,-4.9502,-4.96,-4.9551,-4.9375,-4.9178,-4.9009,-4.881,-4.866,-4.866,-4.8559,-4.8409,-4.8358,-4.8258,-4.8207,-4.8185,-4.8083,-4.8083,-4.8083,-4.8083,-4.8083,-4.8083,-4.8032,-4.788,-4.7829,-4.7778,-4.7624,-4.747,-4.7339,-4.716,-4.7005,-4.6665,-4.6245,-4.5768,-4.5234,-4.4505,-4.3462,-4.2569,-4.172,-4.1057,-4.0653,-4.0281,-4.0223,-4.0223,-4.0281,-4.0223,-4.0071,-4.0013,-3.9896,-3.9837,-3.9661,-3.9544,-3.9603,-3.9521,-3.9521,-3.9203,-3.8908,-3.8551,-3.7834,-3.711,-3.6746,-3.6319,-3.5644,-3.5087,-3.4777,-3.4403,-3.4047,-3.3985,-3.3922,-3.3796,-3.3607,-3.367,-3.3859,-3.3796,-3.3859,-3.411,-3.436,-3.4588,-3.4941,-3.55,-3.6165,-3.6813,-3.6876,-3.6855,-3.7971,-3.944,-3.8998,-3.931,-3.9594,-3.9697,-3.9697,-3.9697,-3.9697,-3.9697,-3.9697,-3.9697,-3.9697,-3.9697,-3.9697,-3.9697,-3.9697,-3.9697,-3.9923,-4.0777,-4.1178,-4.1793,-4.2798,-4.3643,-4.4505,-4.5234,-4.6165,-4.7184,-4.8004,-4.8509,-4.9256,-4.9502,-4.962,-4.9669,-4.9698,-4.9571,-4.9424,-4.9227,-4.9029,-4.8959,-4.8909,-4.8859,-4.871,-4.8581,-4.8559,-4.8459,-4.8308,-4.8207,-4.8185,-4.8134,-4.8134,-4.8083,-4.8083,-4.8083,-4.8083,-4.8083,-4.8083,-4.8032,-4.7829,-4.7521,-4.7184,-4.7081,-4.6612,-4.6139,-4.5448,-4.491,-4.4203,-4.3295,-4.2457,-4.1802,-4.1172,-4.0769,-4.0397,-4.0397,-4.0339,-4.0397,-4.0397,-4.0281,-4.0223,-4.0165,-4.0188,-4.0106,-4.0048,-4.0048,-3.9989,-3.9931,-3.9873,-3.9697,-3.938,-3.9026,-3.8373,-3.8096,-3.7654,-3.711,-3.6563,-3.6175,-3.5807,-3.5459,-3.5149,-3.5211,-3.4859,-3.4673,-3.4735,-3.4673,-3.4548,-3.461,-3.4859,-3.5169,-3.5687,-3.6247,-3.681,-3.7547,-3.8373,-3.8586,-3.8497,-3.95,-4.077,-3.931,-3.9569,-3.9697,-3.9697,-3.9697,-3.9697,-3.9697,-3.9697,-3.9697,-3.9697,-3.9697,-3.9697,-3.9697,-3.9697,-3.9697,-3.9697,-4.0099,-4.0701,-4.1339,-4.216,-4.3227,-4.4186,-4.5072,-4.5795,-4.669,-4.7494,-4.8258,-4.8859,-4.9256,-4.96,-4.9669,-4.9746,-4.9746,-4.9746,-4.9649,-4.9522,-4.9355,-4.9256,-4.9207,-4.9108,-4.9009,-4.8831,-4.881,-4.871,-4.8509,-4.8409,-4.8358,-4.8235,-4.8185,-4.8134,-4.8134,-4.8134,-4.8083,-4.8083,-4.8083,-4.8083,-4.8032,-4.7931,-4.7699,-4.7184,-4.6612,-4.5901,-4.51,-4.4639,-4.4013,-4.324,-4.2369,-4.1859,-4.1344,-4.0942,-4.0769,-4.0769,-4.0769,-4.0711,-4.0711,-4.0711,-4.0653,-4.0537,-4.0537,-4.0397,-4.0339,-4.0339,-4.0339,-4.0281,-4.0223,-4.0223,-4.0106,-3.9873,-3.9579,-3.9226,-3.8871,-3.8313,-3.7954,-3.7572,-3.7352,-3.6989,-3.6685,-3.6441,-3.6074,-3.5705,-3.5603,-3.5541,-3.5294,-3.55,-3.5974,-3.6493,-3.6974,-3.7644,-3.8423,-3.9184,-3.9976,-4.011,-4.0392,-4.1194,-4.1908,-3.9214,-3.9672,-3.9697,-3.9697,-3.9697,-3.9697,-3.9697,-3.9697,-3.9697,-3.9697,-3.9697,-3.9697,-3.9697,-3.9697,-3.9697,-3.9722,-3.9798,-4.0777,-4.1462,-4.209,-4.3524,-4.4537,-4.5395,-4.627,-4.7208,-4.7953,-4.8559,-4.9108,-4.9404,-4.96,-4.9746,-4.9746,-4.9746,-4.9746,-4.9698,-4.9698,-4.962,-4.9502,-4.9453,-4.9355,-4.9227,-4.9108,-4.9058,-4.9009,-4.8781,-4.8681,-4.866,-4.8459,-4.8409,-4.8409,-4.8409,-4.8409,-4.8409,-4.8409,-4.8409,-4.8409,-4.8308,-4.8106,-4.7829,-4.7236,-4.656,-4.5688,-4.483,-4.4287,-4.3628,-4.293,-4.2425,-4.1997,-4.1541,-4.1196,-4.1196,-4.1196,-4.1196,-4.1196,-4.1115,-4.1057,-4.1,-4.0908,-4.0826,-4.0653,-4.0629,-4.0629,-4.0629,-4.0571,-4.0595,-4.0711,-4.0711,-4.0653,-4.0339,-3.9989,-3.9697,-3.9344,-3.9167,-3.8908,-3.8693,-3.8395,-3.8014,-3.7654,-3.7352,-3.705,-3.6707,-3.6606,-3.6545,-3.6853,-3.7306,-3.7894,-3.853,-3.9343,-4.009,-4.0796,-4.1358,-4.165,-4.185,-4.2411,-4.2997,-3.8941,-3.9622,-3.9672,-3.9697,-3.9697,-3.9697,-3.9697,-3.9697,-3.9697,-3.9697,-3.9697,-3.9697,-3.9697,-3.9697,-3.9697,-3.9697,-4.0023,-4.0802,-4.1569,-4.1966,-4.3633,-4.483,-4.5768,-4.6769,-4.7596,-4.838,-4.893,-4.9305,-4.96,-4.9746,-4.9746,-4.9746,-4.9746,-4.9746,-4.9746,-4.9746,-4.9698,-4.9649,-4.9649,-4.96,-4.96,-4.9453,-4.9305,-4.9305,-4.9108,-4.8959,-4.8909,-4.8909,-4.8881,-4.8909,-4.8859,-4.8859,-4.8859,-4.881,-4.8831,-4.8681,-4.8431,-4.8156,-4.7699,-4.7081,-4.6218,-4.5422,-4.4639,-4.4039,-4.3376,-4.2818,-4.2369,-4.2167,-4.1802,-4.1516,-4.1516,-4.1516,-4.1516,-4.1516,-4.1459,-4.1459,-4.1402,-4.1344,-4.1344,-4.123,-4.123,-4.123,-4.1091,-4.1033,-4.0942,-4.1115,-4.1081,-4.1081,-4.0942,-4.0595,-4.0397,-4.0165,-4.0106,-3.9873,-3.9697,-3.9403,-3.9167,-3.8871,-3.8551,-3.8253,-3.7856,-3.7818,-3.7862,-3.8243,-3.873,-3.9484,-4.019,-4.0831,-4.143,-4.204,-4.2568,-4.3036,-4.3428,-4.3529,-4.3678,-3.8893,-3.9094,-3.9521,-3.9697,-3.9697,-3.9697,-3.9697,-3.9697,-3.9697,-3.9697,-3.9697,-3.9697,-3.9697,-3.9697,-3.9697,-3.9697,-3.9948,-4.0729,-4.1549,-4.2462,-4.3797,-4.5074,-4.6007,-4.7133,-4.7953,-4.8481,-4.898,-4.9453,-4.9649,-4.9746,-4.9746,-4.9746,-4.9746,-4.9746,-4.9746,-4.9746,-4.9746,-4.9746,-4.9746,-4.9746,-4.9698,-4.9669,-4.9571,-4.9502,-4.9355,-4.9207,-4.9157,-4.9058,-4.893,-4.8909,-4.8881,-4.8881,-4.8881,-4.8881,-4.8781,-4.8581,-4.838,-4.8106,-4.7545,-4.6821,-4.5901,-4.5154,-4.445,-4.3819,-4.3209,-4.2706,-4.2369,-4.2256,-4.2142,-4.1915,-4.1802,-4.1802,-4.1802,-4.1802,-4.1802,-4.1802,-4.1802,-4.1802,-4.1802,-4.1826,-4.1826,-4.1745,-4.1573,-4.1459,-4.1402,-4.1287,-4.1172,-4.1196,-4.1196,-4.0942,-4.0942,-4.0769,-4.0884,-4.0769,-4.0537,-4.0305,-4.0013,-3.9755,-3.9403,-3.9167,-3.9012,-3.9098,-3.916,-3.9673,-4.0249,-4.0912,-4.1443,-4.1938,-4.2521,-4.3074,-4.3278,-4.3615,-4.385,-4.4013,-4.4075,-3.8466,-3.8969,-3.9471,-3.9697,-3.9697,-3.9697,-3.9697,-3.9697,-3.9697,-3.9697,-3.9697,-3.9697,-3.9697,-3.9697,-3.9697,-3.9697,-3.9899,-4.0656,-4.1559,-4.2653,-4.3965,-4.5394,-4.6501,-4.7545,-4.828,-4.8831,-4.9256,-4.96,-4.9698,-4.9746,-4.9746,-4.9746,-4.9746,-4.9746,-4.9746,-4.9746,-4.9746,-4.9746,-4.9746,-4.9746,-4.9746,-4.9669,-4.9669,-4.9649,-4.96,-4.9453,-4.9453,-4.9326,-4.9277,-4.9227,-4.9277,-4.9277,-4.9277,-4.9277,-4.9157,-4.8831,-4.8531,-4.8055,-4.7391,-4.6508,-4.5529,-4.483,-4.4123,-4.3462,-4.3209,-4.2762,-4.2569,-4.2481,-4.2199,-4.1972,-4.1997,-4.1997,-4.1997,-4.1997,-4.1997,-4.1997,-4.1997,-4.1997,-4.1997,-4.1997,-4.1997,-4.1997,-4.1802,-4.1606,-4.1492,-4.1459,-4.1344,-4.1196,-4.1196,-4.1196,-4.1196,-4.1196,-4.1196,-4.1196,-4.0942,-4.0769,-4.0653,-4.0421,-4.0188,-4.0118,-4.0022,-4.0313,-4.0569,-4.1014,-4.1522,-4.2141,-4.2678,-4.2938,-4.3274,-4.3722,-4.3879,-4.4075,-4.4223,-4.4285,-4.4285,-3.7913,-3.8894,-3.9471,-3.9697,-3.9697,-3.9697,-3.9697,-3.9697,-3.9697,-3.9697,-3.9697,-3.9697,-3.9697,-3.9697,-3.9697,-3.9697,-3.995,-4.0662,-4.154,-4.2709,-4.4045,-4.5548,-4.6916,-4.8055,-4.8681,-4.9128,-4.9551,-4.9649,-4.9698,-4.9746,-4.9746,-4.9746,-4.9746,-4.9746,-4.9746,-4.9746,-4.9746,-4.9746,-4.9746,-4.9746,-4.9746,-4.9746,-4.9746,-4.9746,-4.9746,-4.9746,-4.9669,-4.9669,-4.9669,-4.9669,-4.962,-4.9571,-4.9522,-4.9473,-4.9256,-4.9009,-4.8459,-4.7903,-4.7133,-4.6139,-4.5234,-4.4476,-4.3793,-4.3351,-4.3098,-4.293,-4.2793,-4.2625,-4.2369,-4.2256,-4.2199,-4.2199,-4.2199,-4.2199,-4.2199,-4.2199,-4.2199,-4.2199,-4.2199,-4.2199,-4.2199,-4.2199,-4.2029,-4.1834,-4.1663,-4.1549,-4.1459,-4.1287,-4.1196,-4.1196,-4.1196,-4.1196,-4.1196,-4.1196,-4.1196,-4.1081,-4.0942,-4.0884,-4.07,-4.0868,-4.1141,-4.146,-4.185,-4.2231,-4.2769,-4.315,-4.3463,-4.374,-4.4079,-4.4199,-4.4223,-4.4223,-4.4223,-4.4347,-4.4347,-3.7839,-3.8919,-3.9471,-3.9697,-3.9697,-3.9697,-3.9697,-3.9697,-3.9697,-3.9697,-3.9697,-3.9697,-3.9697,-3.9697,-3.9697,-3.9749,-3.9876,-4.0589,-4.1541,-4.2709,-4.4147,-4.5752,-4.7173,-4.833,-4.893,-4.9375,-4.9698,-4.9698,-4.9746,-4.9746,-4.9746,-4.9746,-4.9746,-4.9746,-4.9746,-4.9746,-4.9746,-4.9746,-4.9746,-4.9746,-4.9746,-4.9746,-4.9746,-4.9746,-4.9746,-4.9746,-4.9746,-4.9746,-4.9746,-4.9746,-4.9746,-4.9746,-4.9649,-4.9473,-4.9207,-4.8731,-4.8258,-4.7466,-4.6585,-4.5688,-4.4856,-4.4258,-4.3683,-4.324,-4.3098,-4.2986,-4.293,-4.293,-4.2706,-4.2706,-4.2706,-4.2706,-4.2706,-4.2706,-4.2706,-4.2706,-4.2706,-4.2706,-4.2706,-4.2706,-4.2706,-4.2594,-4.2369,-4.2118,-4.1859,-4.1688,-4.1402,-4.123,-4.1196,-4.1196,-4.1196,-4.1196,-4.1196,-4.1196,-4.1196,-4.1196,-4.1115,-4.1139,-4.1201,-4.1362,-4.1863,-4.2676,-4.3072,-4.3203,-4.3514,-4.3897,-4.4189,-4.4141,-4.4189,-4.4285,-4.4285,-4.4285,-4.4285,-4.4409,-4.447]}]]